[[[{"header":{"parameterUnit":"kt","parameterCategory":2,"dx":1,"dy":1,"la1":29.587661999999998,"la2":31.0,"lo1":-88.76705300000003,"lo2":-86.6583820000003,"nx":115,"ny":88,"refTime":"2022-10-31T18:00:00:Z","depth":0,"parameterNumber":1,"parameterNumberName":"U-component_of_WINDS"},"data":[5.6937,5.7552,5.7405,5.7589,5.7908,5.7804,5.777,5.7734,5.7626,5.7589,5.7987,5.8933,5.9954,6.0983,6.3126,6.5129,6.5518,6.3803,6.3886,6.3781,6.0425,5.9665,5.8974,5.7769,5.7735,5.7626,5.7589,5.7662,5.7589,5.7589,5.7626,5.7735,5.7735,5.7735,5.7735,5.7735,5.7735,5.7735,5.7735,5.7735,5.7735,5.7735,5.7735,5.7735,5.7735,5.8574,5.9779,6.1384,6.3109,6.5057,6.7005,6.8562,6.9297,6.9538,6.9571,6.9571,6.9603,6.9587,6.9571,6.9571,6.9656,6.9921,7.2352,7.4359,7.5724,7.7831,7.9256,7.9875,7.9915,7.9915,7.9913,7.989,7.9907,7.9907,7.9907,7.9907,7.9901,7.9917,7.991,7.9893,7.9834,7.9404,7.8822,7.8557,7.839,7.839,7.8427,7.8392,7.8356,7.8951,7.9545,8.1328,8.3036,8.507,8.6563,8.6264,8.7026,8.6963,8.6779,8.6824,8.6182,8.464,8.4951,8.6328,8.8228,9.0202,9.0758,9.1216,9.1956,9.2157,9.2579,9.272,9.272,9.2544,9.2403,5.6946,5.7588,5.7832,5.8075,5.8112,5.8079,5.7939,5.7766,5.7731,5.7734,5.7844,5.7988,5.9195,6.0108,6.1091,6.3979,6.4969,6.306,6.2404,6.1711,5.9706,5.9195,5.8611,5.7954,5.7808,5.7698,5.7662,5.7698,5.7735,5.7699,5.7662,5.7735,5.7735,5.7735,5.7735,5.7735,5.7735,5.7735,5.7735,5.7735,5.7735,5.7735,5.7771,5.7771,5.7735,5.7879,5.8975,6.0511,6.2451,6.4584,6.6975,6.8617,6.9517,6.9603,6.9603,6.9603,6.9596,6.9603,6.9587,6.9625,6.9747,7.0598,7.3212,7.487,7.56,7.7307,7.9224,7.9905,7.9913,7.989,7.9899,7.989,7.9918,7.9907,7.9907,7.9907,7.9901,7.9925,7.9894,7.9901,7.9697,7.9443,7.9014,7.8622,7.8528,7.8457,7.8457,7.8388,7.8464,7.8912,8.0214,8.2108,8.3187,8.3571,8.4423,8.5361,8.6839,8.6722,8.6621,8.7322,8.7887,8.8192,8.8677,8.9163,8.9947,9.1794,9.2565,9.2328,9.2378,9.2579,9.2755,9.2836,9.2755,9.272,9.272,5.7143,5.7443,5.7993,5.8315,5.8419,5.8345,5.8254,5.8103,5.8071,5.8098,5.8156,5.8193,5.8572,5.915,6.0104,6.2122,6.2703,6.1788,6.1824,6.1567,6.0436,5.9122,5.8574,5.8209,5.7917,5.7735,5.7735,5.7735,5.7735,5.7735,5.7735,5.7735,5.7735,5.7735,5.7735,5.7735,5.7735,5.7735,5.7735,5.777,5.7875,5.7805,5.777,5.8005,5.8071,5.8167,5.9051,6.0516,6.2264,6.4307,6.7084,6.8865,6.9611,6.9663,6.9715,6.9691,6.9625,6.9581,6.9603,6.9823,7.0169,7.1471,7.3663,7.5334,7.6056,7.7825,7.9765,7.9917,7.9895,7.9913,7.9923,7.9923,7.9913,7.9907,7.9907,7.9907,7.9901,7.9963,8.0039,8.0304,8.0781,8.033,7.9325,7.8995,7.8818,7.8818,7.8602,7.8531,7.846,7.8648,8.1067,8.2927,8.3298,8.3626,8.4246,8.5404,8.658,8.6402,8.6144,8.7069,8.8252,9.026,9.1988,9.177,9.2231,9.3556,9.3324,9.2866,9.2847,9.2801,9.2801,9.2836,9.2755,9.272,9.272,5.7516,5.7692,5.8211,5.8509,5.8718,5.8644,5.8536,5.8411,5.847,5.8509,5.8526,5.8526,5.8601,5.8734,5.9515,6.0484,6.1056,6.0949,6.1572,6.1133,5.9998,5.883,5.9049,5.81,5.7808,5.7735,5.7735,5.7735,5.7735,5.7735,5.7735,5.7735,5.7735,5.7735,5.7735,5.7735,5.7698,5.7734,5.7805,5.7908,5.7975,5.7908,5.7905,5.8162,5.8367,5.8424,5.9214,6.0754,6.2445,6.4022,6.7024,6.8711,6.9691,6.9743,6.9767,6.974,6.9704,6.9634,6.9656,6.9762,7.0159,7.158,7.3421,7.5183,7.6983,7.8807,7.9804,7.989,7.9923,7.9918,7.9913,7.9913,7.9907,7.9907,7.9907,7.9907,7.9907,8.0046,8.0183,8.0983,8.2004,8.1311,8.0011,7.9464,7.9251,7.9406,7.9597,7.9675,7.9903,8.0499,8.311,8.3334,8.3633,8.4699,8.4921,8.5819,8.6436,8.6425,8.6201,8.7044,8.8174,9.0506,9.2962,9.342,9.3597,9.3674,9.3633,9.3281,9.3043,9.2928,9.2963,9.2963,9.2882,9.2882,9.2882,5.8103,5.8367,5.8628,5.8759,5.8845,5.8907,5.8797,5.8733,5.893,5.8893,5.8759,5.8696,5.8781,5.8786,5.8917,5.9779,6.0193,5.971,5.9796,6.0421,5.9042,5.8461,5.8316,5.7844,5.7877,5.777,5.7735,5.7807,5.7771,5.7735,5.7735,5.7735,5.7735,5.7771,5.7734,5.7734,5.777,5.7841,5.7975,5.8135,5.8135,5.813,5.8125,5.83,5.8499,5.8644,5.9368,6.0934,6.2959,6.4379,6.621,6.8066,6.9137,6.9767,6.9778,6.9767,6.973,6.9701,6.9672,6.9704,7.0027,7.124,7.292,7.4661,7.6424,7.8229,7.9571,7.9918,7.9918,7.9913,7.9907,7.9907,7.9907,7.9907,8.0021,8.0135,8.0324,8.0653,8.122,8.2601,8.354,8.3985,8.2559,8.0691,8.0622,8.2336,8.2752,8.2607,8.2872,8.332,8.4116,8.3923,8.5518,8.7228,8.6868,8.6149,8.6623,8.6642,8.6333,8.717,8.9994,9.2047,9.386,9.386,9.3749,9.386,9.386,9.3521,9.3289,9.321,9.3167,9.3123,9.3123,9.3088,9.3088,5.8367,5.8617,5.8654,5.8896,5.911,5.923,5.923,5.9189,5.927,5.927,5.9147,5.9147,5.906,5.892,5.8858,5.9056,5.9742,5.8795,5.8663,5.9299,5.8587,5.8272,5.8167,5.8167,5.8038,5.8012,5.7944,5.791,5.7771,5.7735,5.7698,5.7698,5.7735,5.7807,5.7841,5.7839,5.7875,5.8009,5.8167,5.8411,5.8507,5.8507,5.8555,5.8681,5.893,5.8991,5.9313,6.1093,6.288,6.4437,6.6166,6.7965,6.9376,6.9778,6.9752,6.9704,6.9742,6.9691,6.9663,6.9703,7.0397,7.163,7.3598,7.4678,7.615,7.7841,7.9159,7.9907,7.9907,7.9907,7.9907,7.9907,7.9907,7.9945,8.0173,8.04,8.0849,8.1298,8.2594,8.4123,8.5121,8.5794,8.5008,8.3097,8.2517,8.3751,8.4349,8.4321,8.4694,8.5709,8.6163,8.5903,8.7805,8.9479,8.7934,8.6868,8.7432,8.7708,8.7797,8.9832,9.2222,9.3935,9.386,9.3935,9.3935,9.3935,9.3935,9.3674,9.3521,9.3444,9.3324,9.3402,9.3479,9.3324,9.3246,5.8675,5.8884,5.8884,5.9037,5.9346,5.8973,5.9162,5.9531,5.9531,5.9513,5.9515,5.9515,5.9307,5.9072,5.9035,5.8962,5.8896,5.8721,5.867,5.8617,5.8583,5.8518,5.8453,5.8395,5.8367,5.8315,5.8261,5.8135,5.7978,5.7875,5.7839,5.7805,5.7805,5.7875,5.7942,5.8005,5.8103,5.823,5.8478,5.8648,5.8702,5.8781,5.8908,5.8968,5.9168,5.923,5.9382,6.0728,6.2505,6.4112,6.5809,6.776,6.9384,6.9762,6.9752,6.9677,6.9653,6.9729,6.9717,6.9753,7.0166,7.1402,7.3691,7.4664,7.5939,7.7674,7.9723,7.9907,7.9907,7.9907,7.9907,7.9907,7.9907,8.0286,8.0855,8.1235,8.1791,8.2497,8.3845,8.5378,8.6862,8.7303,8.6648,8.5022,8.4536,8.4947,8.5321,8.5546,8.6226,8.8214,8.8978,8.8738,8.9979,9.0882,8.9635,8.8133,8.8578,8.9333,9.1152,9.3043,9.3935,9.3935,9.3935,9.3935,9.3935,9.3935,9.3935,9.3825,9.3749,9.3597,9.3556,9.3709,9.3709,9.3366,9.321,5.9079,5.9381,5.9141,5.9196,5.9275,5.7764,5.8108,5.9592,5.9606,5.9626,5.9495,5.9495,5.9459,5.9459,5.9459,5.9421,5.9325,5.9037,5.8977,5.8856,5.8772,5.8633,5.858,5.858,5.8644,5.8707,5.8692,5.8507,5.8396,5.8235,5.8181,5.8192,5.8156,5.8005,5.8135,5.8291,5.8507,5.8527,5.8729,5.8845,5.897,5.9042,5.9119,5.9168,5.927,5.9364,5.9565,6.0053,6.1786,6.3502,6.4951,6.6965,6.8502,6.9687,6.9762,6.9729,6.9639,6.9773,6.9845,6.9797,7.0223,7.1184,7.3408,7.461,7.5999,7.8048,7.9527,7.9907,7.9907,7.9907,7.9907,7.9907,7.9945,8.078,8.1463,8.2329,8.2884,8.3903,8.5252,8.6523,8.8005,8.8225,8.7561,8.7602,8.7041,8.7153,8.7004,8.7266,8.8244,9.0301,9.1169,9.1025,9.1858,9.2616,9.161,9.0186,9.0296,9.1045,9.3221,9.3935,9.3935,9.3935,9.3935,9.3935,9.3935,9.3935,9.3935,9.3935,9.3825,9.386,9.3709,9.3785,9.3709,9.3479,9.321,5.8782,5.7962,5.7741,5.727,5.6422,5.5801,5.6454,5.8043,5.9205,5.9646,5.9608,5.9619,5.9608,5.9552,5.9515,5.9515,5.9515,5.9325,5.9288,5.923,5.9088,5.8985,5.8985,5.9022,5.9052,5.8883,5.8884,5.934,5.9881,5.8906,5.8885,5.9158,5.8839,5.8389,5.8453,5.8665,5.8858,5.8759,5.8896,5.9042,5.9157,5.9243,5.9325,5.9346,5.9382,5.9435,5.9539,5.9969,6.0768,6.2884,6.4585,6.6208,6.7046,6.8315,6.9831,6.9802,6.9783,6.9911,6.9957,6.993,7.0426,7.1279,7.3657,7.5359,7.6834,7.8503,7.9527,7.9907,7.9907,7.9907,7.9907,7.9907,8.04,8.1652,8.2639,8.4119,8.481,8.5581,8.6772,8.759,8.8736,8.8664,8.8387,8.8612,8.8612,8.8612,8.8649,8.9359,9.011,9.1756,9.2934,9.3743,9.4668,9.4178,9.3109,9.1939,9.2044,9.2936,9.3471,9.3899,9.3935,9.3935,9.3935,9.3935,9.3935,9.3935,9.3935,9.3935,9.3935,9.386,9.3825,9.3785,9.3669,9.3515,9.3246,5.7312,5.634,5.6215,5.4962,5.3304,5.4121,5.521,5.6579,5.858,5.9692,5.9692,5.9736,5.9756,5.9652,5.9595,5.9582,5.9565,5.9533,5.9495,5.9458,5.9346,5.9365,5.9346,5.9363,5.9547,5.965,5.9306,5.9822,6.1194,5.9466,5.9615,5.9796,5.8907,5.867,5.8845,5.8954,5.9037,5.8916,5.9066,5.9247,5.9307,5.944,5.9477,5.9438,5.9506,5.9554,5.957,5.9643,6.0617,6.2367,6.379,6.5073,6.572,6.8282,6.9769,6.9883,6.989,7.0003,7.0007,7.0112,7.0592,7.1835,7.3495,7.5392,7.6606,7.8541,7.9603,7.9907,7.9907,7.9907,8.0324,8.0514,8.1311,8.2563,8.4119,8.5598,8.6453,8.7208,8.7713,8.8494,8.8781,8.8674,8.8612,8.8612,8.8612,8.8612,8.8612,8.9397,9.1081,9.2764,9.446,9.5609,9.6093,9.5368,9.4578,9.3407,9.3293,9.3507,9.3721,9.3935,9.3935,9.3935,9.3935,9.3935,9.3935,9.3935,9.3935,9.3935,9.3935,9.3899,9.3753,9.3753,9.3556,9.3281,9.3202,5.4896,5.4762,5.4594,5.2689,5.0333,5.3164,5.4526,5.5197,5.7971,5.9462,5.9673,5.9753,5.976,5.9707,5.9673,5.9662,5.9652,5.9663,5.9588,5.9531,5.9475,5.9475,5.9495,5.959,5.9872,6.0962,6.0379,6.0133,6.1513,5.9815,5.9238,5.9181,5.9266,5.8962,5.921,5.9168,5.9088,5.9131,5.9364,5.9382,5.9382,5.942,5.9565,5.9576,5.9623,5.9638,5.9615,5.9684,6.0289,6.1471,6.2715,6.3768,6.5027,6.8121,6.9738,6.9933,7.0004,7.0006,7.0014,7.0004,7.027,7.1028,7.4064,7.5468,7.6004,7.7826,7.9907,8.0021,8.0552,8.0552,8.0969,8.1804,8.2791,8.4081,8.5864,8.7216,8.7662,8.8248,8.8328,8.8747,8.8734,8.8645,8.8645,8.8612,8.8612,8.8836,8.8724,8.9848,9.1756,9.3543,9.5298,9.6329,9.6736,9.5739,9.4444,9.4085,9.3935,9.3935,9.3935,9.3935,9.3935,9.3935,9.3935,9.3935,9.3935,9.3935,9.3935,9.3935,9.3935,9.3899,9.3828,9.3602,9.3324,9.3078,9.2963,5.4,5.2938,5.2874,5.1375,4.9482,5.1382,5.2987,5.4454,5.6717,5.8322,5.9669,5.9703,5.9741,5.9765,5.9714,5.972,5.9759,5.9719,5.9661,5.9602,5.9602,5.9608,5.9608,5.9719,5.9941,5.9962,5.9774,6.0338,6.1733,6.0135,5.989,6.002,6.0004,5.9477,5.9455,5.9384,5.9365,5.9364,5.9452,5.9468,5.9468,5.9452,5.9539,5.9661,5.9676,5.9667,5.9671,5.9735,6.0124,6.0568,6.1183,6.2391,6.5049,6.7661,6.9542,6.997,7.0006,7.0004,7.0018,7.015,7.053,7.1825,7.4671,7.6189,7.7099,7.8541,7.9831,8.0059,8.2221,8.3511,8.3663,8.4081,8.4801,8.5674,8.7457,8.8194,8.8636,8.8815,8.8925,8.8897,8.8765,8.8679,8.8679,8.8612,8.9135,9.0107,9.0182,9.1119,9.2951,9.4775,9.6301,9.6779,9.698,9.553,9.4195,9.4012,9.3935,9.3935,9.3935,9.3935,9.3935,9.3935,9.3935,9.3935,9.3935,9.3935,9.386,9.3825,9.3825,9.4078,9.3785,9.3669,9.3352,9.3175,9.2942,5.193,5.0881,5.0787,5.0358,4.984,5.1447,5.3166,5.4925,5.6756,5.8331,5.9449,5.9583,5.9697,5.9757,5.977,5.9782,5.9859,5.9742,5.9728,5.9705,5.9681,5.969,5.969,5.9757,6.0053,6.0502,5.9975,6.0464,6.167,6.0338,6.0544,6.049,6.0007,5.9695,5.9582,5.9554,5.9547,5.9547,5.9562,5.9562,5.9562,5.9585,5.96,5.9705,5.9667,5.9657,5.9684,5.9696,5.9745,5.9866,5.9949,6.2015,6.4762,6.8109,6.9702,6.9985,6.9992,6.9988,7.0004,7.137,7.2053,7.3571,7.5506,7.763,7.8427,7.9224,7.9793,8.1425,8.3929,8.6699,8.685,8.685,8.685,8.7685,8.8437,8.8945,8.9265,8.93,8.9317,8.9105,8.8915,8.8739,8.8679,8.8645,8.992,9.1266,9.1752,9.2427,9.437,9.6199,9.6772,9.7296,9.6357,9.4963,9.4303,9.4121,9.3935,9.3935,9.3935,9.3935,9.3935,9.3935,9.3935,9.3935,9.3935,9.3935,9.386,9.3749,9.4426,9.5495,9.5198,9.426,9.3627,9.3341,9.3048,4.909,4.8854,4.862,4.9431,5.0992,5.2708,5.4287,5.5813,5.7877,5.8845,5.9097,5.9402,5.9527,5.9657,5.9765,5.9818,5.9834,5.9857,5.9828,5.9738,5.9684,5.9752,5.9717,5.9914,6.0289,6.1162,6.0422,6.0549,6.1162,6.0162,5.9873,5.9715,5.9821,5.9735,5.9697,5.9687,5.9666,5.9658,5.9682,5.9682,5.9659,5.9695,5.9695,5.9695,5.9684,5.9696,5.9669,6.0009,6.0251,6.0383,6.0783,6.252,6.583,6.8593,6.9799,7.0004,7.0014,7.0502,7.137,7.3001,7.4216,7.4709,7.5809,7.7554,7.9186,7.9793,7.9907,8.0438,8.5636,8.871,8.9544,8.9886,8.9165,8.9355,8.9272,8.9627,8.9557,8.9565,8.943,8.9299,8.9082,8.8848,8.8739,8.8645,8.9658,9.1117,9.1679,9.3098,9.5155,9.657,9.7144,9.7139,9.5932,9.5132,9.448,9.4121,9.3974,9.3935,9.3935,9.3935,9.3935,9.3935,9.3935,9.3935,9.3935,9.3935,9.3935,9.3963,9.4599,9.645,9.6959,9.575,9.4928,9.4281,9.3635,4.8221,4.7815,4.7593,4.8542,5.0209,5.1979,5.3787,5.559,5.7583,5.8518,5.8707,5.8869,5.9126,5.94,5.9606,5.9695,5.9727,5.9834,5.9829,5.9855,5.9903,5.9905,5.9851,5.9819,6.0066,6.037,5.9971,6.0139,6.0268,6.0055,5.9847,5.9806,5.9944,5.9858,5.9809,5.9803,5.9903,5.9866,5.9965,5.9987,5.9914,5.9873,5.9708,5.981,5.9708,5.9697,5.9886,6.0833,6.1676,6.2074,6.2815,6.5033,6.767,6.9293,6.989,6.9998,7.0302,7.1142,7.3191,7.4671,7.6113,7.6834,7.763,7.7327,7.9376,7.9907,7.9983,8.078,8.6547,8.9241,9.0,9.0,9.0,9.0,9.0,8.9875,8.9735,8.9588,8.9432,8.9337,8.9212,8.8963,8.8771,8.8679,8.9434,9.0892,9.2388,9.3846,9.5341,9.6739,9.7193,9.7287,9.6354,9.5676,9.4895,9.4194,9.3974,9.3935,9.3935,9.3935,9.3935,9.3935,9.3935,9.3935,9.3935,9.3935,9.4048,9.4181,9.4528,9.6462,9.7814,9.6916,9.6254,9.5254,9.4515,4.6846,4.7061,4.7779,4.9034,5.0651,5.2344,5.4163,5.5987,5.7326,5.8093,5.8395,5.8553,5.8809,5.9149,5.9393,5.9493,5.9621,5.9722,5.9735,5.9707,5.9806,5.9864,5.9889,5.9833,5.9813,5.9947,5.9834,5.9796,5.9794,5.9905,6.0363,6.0703,6.0403,6.0136,6.108,6.0282,6.031,6.0755,6.0974,6.1229,6.1367,6.065,6.0402,6.1847,6.1941,6.2065,6.2297,6.3095,6.3441,6.3886,6.5958,6.8139,6.9467,6.9998,6.9998,7.0036,7.0757,7.2736,7.5316,7.6568,7.7934,7.8845,7.8541,7.782,7.9186,8.0097,8.0666,8.3739,8.7951,8.9696,9.0,9.0,9.0,8.9993,8.9931,8.9865,8.9807,8.9603,8.9488,8.9451,8.9335,8.907,8.8826,8.8819,8.9322,9.0817,9.235,9.3846,9.5341,9.6893,9.7415,9.7388,9.6741,9.6041,9.5163,9.4339,9.4121,9.4083,9.4083,9.4009,9.4009,9.3935,9.3935,9.3935,9.3899,9.4048,9.4121,9.4795,9.5993,9.7269,9.8554,9.8469,9.8278,9.717,9.6007,4.5475,4.6759,4.8421,5.0106,5.1706,5.3136,5.4892,5.6639,5.707,5.7551,5.7997,5.8271,5.8481,5.8755,5.9056,5.9284,5.944,5.9585,5.9643,5.9557,5.9672,5.9684,5.9658,5.9666,5.9752,5.979,5.9857,5.9876,5.9802,5.9776,6.0517,6.1224,6.0599,6.0721,6.1765,6.1083,6.1086,6.2376,6.2676,6.3545,6.4519,6.2215,6.2328,6.3677,6.4383,6.4322,6.4311,6.4883,6.5179,6.5569,6.8221,6.9733,6.9998,6.9998,6.9998,7.0605,7.2205,7.4481,7.6834,7.8389,7.9717,7.9641,7.9603,7.9831,7.9907,8.021,8.2563,8.9127,8.9962,9.0,9.0,9.0,9.0,8.9985,8.9931,8.9931,8.9922,8.9723,8.9594,8.9543,8.9469,8.9218,8.8826,8.8932,8.921,9.0743,9.2313,9.3846,9.5417,9.7171,9.809,9.753,9.6899,9.6123,9.5192,9.4516,9.4266,9.423,9.423,9.423,9.4157,9.4048,9.3974,9.3974,9.4048,9.4121,9.4266,9.5301,9.724,9.8627,9.9819,10.0194,10.0143,9.9053,9.7753,4.5403,4.7458,4.8113,5.0032,5.2485,5.3165,5.4421,5.5857,5.6445,5.6747,5.6949,5.7407,5.7829,5.8156,5.8498,5.8884,5.9192,5.9489,5.9534,5.9475,5.9551,5.959,5.957,5.9602,5.9652,5.971,5.9733,5.9794,5.971,5.9677,5.9971,6.0458,6.034,6.0741,6.2112,6.1969,6.3107,6.3912,6.4485,6.6079,6.7345,6.5708,6.4194,6.4701,6.4838,6.5072,6.5451,6.6316,6.6902,6.7543,6.8714,6.9998,6.9998,6.9998,6.9998,7.0492,7.3001,7.6037,7.8313,7.9869,7.9907,7.9907,7.9907,7.9907,7.9907,8.0514,8.2525,8.8254,9.0,9.0,9.0,9.0,9.0,8.9993,8.9947,8.9939,8.9884,8.9785,8.9663,8.9543,8.9598,8.9287,8.8886,8.8862,8.8832,9.0182,9.1825,9.3396,9.452,9.6575,9.8212,9.7585,9.7054,9.6239,9.545,9.4759,9.4552,9.4517,9.4446,9.4374,9.4339,9.4266,9.4121,9.4048,9.4121,9.4303,9.4374,9.4948,9.7942,10.0232,10.1242,10.1588,10.1219,10.0426,9.9601,4.613,4.7941,4.931,5.0649,5.1991,5.3307,5.4499,5.5294,5.5895,5.627,5.658,5.6905,5.7295,5.7658,5.7993,5.8387,5.8784,5.9089,5.9157,5.9209,5.9291,5.9372,5.9302,5.9402,5.9438,5.9506,5.9544,5.9522,5.9494,5.952,6.015,6.0444,6.0085,6.1102,6.2823,6.2881,6.3814,6.5678,6.6248,6.7424,6.9369,6.848,6.735,6.7312,6.7421,6.7376,6.7525,6.8377,6.8638,6.8828,6.9511,6.9885,6.9998,6.9998,6.9998,7.053,7.3115,7.6416,7.9192,7.9907,7.9907,7.9907,7.9907,7.9907,7.9907,8.0248,8.1842,8.5902,8.7799,9.0,9.0,8.9931,8.9977,8.9985,8.9855,8.9845,8.9834,8.9731,8.9507,8.9287,8.9309,8.9146,8.8796,8.8674,8.8645,8.9693,9.1264,9.2427,9.3437,9.5714,9.8178,9.772,9.7413,9.6559,9.5738,9.5132,9.4798,9.4728,9.4658,9.4552,9.4481,9.4339,9.4266,9.4266,9.441,9.4622,9.4908,9.5629,9.8998,10.1944,10.2298,10.2511,10.222,10.1997,10.161,4.6844,4.838,5.0516,5.1283,5.149,5.3357,5.4338,5.4626,5.5077,5.5754,5.6145,5.6445,5.6742,5.7181,5.7479,5.7935,5.8322,5.8672,5.8757,5.8807,5.8921,5.9042,5.9052,5.9163,5.921,5.9195,5.9175,5.9252,5.9345,5.9414,6.0,6.0889,6.0226,6.1039,6.2869,6.3642,6.4436,6.6686,6.7684,6.841,6.9695,6.9596,6.9445,6.9445,6.9369,6.9516,6.9738,6.989,6.9998,6.9998,6.9998,6.9955,6.989,6.9858,6.984,7.0351,7.2362,7.5544,7.9072,7.9863,7.9894,7.9907,7.9907,7.9907,7.9907,8.0097,8.0925,8.3391,8.5819,8.8657,8.9696,8.9931,8.9922,8.9913,8.9822,8.9708,8.9721,8.9598,8.9362,8.9159,8.9081,8.8944,8.8802,8.8645,8.9206,9.0437,9.1525,9.2352,9.3922,9.6123,9.7911,9.7882,9.7678,9.692,9.6137,9.5649,9.5102,9.5003,9.4798,9.4692,9.4658,9.4517,9.4517,9.4658,9.4798,9.4867,9.5695,9.6776,9.9476,10.2468,10.3097,10.3282,10.301,10.2653,10.2575,4.648,4.8296,5.0007,5.1109,5.1896,5.2845,5.3279,5.3396,5.3812,5.4392,5.4784,5.5407,5.5963,5.6524,5.7104,5.7544,5.7881,5.8235,5.8479,5.8498,5.861,5.8665,5.8781,5.8846,5.8858,5.8834,5.8821,5.9007,5.923,5.9402,5.9608,5.9765,5.9539,6.0752,6.2443,6.3559,6.5255,6.7213,6.857,6.9651,6.9911,6.9955,6.9955,6.9955,6.9955,6.9948,6.9948,6.9993,6.9998,6.9998,6.9998,6.9875,6.9691,6.9565,6.9468,6.9581,7.1126,7.463,7.8734,7.977,7.9799,7.9907,7.9907,7.9907,7.9901,8.0001,8.0342,8.1055,8.192,8.4405,8.9234,8.9931,8.9884,8.9837,8.9834,8.9748,8.967,8.9545,8.9294,8.9081,8.9,8.8923,8.8777,8.8686,8.9914,9.0999,9.1638,9.2688,9.493,9.6863,9.7638,9.7869,9.7733,9.7178,9.6723,9.6239,9.5523,9.5301,9.5003,9.4935,9.4834,9.4798,9.4762,9.5003,9.5003,9.5003,9.5508,9.7313,9.9803,10.2707,10.3837,10.3642,10.3445,10.3282,10.3139,4.6282,4.8422,4.9647,5.0205,5.0581,5.1686,5.2265,5.2425,5.3073,5.3697,5.4117,5.4732,5.5294,5.5766,5.6394,5.6874,5.7138,5.7589,5.7932,5.8162,5.8352,5.8411,5.8507,5.8507,5.8564,5.8648,5.8573,5.8796,5.8991,5.9097,5.9147,5.925,5.9327,6.028,6.1945,6.3664,6.5417,6.709,6.8931,6.984,6.9811,6.984,6.9867,6.9867,6.9811,6.9755,6.9802,6.9829,6.9829,6.9745,6.9667,6.9581,6.9466,6.941,6.9424,7.0213,7.2344,7.689,7.8496,7.9659,7.9723,7.9682,7.9751,7.9761,7.9799,7.9864,8.0213,8.0727,8.0955,8.2594,8.8968,8.9884,8.9817,8.9769,8.9672,8.9534,8.9485,8.9347,8.9157,8.901,8.8981,8.8871,8.8745,8.8645,8.9618,9.1151,9.1827,9.3399,9.5638,9.7005,9.7659,9.7869,9.7824,9.7604,9.7192,9.6614,9.5897,9.5523,9.5169,9.5003,9.4971,9.5003,9.5035,9.5035,9.5003,9.5035,9.5504,9.8032,10.0307,10.2755,10.4149,10.3958,10.3765,10.3722,10.3614,4.5988,4.8128,4.9131,4.9237,4.8982,5.0437,5.1088,5.1088,5.2202,5.2797,5.3338,5.4117,5.4679,5.5144,5.5836,5.6258,5.6573,5.6844,5.7179,5.7696,5.7899,5.8001,5.7865,5.7939,5.8042,5.823,5.8382,5.8555,5.8781,5.8858,5.8946,5.9028,5.9222,5.9888,6.1357,6.3211,6.523,6.6573,6.8645,6.954,6.9611,6.9705,6.98,6.9729,6.9655,6.9591,6.9553,6.9653,6.9679,6.9543,6.9393,6.9407,6.9407,6.9424,6.9402,7.0514,7.4636,7.8267,7.9323,7.9567,7.9567,7.9515,7.9609,7.966,7.9711,7.9758,8.0402,8.1078,8.0709,8.2576,8.7958,8.9369,8.9659,8.9723,8.9588,8.9413,8.9372,8.9159,8.9019,8.8901,8.8871,8.8846,8.8683,8.8645,8.9546,9.1119,9.2615,9.4221,9.571,9.7144,9.7615,9.7824,9.7779,9.7687,9.7228,9.6669,9.616,9.5836,9.533,9.4967,9.5003,9.5035,9.5035,9.5035,9.5035,9.5107,9.5143,9.749,10.0595,10.2617,10.4379,10.4226,10.4072,10.4072,10.3958,4.5298,4.6916,4.8314,4.8391,4.7864,4.9013,4.95,4.95,5.0539,5.1456,5.2139,5.3253,5.4027,5.4697,5.5364,5.5988,5.62,5.6368,5.6587,5.6837,5.7106,5.7179,5.6949,5.7176,5.7443,5.7731,5.8071,5.8254,5.8527,5.8675,5.8781,5.8884,5.8908,5.9178,6.0083,6.2764,6.4272,6.5306,6.7771,6.9241,6.9442,6.9587,6.9667,6.9573,6.9543,6.9528,6.949,6.952,6.9496,6.9215,6.924,6.9315,6.9402,6.9402,6.9402,7.0267,7.3012,7.6605,7.8777,7.9291,7.9235,7.9474,7.9491,7.9576,7.962,7.9614,7.978,8.0341,7.9795,8.2032,8.6123,8.875,8.9559,8.9721,8.956,8.941,8.9325,8.9092,8.8864,8.8796,8.8745,8.8679,8.8612,8.8799,8.9437,9.1569,9.2576,9.4557,9.6568,9.7484,9.769,9.7824,9.7733,9.7733,9.7228,9.6669,9.6276,9.5861,9.5264,9.5132,9.5132,9.5132,9.5102,9.5035,9.5035,9.5071,9.5324,9.7635,10.0812,10.2977,10.4198,10.4375,10.4221,10.4072,10.3873,4.2967,4.5641,4.6003,4.6223,4.6582,4.7519,4.8067,4.856,4.9604,5.0533,5.1223,5.2265,5.3219,5.4061,5.4714,5.5252,5.5595,5.5907,5.6045,5.6199,5.6531,5.6574,5.6531,5.6574,5.6941,5.7405,5.7589,5.7935,5.8322,5.8478,5.8592,5.8729,5.8729,5.8681,5.897,6.1992,6.381,6.4531,6.6937,6.8886,6.9236,6.9393,6.943,6.9354,6.9354,6.9354,6.9277,6.9336,6.9279,6.9142,6.9147,6.9245,6.9277,6.9381,6.9402,6.9553,7.238,7.5643,7.8396,7.8293,7.827,7.9031,7.9364,7.9366,7.9386,7.948,7.948,7.9598,7.9666,8.1293,8.4221,8.7572,8.9329,8.9572,8.947,8.9256,8.907,8.8886,8.8808,8.8712,8.8612,8.8545,8.8435,8.8577,9.0,9.1868,9.2726,9.4781,9.7127,9.7601,9.7919,9.7787,9.7733,9.7594,9.7178,9.6503,9.6018,9.5586,9.5132,9.5322,9.5322,9.5386,9.5264,9.5071,9.5071,9.5288,9.6118,9.7671,10.0848,10.3122,10.3838,10.4298,10.4072,10.388,10.3633,4.1271,4.423,4.3965,4.4465,4.5413,4.6223,4.6797,4.7549,4.8925,4.9854,5.0603,5.1588,5.2707,5.3639,5.4151,5.4677,5.5201,5.5519,5.5618,5.568,5.5895,5.5999,5.6009,5.6136,5.6481,5.6937,5.7176,5.7516,5.8038,5.8204,5.8389,5.8629,5.8564,5.8527,5.898,6.1781,6.3362,6.397,6.6533,6.8362,6.8844,6.9074,6.9123,6.9074,6.9011,6.9036,6.9109,6.9127,6.9058,6.8806,6.8844,6.896,6.9184,6.9359,6.9402,6.9794,7.2032,7.4935,7.7037,7.7087,7.7224,7.8323,7.8828,7.9177,7.914,7.9219,7.9263,7.9346,7.9571,8.0748,8.3104,8.5276,8.7297,8.8484,8.9108,8.9146,8.8897,8.8802,8.8749,8.8649,8.8507,8.8363,8.8288,8.8511,8.9553,9.1794,9.3026,9.4221,9.6344,9.7377,9.7963,9.7869,9.7733,9.7509,9.7165,9.637,9.5774,9.5395,9.5514,9.569,9.5727,9.5613,9.5373,9.5071,9.5071,9.5035,9.6082,9.7743,10.0848,10.3989,10.4382,10.4298,10.3994,10.3801,10.3633,4.0945,4.2923,4.3041,4.3464,4.429,4.5043,4.5751,4.6559,4.8081,4.9119,4.9935,5.1185,5.2491,5.3464,5.3904,5.4407,5.5063,5.5149,5.5166,5.5166,5.5131,5.5096,5.5198,5.5596,5.5931,5.6252,5.6814,5.7212,5.7479,5.7837,5.8241,5.8291,5.8389,5.8478,5.8996,6.1684,6.3141,6.358,6.618,6.781,6.8201,6.8762,6.9023,6.8677,6.841,6.8432,6.8833,6.8908,6.8677,6.8201,6.8234,6.8552,6.9074,6.93,6.9343,6.9472,7.1234,7.2946,7.4272,7.5397,7.6485,7.692,7.8119,7.9009,7.9028,7.895,7.895,7.9173,7.9404,8.0744,8.2689,8.3105,8.352,8.6539,8.8144,8.8869,8.8794,8.8702,8.8679,8.8612,8.8435,8.8213,8.8093,8.8138,8.9108,9.0972,9.325,9.4445,9.6158,9.7228,9.7814,9.7913,9.7779,9.7641,9.7509,9.6723,9.5982,9.5824,9.6224,9.6281,9.626,9.5956,9.5633,9.5246,9.5035,9.5035,9.5865,9.814,10.0884,10.3484,10.4382,10.4226,10.4072,10.3916,10.3678,3.9597,4.1255,4.135,4.2031,4.3068,4.3312,4.4142,4.5271,4.6582,4.799,4.9458,5.0527,5.1686,5.2897,5.3473,5.3995,5.4496,5.4834,5.4585,5.4164,5.4276,5.4441,5.4461,5.4993,5.5533,5.5977,5.6297,5.6603,5.7018,5.7368,5.7661,5.7731,5.7902,5.8001,5.8255,6.0173,6.2004,6.3024,6.4029,6.5647,6.7551,6.833,6.8393,6.8081,6.6842,6.6982,6.8287,6.8303,6.8208,6.81,6.8308,6.8498,6.8827,6.9061,6.9136,6.9261,6.9821,7.0468,7.1258,7.3477,7.5022,7.606,7.7745,7.8878,7.8923,7.885,7.8923,7.9279,7.9443,8.0008,8.1708,8.3407,8.5332,8.5616,8.6496,8.7612,8.8856,8.8802,8.8645,8.8543,8.8363,8.8133,8.8093,8.8174,8.8922,9.0561,9.2727,9.437,9.5708,9.7046,9.7591,9.7869,9.7779,9.7733,9.765,9.704,9.6239,9.6486,9.6914,9.6847,9.6723,9.643,9.5902,9.5518,9.5071,9.5071,9.5576,9.8032,10.0884,10.2544,10.4454,10.4339,10.4185,10.3994,10.3801,3.826,3.977,3.977,4.0519,4.1871,4.2177,4.3159,4.4552,4.5722,4.725,4.9013,4.999,5.1114,5.2238,5.2992,5.3507,5.3949,5.4198,5.4086,5.3625,5.3765,5.3881,5.3961,5.4407,5.4976,5.5399,5.5741,5.6161,5.6567,5.6937,5.7098,5.7176,5.7369,5.7553,5.7626,5.9195,6.0621,6.1974,6.2267,6.3513,6.5977,6.7266,6.756,6.7042,6.5499,6.4985,6.6161,6.6713,6.6971,6.7045,6.7844,6.8377,6.8436,6.8685,6.8874,6.8808,6.878,6.8939,6.9442,7.1507,7.33,7.4366,7.6602,7.796,7.8157,7.8569,7.9065,7.9343,7.9461,7.948,8.0159,8.386,8.4953,8.3731,8.4928,8.6624,8.7892,8.844,8.854,8.8473,8.8248,8.809,8.8053,8.8137,8.8661,8.9853,9.2055,9.3735,9.4999,9.6636,9.7968,9.7824,9.7779,9.7779,9.7733,9.7376,9.6988,9.7192,9.7327,9.7327,9.7201,9.6908,9.6323,9.585,9.5343,9.5355,9.5829,9.7851,10.1101,10.3374,10.4202,10.4415,10.4339,10.4149,10.3958,3.709,3.8385,3.8208,3.9279,4.0832,4.1538,4.2832,4.4378,4.5751,4.6929,4.8376,4.9667,5.0737,5.1719,5.2398,5.3093,5.3497,5.3422,5.3328,5.3295,5.3354,5.3414,5.3414,5.3847,5.413,5.4297,5.5249,5.5872,5.6151,5.6438,5.6574,5.6658,5.6941,5.7098,5.7173,5.8861,5.996,6.0436,6.1386,6.2299,6.2847,6.5151,6.6078,6.5315,6.4392,6.3541,6.2776,6.4162,6.5001,6.5151,6.6525,6.7596,6.7523,6.8229,6.8559,6.8504,6.8693,6.8677,6.8863,7.0441,7.1581,7.2198,7.4591,7.6509,7.6984,7.7876,7.8825,7.9203,7.9404,7.948,7.9518,8.0216,8.0796,8.1634,8.3836,8.5554,8.661,8.768,8.8362,8.8172,8.809,8.8049,8.8053,8.8135,8.825,8.9071,9.116,9.3325,9.3881,9.6003,9.767,9.7832,9.7779,9.7779,9.7779,9.7779,9.7733,9.7687,9.7687,9.7641,9.7524,9.74,9.6741,9.6334,9.5909,9.5532,9.5975,9.839,10.157,10.3628,10.3989,10.4529,10.4379,10.4226,10.4,3.5868,3.7113,3.7625,3.8609,3.9795,4.0423,4.147,4.2886,4.4321,4.5803,4.727,4.8787,4.9895,5.0848,5.1719,5.2209,5.221,5.221,5.2242,5.2273,5.2621,5.2869,5.2992,5.3414,5.3765,5.4074,5.45,5.5061,5.5631,5.6024,5.6161,5.607,5.6358,5.6453,5.6646,5.7488,5.8593,5.9401,5.9375,6.0363,6.2005,6.1421,6.1534,6.2851,6.2005,6.1562,6.2443,6.2911,6.3198,6.3275,6.3841,6.4174,6.4311,6.6382,6.7997,6.834,6.8308,6.8373,6.8775,7.0272,7.1225,7.146,7.3394,7.5284,7.6421,7.6122,7.7119,7.8767,7.9422,7.948,7.9461,7.9343,7.9865,8.133,8.2262,8.3733,8.6036,8.6667,8.7279,8.7952,8.8096,8.8049,8.8012,8.8093,8.8174,8.8288,9.0227,9.2242,9.3207,9.5145,9.6628,9.7527,9.7705,9.7779,9.7824,9.7779,9.7733,9.7733,9.7733,9.7733,9.7678,9.761,9.7298,9.6961,9.6501,9.6114,9.7031,9.932,10.1606,10.3953,10.4567,10.4567,10.4454,10.4303,10.4226,3.5032,3.6413,3.7364,3.8242,3.9032,3.9868,4.0954,4.227,4.3849,4.527,4.6656,4.8067,4.9174,4.9848,5.0469,5.0871,5.1,5.1074,5.1214,5.1385,5.1916,5.224,5.2398,5.2931,5.3321,5.3581,5.4005,5.4589,5.5319,5.5569,5.5583,5.5583,5.5754,5.5917,5.6009,5.6402,5.7246,5.8282,5.764,5.8272,6.0141,5.8793,5.8426,6.0007,5.9249,5.9365,6.0425,6.1156,6.1559,6.1483,6.2151,6.1893,6.0814,6.2543,6.4831,6.7265,6.7266,6.7477,6.8559,6.9527,7.0183,7.0507,7.1983,7.3487,7.4396,7.4485,7.5296,7.7848,7.9027,7.9404,7.9284,7.9102,7.9411,8.034,8.0993,8.2267,8.4033,8.5442,8.6311,8.7095,8.78,8.7975,8.809,8.813,8.8174,8.84,8.9854,9.1309,9.2499,9.4323,9.5957,9.6791,9.7371,9.7787,9.7876,9.7832,9.7779,9.7779,9.7779,9.7779,9.7779,9.7715,9.7668,9.7302,9.6941,9.6484,9.6128,9.8412,10.0269,10.2581,10.4567,10.4603,10.4603,10.4529,10.4415,3.458,3.5737,3.7122,3.7994,3.8609,3.9842,4.1118,4.2363,4.4142,4.5386,4.6311,4.7707,4.8588,4.8966,4.892,4.92,4.9951,5.0269,5.0495,5.0705,5.135,5.1752,5.1883,5.2431,5.2683,5.2897,5.3663,5.4427,5.5063,5.5063,5.501,5.501,5.5268,5.5434,5.5596,5.5931,5.6377,5.6789,5.6473,5.6724,5.7437,5.7661,5.7173,5.666,5.673,5.7081,5.7307,5.8892,5.9847,5.9697,6.108,6.0596,5.7672,5.7379,6.0342,6.5601,6.58,6.6306,6.8207,6.8442,6.8516,6.8975,7.0358,7.1355,7.1984,7.2691,7.4333,7.6831,7.8534,7.915,7.8714,7.8663,7.8846,7.9003,8.0062,8.0921,8.1364,8.3777,8.5085,8.5679,8.6572,8.7421,8.7938,8.8174,8.8251,8.8586,8.985,9.1008,9.1344,9.3431,9.5068,9.5762,9.6531,9.7653,9.7941,9.7771,9.775,9.7779,9.7779,9.7779,9.7779,9.7779,9.7779,9.7604,9.7215,9.676,9.6391,9.7271,9.9093,10.1931,10.4134,10.4603,10.4603,10.4603,10.4529,3.3104,3.316,3.5035,3.6887,3.8585,3.9672,4.0667,4.1737,4.3787,4.4841,4.5471,4.7048,4.7894,4.8114,4.8314,4.8636,4.9106,4.9301,4.9561,4.9822,5.0527,5.0977,5.1085,5.1785,5.2304,5.2745,5.3321,5.3789,5.4074,5.4352,5.4516,5.4693,5.4887,5.4958,5.5063,5.5533,5.5789,5.5931,5.5988,5.6216,5.6488,5.6481,5.6394,5.6234,5.6306,5.6394,5.6409,5.7132,5.7473,5.7473,5.8097,5.803,5.7198,5.6963,5.9738,6.5581,6.6616,6.7073,6.7925,6.8103,6.8238,6.8504,6.8991,6.9919,7.0927,7.0545,7.2086,7.5898,7.8049,7.8146,7.7408,7.8023,7.8605,7.8622,7.899,7.9853,8.0898,8.1652,8.3186,8.5122,8.5159,8.5419,8.7498,8.8323,8.8474,8.8325,8.8985,8.9718,9.0932,9.1864,9.347,9.5528,9.5003,9.5225,9.6189,9.7101,9.775,9.7779,9.7779,9.7779,9.7779,9.7779,9.7779,9.7733,9.7265,9.6904,9.6614,9.6794,9.8,10.2504,10.4603,10.4603,10.4603,10.4603,10.4603,3.2151,3.2455,3.4062,3.6136,3.8385,3.9672,4.0641,4.1711,4.3698,4.4696,4.5214,4.6752,4.751,4.748,4.7749,4.7925,4.8159,4.8526,4.8752,4.9013,4.974,5.0316,5.0635,5.1185,5.1752,5.2304,5.2869,5.3235,5.338,5.3697,5.3961,5.4142,5.4254,5.4365,5.453,5.4923,5.5284,5.5484,5.5533,5.5414,5.5294,5.5414,5.5498,5.5477,5.5789,5.5931,5.5906,5.6145,5.6278,5.619,5.6481,5.6517,5.6377,5.6596,5.8578,6.2141,6.295,6.4413,6.7485,6.7891,6.8066,6.8275,6.8461,6.905,7.0068,6.9236,7.0056,7.3561,7.4361,7.5121,7.6091,7.7609,7.8585,7.849,7.8457,7.8863,7.994,8.0542,8.1512,8.3336,8.3857,8.4637,8.59,8.7428,8.84,8.8505,8.867,8.9164,8.9964,9.0864,9.2036,9.3319,9.2676,9.2832,9.5339,9.6878,9.7638,9.7779,9.7779,9.7779,9.7779,9.7824,9.7832,9.7779,9.7364,9.7062,9.6936,9.7054,9.7476,10.087,10.3051,10.4603,10.4603,10.4529,10.4168,3.1759,3.3116,3.3841,3.5636,3.8006,3.9647,4.1023,4.2177,4.3787,4.4783,4.5386,4.667,4.7108,4.7005,4.7124,4.7227,4.7239,4.7803,4.8191,4.833,4.8969,4.9604,5.0276,5.0565,5.0981,5.1619,5.224,5.2587,5.2869,5.3174,5.3388,5.3448,5.3566,5.3765,5.4051,5.4254,5.4658,5.5233,5.4887,5.4365,5.3938,5.4421,5.4585,5.4455,5.5131,5.5434,5.5334,5.5706,5.5777,5.5587,5.5871,5.5813,5.5399,5.608,5.6802,5.7303,5.703,5.9961,6.6475,6.756,6.7521,6.7588,6.7853,6.8261,6.8358,6.7815,6.8281,7.015,6.9375,7.0785,7.4718,7.6974,7.7901,7.7797,7.7836,7.8096,7.8574,7.9655,8.0585,8.0844,8.2553,8.4111,8.4522,8.6645,8.8251,8.8462,8.8721,8.901,8.9207,9.0087,9.1046,9.0762,8.9921,9.1046,9.4483,9.6734,9.7638,9.7779,9.7779,9.7779,9.7779,9.7869,9.7919,9.7779,9.7462,9.7364,9.7376,9.715,9.7366,9.9975,10.2002,10.3879,10.406,10.3802,10.3331,3.1534,3.2232,3.4084,3.5508,3.6781,3.9181,4.1118,4.2639,4.3965,4.4956,4.5698,4.6618,4.6945,4.6812,4.693,4.7042,4.6864,4.7239,4.74,4.74,4.8206,4.8743,4.8938,4.9573,5.0252,5.0948,5.122,5.1719,5.2401,5.2716,5.2931,5.3053,5.3414,5.3683,5.3708,5.3904,5.4017,5.4186,5.3776,5.3541,5.3683,5.3938,5.413,5.44,5.4604,5.4712,5.4834,5.5147,5.5299,5.5147,5.5182,5.5147,5.5198,5.5449,5.6024,5.6844,5.5609,5.8152,6.5663,6.554,6.4615,6.4066,6.5345,6.6357,6.6257,6.2655,6.2305,6.7449,6.8185,6.8959,7.1654,7.4094,7.5762,7.6059,7.6133,7.6726,7.7875,7.8394,7.9285,8.0655,8.0097,8.1619,8.5633,8.7644,8.7949,8.8097,8.886,8.9121,8.8906,8.9188,8.9526,8.9441,8.9194,9.0345,9.325,9.599,9.7564,9.7779,9.7742,9.7779,9.7779,9.7779,9.7824,9.7779,9.7687,9.7687,9.765,9.704,9.7283,9.8648,10.0053,10.0737,10.0808,10.1201,10.1638,3.1171,3.2478,3.4234,3.5531,3.6701,3.8809,4.0954,4.3032,4.4406,4.53,4.6007,4.6729,4.6893,4.6729,4.6789,4.6789,4.6618,4.6834,4.6945,4.6893,4.748,4.7925,4.8206,4.8787,4.9427,5.0078,5.022,5.0673,5.125,5.1719,5.2014,5.2143,5.2683,5.3087,5.3235,5.3439,5.3649,5.3615,5.2869,5.1838,5.0527,5.2676,5.2758,5.0603,5.2126,5.2921,5.2852,5.3001,5.3085,5.2937,5.344,5.3525,5.319,5.4613,5.5547,5.5574,5.4732,5.6137,6.0526,6.1316,6.1512,6.1273,6.1719,6.1932,6.1932,5.8972,5.9318,6.4457,6.686,6.8555,7.0238,7.1748,7.3344,7.4908,7.5317,7.5835,7.6686,7.7464,7.8427,7.9275,7.8646,7.9391,8.3146,8.6235,8.7355,8.434,8.7228,8.9108,8.9,8.8942,8.8877,8.8894,8.8877,8.9914,9.2242,9.5469,9.7155,9.6791,9.7304,9.7742,9.7779,9.7779,9.7779,9.7779,9.7779,9.7779,9.7779,9.704,9.6505,9.7246,9.7887,9.8715,9.8389,9.9256,9.9797,3.1171,3.3284,3.447,3.5741,3.7318,3.8908,4.0928,4.3214,4.4899,4.5948,4.6559,4.6864,4.6864,4.67,4.6647,4.6647,4.6647,4.6618,4.6618,4.6618,4.6893,4.7219,4.7639,4.8081,4.856,4.9162,4.9279,4.9531,4.9998,5.0597,5.0944,5.1081,5.1752,5.2273,5.2461,5.2964,5.3046,5.2871,5.193,5.008,4.7333,5.0388,4.991,4.594,4.9171,5.0709,4.9682,5.0173,5.0184,4.9497,5.0721,5.0393,4.8392,5.2696,5.5026,5.3983,5.3732,5.3752,5.3881,5.6353,5.8273,5.8897,5.8134,5.7115,5.6143,5.575,5.7172,6.1094,6.5257,6.8093,6.8901,6.9237,7.0651,7.3534,7.4461,7.4832,7.5057,7.6462,7.7347,7.7085,7.7495,7.8128,7.9991,8.4154,8.5308,8.1811,8.4956,8.8564,8.8756,8.8652,8.8465,8.8696,8.8716,8.9549,9.1607,9.4869,9.6085,9.5273,9.6227,9.7073,9.7222,9.7519,9.7779,9.7779,9.7779,9.7779,9.7779,9.7091,9.6174,9.4697,9.6305,9.7708,9.6406,9.72,9.8069,3.2079,3.4192,3.513,3.6631,3.8685,4.023,4.1684,4.3032,4.5014,0.0,0.0,4.7078,4.6864,4.7108,4.6541,4.632,4.632,4.6565,4.6535,4.634,4.6618,4.6782,4.6834,4.7138,4.7639,4.8391,4.8236,4.8773,4.9926,4.9895,4.9967,5.0323,5.1049,5.1487,5.162,5.2273,5.1804,5.0296,4.9672,4.9483,4.9722,4.5411,4.3383,4.3947,4.8475,4.8778,4.4251,4.7513,4.7721,4.4121,4.5671,4.3318,3.6447,4.733,5.4096,5.3733,5.1008,5.0454,5.3032,5.329,5.4328,5.6743,5.6952,5.5419,5.1766,5.0895,5.2867,5.8601,6.3756,6.5999,6.4256,6.5171,6.7434,7.1318,7.1467,7.1799,7.3055,7.4677,7.5193,7.4158,7.5927,7.8747,8.1586,8.3372,8.378,8.3855,8.4972,8.6864,8.8043,8.7572,8.7241,8.8267,8.8574,8.929,9.1232,9.3199,9.3794,9.3514,9.4251,9.5217,9.5885,9.6925,9.7668,9.7556,9.7742,9.7668,9.7742,9.7381,9.6704,9.441,9.4473,9.4759,9.4434,9.4652,9.5227,3.2936,3.513,3.6321,3.7833,0.0,4.1092,4.295,4.4698,4.614,4.739,4.8283,4.7688,4.74,4.7239,4.6693,4.6311,4.6065,4.6174,4.6145,4.6061,4.634,4.6423,4.6423,4.67,4.7108,4.759,4.754,4.7828,4.859,4.8969,4.8966,4.8669,4.9544,4.9075,4.7395,4.9235,4.9537,4.8191,4.8264,4.7968,4.7329,4.5443,4.4114,4.3585,4.7289,0.0,0.0,0.0,0.0,0.0,0.0,0.0,0.0,4.5955,5.2369,4.9104,4.5408,4.5207,4.9001,4.4689,4.5006,5.2403,4.9743,4.6729,4.4558,4.5627,4.9362,5.6293,6.0824,6.2155,5.9369,6.142,6.4717,6.8773,6.9065,6.9097,7.0051,7.2307,7.3528,7.3013,7.4155,7.6488,8.0097,8.1957,8.27,8.1623,8.3187,8.5154,8.6416,8.6304,8.6267,8.7086,8.7835,8.8772,8.9851,9.1558,9.293,9.1847,9.1434,9.2023,9.3805,9.6145,9.7185,9.5662,9.5737,9.5885,9.5477,9.5328,9.527,9.4906,9.4303,9.3583,9.2217,9.2404,9.29,3.3567,3.5741,3.7428,3.8933,4.0423,4.2151,4.4262,4.65,4.734,4.7973,4.8407,4.8283,4.7894,4.745,4.697,4.6486,4.5919,4.5948,4.5864,4.5809,4.609,4.6145,4.6228,4.6506,4.67,4.6893,4.6975,4.7056,4.7159,4.8081,4.8173,4.7385,4.8185,4.7168,4.4431,0.0,0.0,0.0,4.722,4.6883,4.5118,4.7226,4.664,4.2996,4.6072,0.0,4.6171,4.678,4.6728,4.5503,3.9106,0.0,3.5967,0.0,0.0,0.0,0.0,0.0,0.0,0.0,0.0,0.0,4.0938,3.8361,4.0453,4.2472,4.6053,5.1773,5.6577,5.7349,5.2608,5.6531,6.1197,6.4972,6.5411,6.5622,6.6434,6.9207,7.1426,7.1723,7.235,7.405,7.7608,8.0356,8.1139,7.9321,8.1031,8.3145,8.4257,8.4525,8.5047,8.5898,8.6833,8.7654,8.8174,9.0286,9.1322,9.036,8.887,8.9423,9.2134,9.5031,9.5662,9.4028,9.3731,9.3805,9.2283,9.1986,9.2528,9.4535,9.439,9.3228,9.0793,9.0776,9.1153,3.4105,3.5741,3.7451,3.9401,4.1538,4.3965,4.5527,4.6582,4.7973,4.8621,4.8773,4.8514,4.833,4.8175,4.7525,4.681,4.6223,4.5948,4.5838,4.57,4.5727,4.5838,4.5977,4.6228,4.634,4.634,4.6812,4.7086,4.7086,4.751,4.7688,4.7586,4.8375,4.8174,4.7104,4.6326,4.4861,4.2704,4.6043,4.7682,4.7365,4.9119,4.7022,4.1237,4.5431,4.5629,4.0909,4.419,4.4508,4.0967,4.3914,4.6557,4.7974,4.6319,3.5783,0.0,2.0735,0.0,0.0,0.0,0.0,0.0,0.0,0.0,0.0,4.5304,4.2756,4.1266,5.0088,5.1688,4.1762,4.8947,5.5065,5.6939,5.7942,5.9734,6.2778,6.4831,6.656,6.826,7.095,7.4013,7.7386,7.8239,7.9206,7.9727,8.0362,8.0694,8.1391,8.1471,8.259,8.5744,8.5678,8.6164,8.7536,8.8424,8.8755,8.8536,8.8164,8.8941,9.1132,9.2691,9.3731,9.3954,9.336,9.2097,8.9164,8.8755,8.9411,9.148,9.2992,9.3073,9.0838,8.9979,9.0078,3.5275,3.6758,3.8735,4.0494,4.2151,4.4493,4.6252,4.7628,4.8636,4.9594,5.0276,4.9998,4.9718,4.9406,4.8841,4.8097,4.73,4.6864,4.6345,4.6065,4.6007,4.5977,4.5864,4.5977,4.6145,4.6257,4.6618,4.7027,4.743,4.743,4.7386,4.7273,4.7318,4.5355,4.1737,4.3988,4.4993,4.4559,4.6249,4.7303,4.7719,4.8499,4.7512,4.4584,4.6834,4.6879,4.4184,4.6245,4.648,4.4696,4.7323,4.933,5.0276,4.8816,4.0555,0.0,0.0,0.0,0.0,0.0,0.0,0.0,0.0,0.0,0.0,0.0,3.8847,2.3687,3.6035,4.2231,3.5806,4.3477,4.8351,4.6987,4.7382,5.0406,5.7018,5.7834,5.8899,6.1416,6.4478,6.925,7.6664,7.7864,7.7943,7.7688,7.6281,7.4975,7.4519,7.7346,7.9987,8.1659,8.3819,8.5494,8.5266,8.6861,8.7752,8.6935,8.7418,8.8347,8.9349,8.9906,9.0352,9.076,9.0538,8.9683,8.8384,8.8012,8.876,9.0453,9.0619,8.9581,8.8357,8.8057,8.7866,3.6425,3.7511,3.7882,3.9004,4.0738,4.2677,4.5044,4.7424,4.8195,4.9104,5.0213,5.0312,4.9205,4.7039,4.5747,4.5276,4.5458,4.512,4.5192,4.5775,4.5887,4.5788,4.5623,4.5915,4.6228,4.6447,4.6131,4.6611,4.7973,4.6782,4.5782,4.498,4.4299,4.1311,3.6441,4.07,4.4014,4.6095,4.6477,4.6953,4.745,4.7669,4.7669,4.751,4.7858,4.7864,4.7343,4.7624,4.7671,4.7334,4.8153,4.8408,4.7989,4.7811,0.0,0.0,0.0,0.0,0.0,0.0,0.0,0.0,0.0,3.3767,4.3915,0.0,2.9572,0.0,2.6661,3.7585,3.6245,3.989,0.0,0.0,3.7578,4.044,4.8525,4.972,5.0912,5.3396,5.6886,6.2792,7.2286,7.5418,7.602,7.3948,7.0904,6.8924,6.9328,7.4043,7.7648,7.8131,8.0956,8.2852,8.17,8.3856,8.5489,8.5376,8.6155,8.6898,8.6898,8.7492,8.8012,8.8012,8.7752,8.7641,8.8012,8.8012,8.8766,9.0056,8.8474,8.6218,8.5254,8.5344,8.5159,3.778,3.753,3.2327,3.2264,3.5648,3.7187,4.0384,4.4629,4.5425,4.5979,4.6454,4.7641,4.4449,3.7887,3.4232,0.0,3.7519,3.8145,4.0563,4.4333,4.477,4.5005,4.4986,4.6028,4.6782,4.7099,4.4832,4.5495,4.8389,4.4853,4.1684,3.9193,3.8249,3.6802,3.4996,3.7112,4.0362,4.4395,4.6221,4.723,4.7269,4.7269,4.7269,4.7269,4.754,4.7126,4.598,4.5889,4.5392,4.4371,4.5034,4.4161,4.1389,0.0,0.0,0.0,0.0,0.0,0.0,0.0,0.0,0.0,0.0,0.0,0.0,0.0,0.0,0.8932,2.9468,0.0,4.6179,3.8863,0.0,0.0,0.0,3.0775,3.6265,4.0605,4.3654,4.48,0.0,0.0,6.1083,6.859,7.232,6.9208,6.5267,6.4721,7.0166,7.3365,7.5668,7.6185,7.6665,7.6628,7.6591,7.7972,8.0471,8.3817,8.4113,8.363,8.3779,8.5784,8.7827,8.7827,8.675,8.6155,8.7752,8.7567,8.8124,8.819,8.7316,8.5557,8.2416,8.1848,8.1763,3.1677,2.9739,2.782,2.858,3.1061,3.232,3.5742,4.0505,4.2068,4.3362,4.4636,4.5683,4.5876,4.4773,3.5611,0.0,0.0,0.0,3.4806,3.9151,3.9534,4.1265,4.4277,4.4879,4.5315,4.5626,4.4772,4.5437,4.7502,4.552,3.8972,2.8301,0.0,3.1051,2.7171,3.3579,3.8149,4.0489,4.5105,4.743,4.7239,4.7189,4.7138,4.7108,4.668,4.6204,4.5662,4.5178,4.3276,3.9901,4.0996,3.5511,0.0,0.0,0.0,0.0,0.0,0.0,0.0,0.0,0.0,0.0,0.0,3.3002,3.0513,0.0,0.0,0.0,2.0046,2.9262,3.3835,3.3283,0.0,0.0,0.0,0.0,0.0,0.0,0.0,3.6211,4.1705,4.943,6.0438,6.3993,6.3919,6.0002,6.0825,6.2314,6.3478,0.0,7.3263,7.3025,7.4797,7.591,7.5324,7.4872,7.5994,8.0175,8.051,8.0584,8.1551,8.3,8.4224,8.4856,8.4596,8.4336,8.5004,8.2368,8.0994,8.4336,8.273,8.0537,7.9804,7.9582,7.9755,2.401,0.0,0.0,0.0,0.0,2.6434,2.9665,3.4479,3.6699,3.8538,4.0009,3.9229,0.0,0.0,0.0,0.0,0.0,0.0,3.2085,3.6993,3.7347,3.9467,4.3009,4.3546,4.3907,4.4286,4.3303,4.318,4.3481,4.1476,3.2162,1.6523,0.0,0.0,0.0,0.0,3.6223,3.7234,4.3898,4.735,4.7108,4.7138,4.7138,4.7138,4.6091,4.5195,4.4443,4.2419,4.0071,3.7714,3.3212,0.0,0.0,0.0,0.0,0.0,0.0,0.0,0.0,0.0,0.0,0.0,0.0,0.0,0.0,0.0,0.0,0.0,0.0,0.0,2.0242,2.4142,2.5303,0.0,0.0,0.0,0.0,0.0,0.0,0.0,0.0,0.0,6.208,6.0179,5.7028,0.0,0.0,6.1394,6.0317,6.588,6.9741,6.847,7.0011,0.0,7.0667,6.9348,6.9862,7.4137,7.604,7.6375,7.4816,7.6831,7.8579,7.8059,7.9285,7.9694,7.7837,7.3158,7.2167,7.7849,7.5035,7.1501,7.288,7.4383,7.5081,0.0,0.0,0.0,0.0,1.8887,0.0,0.0,0.0,2.8899,3.0511,0.0,2.6237,0.0,0.0,0.0,0.0,2.6833,2.9056,0.0,0.0,3.9949,4.0709,4.0833,4.2042,4.2917,4.315,3.9705,3.7361,3.5915,3.0298,1.9885,0.0,0.0,0.0,0.0,0.0,3.444,3.4475,4.2801,4.7108,4.6864,4.7108,4.7269,4.718,4.5953,4.4098,4.1566,3.6863,3.5693,3.8875,2.0519,0.0,0.0,0.0,0.0,0.0,0.0,0.0,0.0,0.0,0.0,0.0,0.0,0.0,0.0,0.0,0.0,0.0,0.0,0.0,0.0,1.0902,0.0,0.0,0.0,0.0,0.0,0.0,0.0,0.0,0.0,4.431,6.4066,5.6583,5.2846,6.3057,0.0,0.0,0.0,0.0,6.4853,6.249,6.0696,5.985,5.9802,5.9701,6.1184,6.5768,0.0,0.0,6.1162,6.652,7.0873,6.6795,7.0368,7.1598,6.5255,5.9724,5.9779,6.9762,6.457,5.8765,6.0252,6.3919,6.6304,0.0,0.0,0.0,0.0,0.0,0.0,0.0,0.0,0.0,2.1648,1.1003,0.8968,0.0,0.0,0.0,0.0,0.0,0.0,0.0,0.0,3.1229,3.2365,3.0859,3.4357,3.4628,3.2187,3.196,2.6231,0.0,0.0,0.0,0.0,0.0,0.0,0.0,0.0,3.1198,3.0045,3.9872,4.5732,4.667,4.6945,4.68,4.5983,4.5534,4.3649,4.0277,3.7564,3.4817,0.0,0.0,0.0,0.0,0.0,0.0,0.0,0.0,0.0,0.0,0.0,0.0,0.0,0.0,0.0,0.0,0.0,0.0,0.0,0.0,0.0,0.0,0.0,1.2616,0.0,0.0,0.0,0.0,0.0,0.0,0.0,0.0,0.0,4.4252,4.6024,4.7918,5.2264,5.5498,5.8646,6.1693,0.0,0.0,0.0,0.0,0.0,0.0,0.0,5.9069,5.933,6.1992,6.179,5.5147,5.9153,6.3189,6.2752,0.0,0.0,5.0147,4.7757,4.9704,5.5368,5.4603,5.2344,5.0586,5.2881,5.4746,0.0,0.0,0.0,0.0,0.0,0.0,0.0,0.0,0.0,1.1364,0.0,0.0,0.0,0.0,0.0,0.0,0.0,0.0,0.0,0.0,0.0,0.0,2.6416,2.9581,0.0,0.0,0.0,0.0,0.0,0.0,0.0,0.0,0.0,0.0,0.0,0.0,2.8732,2.7417,3.7889,4.4532,4.6228,4.6011,4.5606,4.5014,4.4046,4.1699,3.7546,0.0,0.0,0.0,0.0,0.0,0.0,0.0,0.0,0.0,0.0,0.0,0.0,0.0,0.0,0.0,0.0,0.0,0.0,0.0,0.0,0.0,0.0,0.0,0.0,0.0,1.3416,0.0,0.0,0.0,0.0,0.0,0.0,0.0,0.0,0.0,0.0,3.5214,4.1239,4.5357,5.0506,5.5618,6.055,6.1168,6.2264,0.0,0.0,0.0,0.0,0.0,0.0,0.0,0.0,0.0,0.0,0.0,0.0,0.0,5.4058,5.122,3.5465,3.6542,3.9937,4.0101,0.0,0.0,0.0,0.0,0.0,0.0,0.0,0.0,0.0,0.0,0.0,0.0,0.0,0.0,0.0,0.0,0.0,0.0,0.0,0.0,0.0,0.0,0.0,0.0,0.0,0.0,0.0,0.0,0.0,0.0,0.0,0.0,0.0,0.0,0.0,0.0,0.0,0.0,0.0,0.0,0.0,2.7038,2.6518,3.7092,4.3617,4.544,4.4203,4.3703,4.4098,4.1624,3.8093,3.3452,0.0,0.0,0.0,0.0,0.0,0.0,0.0,0.0,0.0,0.0,0.0,0.0,0.0,0.0,0.0,0.0,0.0,0.0,0.0,0.0,0.0,0.0,0.0,0.0,0.0,0.0,1.3138,1.6876,1.8513,0.0,0.0,0.0,0.0,0.0,0.0,0.0,0.0,0.0,4.3539,4.8547,5.3497,6.0086,5.9812,5.9455,6.1104,6.0039,5.8958,5.8819,5.877,5.7654,0.0,0.0,0.0,0.0,0.0,0.0,0.0,0.0,0.0,0.0,0.0,0.0,0.0,0.0,0.0,0.0,0.0,0.0,0.0,0.0,0.0,0.0,0.0,0.0,0.0,0.0,0.0,0.0,0.0,0.0,0.0,0.0,0.0,0.0,0.0,0.0,0.0,0.0,0.0,0.0,0.0,0.0,0.0,0.0,0.0,0.0,0.0,0.0,0.0,0.0,0.0,0.0,0.0,0.0,2.3616,2.4394,3.4997,4.1261,4.2912,4.2632,4.218,4.1576,3.9495,3.5873,3.0604,0.0,0.0,0.0,0.0,0.0,0.0,0.0,0.0,0.0,0.0,0.0,0.0,0.0,0.0,0.0,0.0,0.0,0.0,0.0,0.0,0.0,0.0,0.0,0.0,0.0,0.0,0.0,1.7019,1.5814,1.8423,0.0,0.0,0.0,0.0,0.0,0.0,0.0,0.0,0.0,0.0,5.1149,5.6368,5.7128,5.8022,6.0557,5.9705,5.877,5.8833,5.7579,5.5173,5.108,0.0,0.0,0.0,0.0,0.0,0.0,0.0,0.0,0.0,0.0,0.0,0.0,0.0,0.0,0.0,0.0,0.0,0.0,0.0,0.0,0.0,0.0,0.0,0.0,0.0,0.0,0.0,0.0,0.0,0.0,0.0,0.0,0.0,0.0,0.0,0.0,0.0,0.0,0.0,0.0,0.0,0.0,0.0,0.0,0.0,0.0,0.0,0.0,0.0,0.0,0.0,0.0,0.0,2.213,2.3859,3.3491,3.9522,4.138,4.0942,4.0428,4.0003,3.7732,3.3333,0.0,0.0,0.0,0.0,0.0,0.0,0.0,0.0,0.0,0.0,0.0,0.0,0.0,0.0,0.0,0.0,0.0,0.0,0.0,0.0,0.0,0.0,0.0,0.0,0.0,0.0,0.0,0.0,1.7972,1.8411,1.9015,0.0,0.0,0.0,0.0,0.0,0.0,0.0,0.0,0.0,0.0,4.649,5.1866,5.3603,0.0,0.0,5.5344,5.2964,5.8037,5.9759,5.7045,4.6876,4.4086,0.0,0.0,0.0,0.0,0.0,0.0,0.0,0.0,0.0,0.0,0.0,0.0,0.0,0.0,0.0,0.0,0.0,0.0,0.0,0.0,0.0,0.0,0.0,0.0,0.0,0.0,0.0,0.0,0.0,0.0,0.0,0.0,0.0,0.0,0.0,0.0,0.0,0.0,0.0,0.0,0.0,0.0,0.0,0.0,0.0,0.0,0.0,0.0,0.0,0.0,0.0,0.0,2.2131,2.3988,3.2472,3.8136,4.036,3.9151,3.861,3.8988,3.6152,3.0751,0.0,0.0,0.0,0.0,0.0,0.0,0.0,0.0,0.0,0.0,0.0,0.0,0.0,0.0,0.0,0.0,0.0,0.0,0.0,0.0,0.0,0.0,0.0,0.0,0.0,0.0,0.0,0.0,0.0,0.0,0.0,0.0,0.0,0.0,0.0,0.0,0.0,0.0,0.0,0.0,0.0,4.0874,4.7385,4.9603,5.2809,0.0,4.7949,4.3268,5.5767,6.3243,6.1534,4.3248,0.0,0.0,0.0,0.0,0.0,0.0,0.0,0.0,0.0,0.0,0.0,0.0,0.0,0.0,0.0,0.0,0.0,0.0,0.0,0.0,0.0,0.0,0.0,0.0,0.0,0.0,0.0,0.0,0.0,0.0,0.0,0.0,0.0,0.0,0.0,0.0,0.0,0.0,0.0,0.0,0.0,0.0,0.0,0.0,0.0,0.0,0.0,0.0,0.0,0.0,0.0,0.0,0.0,0.0,2.0495,3.0461,3.5753,3.6059,3.6063,3.623,3.6606,3.4248,0.0,0.0,0.0,0.0,0.0,0.0,0.0,0.0,0.0,0.0,0.0,0.0,0.0,0.0,0.0,0.0,0.0,0.0,0.0,0.0,0.0,0.0,0.0,0.0,0.0,0.0,0.0,0.6971,0.0,0.0,0.0,0.0,0.0,0.0,0.0,0.0,0.0,0.0,0.0,0.0,0.0,0.0,4.2023,4.8209,4.6916,4.6717,0.0,0.0,3.8084,4.6361,5.5221,5.8601,0.0,0.0,0.0,0.0,0.0,0.0,0.0,0.0,0.0,0.0,0.0,0.0,0.0,0.0,0.0,0.0,0.0,0.0,0.0,0.0,0.0,0.0,0.0,0.0,0.0,0.0,0.0,0.0,0.0,0.0,0.0,0.0,0.0,0.0,0.0,0.0,0.0,0.0,0.0,0.0,0.0,0.0,0.0,0.0,0.0,0.0,0.0,0.0,0.0,0.0,0.0,0.0,0.0,0.0,1.9777,1.9415,2.6999,3.1659,3.2981,3.4572,3.4947,3.3995,3.2471,2.8313,0.0,0.0,0.0,0.0,0.0,0.0,0.0,0.0,0.0,0.0,0.0,0.0,0.0,0.0,0.0,0.0,0.0,0.0,0.0,0.0,0.0,0.0,0.0,0.0,0.0,0.0,0.0,0.0,0.0,0.0,0.0,0.0,0.0,0.0,0.0,0.0,0.0,0.0,0.0,0.0,0.0,0.0,4.5019,4.3052,0.0,0.0,0.0,3.2557,4.0453,0.0,0.0,0.0,0.0,0.0,0.0,0.0,0.0,0.0,0.0,0.0,0.0,0.0,0.0,0.0,0.0,0.0,0.0,0.0,0.0,0.0,0.0,0.0,0.0,0.0,0.0,0.0,0.0,0.0,0.0,0.0,0.0,0.0,0.0,0.0,0.0,0.0,0.0,0.0,0.0,0.0,0.0,0.0,0.0,0.0,0.0,0.0,0.0,0.0,0.0,0.0,0.0,0.0,0.0,0.0,0.0,0.0,1.9173,2.3451,2.7453,3.087,3.3887,3.4219,3.1823,3.1196,2.7716,0.0,0.0,0.0,0.0,0.0,0.0,0.0,0.0,0.0,0.0,0.0,0.0,0.0,0.0,0.0,0.0,0.0,0.0,0.0,0.0,0.0,0.0,0.0,0.0,0.0,0.0,0.0,0.0,0.0,0.0,0.0,0.0,0.0,0.0,0.0,0.0,0.0,0.0,0.0,0.0,0.0,4.1188,4.0588,3.9267,3.8161,0.0,0.0,2.7273,3.7169,4.3806,0.0,0.0,0.0,0.0,0.0,0.0,0.0,0.0,0.0,0.0,0.0,0.0,0.0,0.0,0.0,0.0,0.0,0.0,0.0,0.0,0.0,0.0,0.0,0.0,0.0,0.0,0.0,0.0,0.0,0.0,0.0,0.0,0.0,0.0,0.0,0.0,0.0,0.0,0.0,0.0,0.0,0.0,0.0,0.0,0.0,0.0,0.0,0.0,0.0,0.0,0.0,0.0,0.0,0.0,0.0,0.0,1.7617,2.3539,2.7785,2.9985,3.2142,3.2994,3.2325,3.1851,2.8245,0.0,0.0,0.0,0.0,0.0,0.0,0.0,0.0,0.0,0.0,0.0,0.0,0.0,0.0,0.0,0.0,0.0,0.0,0.0,0.0,0.0,0.0,0.0,0.0,0.0,0.0,0.0,0.0,0.0,0.0,0.0,0.0,0.0,0.0,0.0,0.0,0.0,0.0,0.0,0.0,0.0,3.8064,4.1566,3.8832,0.0,0.0,0.0,0.0,3.6761,4.0123,0.0,0.0,0.0,0.0,0.0,0.0,0.0,0.0,0.0,0.0,0.0,0.0,0.0,0.0,0.0,0.0,0.0,0.0,0.0,0.0,0.0,0.0,0.0,0.0,0.0,0.0,0.0,0.0,0.0,0.0,0.0,0.0,0.0,0.0,0.0,0.0,0.0,0.0,0.0,0.0,0.0,0.0,0.0,0.0,0.0,0.0,0.0,0.0,0.0,0.0,0.0,0.0,0.0,0.0,0.0,0.0,1.7987,2.2,2.5434,2.8238,3.0369,3.1419,3.1431,3.1017,2.7636,0.0,0.0,0.0,0.0,0.0,0.0,0.0,0.0,0.0,0.0,0.0,0.0,0.0,0.0,0.0,0.0,0.0,0.0,0.0,0.0,0.0,0.0,0.0,0.0,0.0,0.0,0.0,0.0,0.0,0.0,0.0,0.0,0.0,0.0,0.0,0.0,0.0,0.0,0.0,0.0,3.4088,3.6334,3.9033,0.0,0.0,0.0,0.0,0.0,0.0,3.3539,3.3052,0.0,0.0,0.0,0.0,0.0,0.0,0.0,0.0,0.0,0.0,0.0,0.0,0.0,0.0,0.0,0.0,0.0,0.0,0.0,0.0,0.0,0.0,0.0,0.0,0.0,0.0,0.0,0.0,0.0,0.0,0.0,0.0,0.0,0.0,0.0,0.0,0.0,0.0,0.0,0.0,0.0,0.0,0.0,0.0,0.0,0.0,0.0,0.0,0.0,0.0,0.0,0.0,0.0,0.0,0.0,1.8901,1.9676,2.2116,2.6498,2.8815,3.0045,3.0104,2.9874,2.6661,2.0502,0.0,0.0,0.0,0.0,0.0,0.0,0.0,0.0,0.0,0.0,0.0,0.0,0.0,0.0,0.0,0.0,0.0,0.0,0.0,0.0,0.0,0.0,0.0,0.0,0.0,0.0,0.0,0.0,0.0,0.0,0.0,0.0,0.0,0.0,0.0,0.0,0.0,0.0,0.0,3.2322,3.4059,0.0,0.0,0.0,0.0,0.0,0.0,0.0,0.0,3.1138,0.0,0.0,0.0,0.0,0.0,0.0,0.0,0.0,0.0,0.0,0.0,0.0,0.0,0.0,0.0,0.0,0.0,0.0,0.0,0.0,0.0,0.0,0.0,0.0,0.0,0.0,0.0,0.0,0.0,0.0,0.0,0.0,0.0,0.0,0.0,0.0,0.0,0.0,0.0,0.0,0.0,0.0,0.0,0.0,0.0,0.0,0.0,0.0,0.0,0.0,0.0,0.0,0.0,0.0,0.0,0.0,1.6981,1.9495,2.5417,2.8134,2.9543,2.9521,2.9565,2.6235,1.9217,0.0,0.0,0.0,0.0,0.0,0.0,0.0,0.0,0.0,0.0,0.0,0.0,0.0,0.0,0.0,0.0,0.0,0.0,0.0,0.0,0.0,0.0,0.0,0.0,0.0,0.0,0.0,0.0,0.0,0.0,0.0,0.0,0.0,0.0,0.0,0.0,0.0,0.0,1.9919,2.4661,0.0,0.0,0.0,0.0,0.0,0.0,0.0,0.0,2.7666,0.0,0.0,0.0,0.0,0.0,0.0,0.0,0.0,0.0,0.0,0.0,0.0,0.0,0.0,0.0,0.0,0.0,0.0,0.0,0.0,0.0,0.0,0.0,0.0,0.0,0.0,0.0,0.0,0.0,0.0,0.0,0.0,0.0,0.0,0.0,0.0,0.0,0.0,0.0,0.0,0.0,0.0,0.0,0.0,0.0,0.0,0.0,0.0,0.0,0.0,0.0,0.0,0.0,0.0,0.0,0.0,0.0,0.0,2.0293,2.3726,2.6666,2.8389,2.866,2.6468,2.28,0.0,0.0,0.0,0.0,0.0,0.0,0.0,0.0,0.0,0.0,0.0,0.0,0.0,0.0,0.0,0.0,0.0,0.0,0.0,0.0,0.0,0.0,0.0,0.0,0.0,0.0,0.0,0.0,0.0,0.0,0.0,0.0,0.0,0.0,0.0,0.0,0.0,0.0,0.0,0.0,0.0,0.0,0.0,0.0,0.0,0.0,0.0,0.0,0.0,0.0,0.0,0.0,0.0,0.0,0.0,0.0,0.0,0.0,0.0,0.0,0.0,0.0,0.0,0.0,0.0,0.0,0.0,0.0,0.0,0.0,0.0,0.0,0.0,0.0,0.0,0.0,0.0,0.0,0.0,0.0,0.0,0.0,0.0,0.0,0.0,0.0,0.0,0.0,0.0,0.0,0.0,0.0,0.0,0.0,0.0,0.0,0.0,0.0,0.0,0.0,0.0,0.0,0.0,0.0,0.0,0.0,0.0,0.0,1.9847,2.1823,2.5123,2.7096,2.7326,2.3009,1.9254,0.0,0.0,0.0,0.0,0.0,0.0,0.0,0.0,0.0,0.0,0.0,0.0,0.0,0.0,0.0,0.0,0.0,0.0,0.0,0.0,0.0,0.0,0.0,0.0,0.0,0.0,0.0,0.0,0.0,0.0,0.0,0.0,0.0,0.0,0.0,0.0,0.0,0.0,0.0,0.0,0.0,0.0,0.0,0.0,0.0,0.0,0.0,0.0,1.9072,0.0,0.0,0.0,0.0,0.0,0.0,0.0,0.0,0.0,0.0,0.0,0.0,0.0,0.0,0.0,0.0,0.0,0.0,0.0,0.0,0.0,0.0,0.0,0.0,0.0,0.0,0.0,0.0,0.0,0.0,0.0,0.0,0.0,0.0,0.0,0.0,0.0,0.0,0.0,0.0,0.0,0.0,0.0,0.0,0.0,0.0,0.0,0.0,0.0,0.0,0.0,0.0,0.0,0.0,0.0,0.0,0.0,0.0,0.0,1.4262,1.997,2.3818,2.5492,2.4813,2.0624,1.7551,0.0,0.0,0.0,0.0,0.0,0.0,0.0,0.0,0.0,0.0,0.0,0.0,0.0,0.0,0.0,0.0,0.0,0.0,0.0,0.0,0.0,0.0,0.0,0.0,0.0,0.0,0.0,0.0,0.0,0.0,0.0,0.0,0.0,0.0,0.0,0.0,0.0,0.0,0.0,0.0,0.0,0.0,0.0,0.0,0.0,0.0,0.0,0.0,0.0,0.0,0.0,0.0,0.0,0.0,0.0,0.0,0.0,0.0,0.0,0.0,0.0,0.0,0.0,0.0,0.0,0.0,0.0,0.0,0.0,0.0,0.0,0.0,0.0,0.0,0.0,0.0,0.0,0.0,0.0,0.0,0.0,0.0,0.0,0.0,0.0,0.0,0.0,0.0,0.0,0.0,0.0,0.0,0.0,0.0,0.0,0.0,0.0,0.0,0.0,0.0,0.0,0.0,0.0,0.0,0.0,0.0,0.0,0.0,1.2686,1.6398,2.1601,2.2935,2.0162,1.7861,1.5546,0.0,0.0,0.0,0.0,0.0,0.0,0.0,0.0,0.0,0.0,0.0,0.0,0.0,0.0,0.0,0.0,0.0,0.0,0.0,0.0,0.0,0.0,0.0,0.0,0.0,0.0,0.0,0.0,0.0,0.0,0.0,0.0,0.0,0.0,0.0,0.0,0.0,0.0,0.0,0.0,0.0,0.0,0.0,0.0,0.0,0.0,0.0,0.0,0.0,0.0,0.0,0.0,0.0,0.0,0.0,0.0,0.0,0.0,0.0,0.0,0.0,0.0,0.0,0.0,0.0,0.0,0.0,0.0,0.0,0.0,0.0,0.0,0.0,0.0,0.0,0.0,0.0,0.0,0.0,0.0,0.0,0.0,0.0,0.0,0.0,0.0,0.0,0.0,0.0,0.0,0.0,0.0,0.0,0.0,0.0,0.0,0.0,0.0,0.0,0.0,0.0,0.0,0.0,0.0,0.0,0.0,0.0,0.0,0.0,1.352,1.844,1.9896,1.7612,1.6257,1.3657,0.0,0.0,0.0,0.0,0.0,0.0,0.0,0.0,0.0,0.0,0.0,0.0,0.0,0.0,0.0,0.0,0.0,0.0,0.0,0.0,0.0,0.0,0.0,0.0,0.0,0.0,0.0,0.0,0.0,0.0,0.0,0.0,0.0,0.0,0.0,0.0,0.0,0.0,0.0,0.0,0.0,0.0,0.0,0.0,0.0,0.0,0.0,0.0,0.0,0.0,0.0,0.0,0.0,0.0,0.0,0.0,0.0,0.0,0.0,0.0,0.0,0.0,0.0,0.0,0.0,0.0,0.0,0.0,0.0,0.0,0.0,0.0,0.0,0.0,0.0,0.0,0.0,0.0,0.0,0.0,0.0,0.0,0.0,0.0,0.0,0.0,0.0,0.0,0.0,0.0,0.0,0.0,0.0,0.0,0.0,0.0,0.0,0.0,0.0,0.0,0.0,0.0,0.0,0.0,0.0,0.0,0.0,0.0,0.0,1.21,1.4079,1.6434,1.8935,1.6763,1.2089,0.0,0.0,0.0,0.0,0.0,0.0,0.0,0.0,0.0,0.0,0.0,0.0,0.0,0.0,0.0,0.0,0.0,0.0,0.0,0.0,0.0,0.0,0.0,0.0,0.0,0.0,0.0,0.0,0.0,0.0,0.0,0.0,0.0,0.0,0.0,0.0,0.0,0.0,0.0,0.0,0.0,0.0,0.0,0.0,0.0,0.0,0.0,0.0,0.0,0.0,0.0,0.0,0.0,0.0,0.0,0.0,0.0,0.0,0.0,0.0,0.0,0.0,0.0,0.0,0.0,0.0,0.0,0.0,0.0,0.0,0.0,0.0,0.0,0.0,0.0,0.0,0.0,0.0,0.0,0.0,0.0,0.0,0.0,0.0,0.0,0.0,0.0,0.0,0.0,0.0,0.0,0.0,0.0,0.0,0.0,0.0,0.0,0.0,0.0,0.0,0.0,0.0,0.0,0.0,0.0,0.0,0.0,0.0,0.0,0.7681,1.411,1.7167,1.6322,0.9499,0.6275,0.7093,0.0,0.0,0.0,0.0,0.0,0.0,0.0,0.0,0.0,0.0,0.0,0.0,0.0,0.0,0.0,0.0,0.0,0.0,0.0,0.0,0.0,0.0,0.0,0.0,0.0,0.0,0.0,0.0,0.0,0.0,0.0,0.0,0.0,0.0,0.0,0.0,0.0,0.0,0.0,0.0,0.0,0.0,0.0,0.0,0.0,0.0,0.0,0.0,0.0,0.0,0.0,0.0,0.0,0.0,0.0,0.0,0.0,0.0,0.0,0.0,0.0,0.0,0.0,0.0,0.0,0.0,0.0,0.0,0.0,0.0,0.0,0.0,0.0,0.0,0.0,0.0,0.0,0.0,0.0,0.0,0.0,0.0,0.0,0.0,0.0,0.0,0.0,0.0,0.0,0.0,0.0,0.0,0.0,0.0,0.0,0.0,0.0,0.0,0.0,0.0,0.0,0.0,0.0,0.0,0.0,0.0,0.0,0.0,0.6433,1.3105,1.5217,1.218,0.8159,0.6191,0.0,0.0,0.0,0.0,0.0,0.0,0.0,0.0,0.0,0.0,0.0,0.0,0.0,0.0,0.0,0.0,0.0,0.0,0.0,0.0,0.0,0.0,0.0,0.0,0.0,0.0,0.0,0.0,0.0,0.0,0.0,0.0,0.0,0.0,0.0,0.0,0.0,0.0,0.0,0.0,0.0,0.0,0.0,0.0,0.0,0.0,0.0,0.0,0.0,0.0,0.0,0.0,0.0,0.0,0.0,0.0,0.0,0.0,0.0,0.0,0.0,0.0,0.0,0.0,0.0,0.0,0.0,0.0,0.0,0.0,0.0,0.0,0.0,0.0,0.0,0.0,0.0,0.0,0.0,0.0,0.0,0.0,0.0,0.0,0.0,0.0,0.0,0.0,0.0,0.0,0.0,0.0,0.0,0.0,0.0,0.0,0.0,0.0,0.0,0.0,0.0,0.0,0.0,0.0,0.0,0.0,0.0,0.0,0.8723,0.9331,1.0548,1.0062,0.7105,1.4684,1.3229,0.0,0.0,0.0,0.0,0.0,0.0,0.0,0.0,0.0,0.0,0.0,0.0,0.0,0.0,0.0,0.0,0.0,0.0,0.0,0.0,0.0,0.0,0.0,0.0,0.0,0.0,0.0,0.0,0.0,0.0,0.0,0.0,0.0,0.0,0.0,0.0,0.0,0.0,0.0,0.0,0.0,0.0,0.0,0.0,0.0,0.0,0.0,0.0,0.0,0.0,0.0,0.0,0.0,0.0,0.0,0.0,0.0,0.0,0.0,0.0,0.0,0.0,0.0,0.0,0.0,0.0,0.0,0.0,0.0,0.0,0.0,0.0,0.0,0.0,0.0,0.0,0.0,0.0,0.0,0.0,0.0,0.0,0.0,0.0,0.0,0.0,0.0,0.0,0.0,0.0,0.0,0.0,0.0,0.0,0.0,0.0,0.0,0.0,0.0,0.0,0.0,0.0,0.0,0.0,0.0,0.0,0.0,0.0,0.0,1.1471,1.2255,1.1705,1.006,1.5367,1.6593,0.0,0.0,0.0,0.0,0.0,0.0,0.0,0.0,0.0,0.0,0.0,0.0,0.0,0.0,0.0,0.0,0.0,0.0,0.0,0.0,0.0,0.0,0.0,0.0,0.0,0.0,0.0,0.0,0.0,0.0,0.0,0.0,0.0,0.0,0.0,0.0,0.0,0.0,0.0,0.0,0.0,0.0,0.0,0.0,0.0,0.0,0.0,0.0,0.0,0.0,0.0,0.0,0.0,0.0,0.0,0.0,0.0,0.0,0.0,0.0,0.0,0.0,0.0,0.0,0.0,0.0,0.0,0.0,0.0,0.0,0.0,0.0,0.0,0.0,0.0,0.0,0.0,0.0,0.0,0.0,0.0,0.0,0.0,0.0,0.0,0.0,0.0,0.0,0.0,0.0,0.0,0.0,0.0,0.0,0.0,0.0,0.0,0.0,0.0,0.0,0.0,0.0,0.0,0.0,0.0,0.0,0.0,0.0,0.0,1.0301,1.2458,1.3274,1.315,1.6361,1.8466,0.0,0.0,0.0,0.0,0.0,0.0,0.0,0.0,0.0,0.0,0.0,0.0,0.0,0.0,0.0,0.0,0.0,0.0,0.0,0.0,0.0,0.0,0.0,0.0,0.0,0.0,0.0,0.0,0.0,0.0,0.0,0.0,0.0,0.0,0.0,0.0,0.0,0.0,0.0,0.0,0.0,0.0,0.0,0.0,0.0,0.0,0.0,0.0,0.0,0.0,0.0,0.0,0.0,0.0,0.0,0.0,0.0,0.0,0.0,0.0,0.0,0.0,0.0,0.0,0.0,0.0,0.0,0.0,0.0,0.0,0.0,0.0,0.0,0.0,0.0,0.0,0.0,0.0,0.0,0.0,0.0,0.0,0.0,0.0,0.0,0.0,0.0,0.0,0.0,0.0,0.0,0.0,0.0,0.0,0.0,0.0,0.0,0.0,0.0,0.0,0.0,0.0,0.0,0.0,0.0,0.0,0.0,0.0,0.0,0.6418,1.1027,1.4272,1.5725,1.7773,1.8772,0.0,0.0,0.0,0.0,0.0,0.0,0.0,0.0,0.0,0.0,0.0,0.0,0.0,0.0,0.0,0.0,0.0,0.0,0.0,0.0,0.0,0.0,0.0,0.0,0.0,0.0,0.0,0.0,0.0,0.0,0.0,0.0,0.0,0.0,0.0,0.0,0.0,0.0,0.0,0.0,0.0,0.0,0.0,0.0,0.0,0.0,0.0,0.0,0.0,0.0,0.0,0.0,0.0,0.0,0.0,0.0,0.0,0.0,0.0,0.0,0.0,0.0,0.0,0.0,0.0,0.0,0.0,0.0,0.0,0.0,0.0,0.0,0.0,0.0,0.0,0.0,0.0,0.0,0.0,0.0,0.0,0.0,0.0,0.0,0.0,0.0,0.0,0.0,0.0,0.0,0.0,0.0,0.0,0.0,0.0,0.0,0.0,0.0,0.0,0.0,0.0,0.0,0.0,0.0,0.0,0.0,0.0,0.0,0.0,0.0,1.0997,1.428,1.3289,1.428,1.4539,1.3962,0.0,0.0,0.0,0.0,0.0,0.0,0.0,0.0,0.0,0.0,0.0,0.0,0.0,0.0,0.0,0.0,0.0,0.0,0.0,0.0,0.0,0.0,0.0,0.0,0.0,0.0,0.0,0.0,0.0,0.0,0.0,0.0,0.0,0.0,0.0,0.0,0.0,0.0,0.0,0.0,0.0,0.0,0.0,0.0,0.0,0.0,0.0,0.0,0.0,0.0,0.0,0.0,0.0,0.0,0.0,0.0,0.0,0.0,0.0,0.0,0.0,0.0,0.0,0.0,0.0,0.0,0.0,0.0,0.0,0.0,0.0,0.0,0.0,0.0,0.0,0.0,0.0,0.0,0.0,0.0,0.0,0.0,0.0,0.0,0.0,0.0,0.0,0.0,0.0,0.0,0.0,0.0,0.0,0.0,0.0,0.0,0.0,0.0,0.0,0.0,0.0,0.0,0.0,0.0,0.0,0.0,0.0,0.0,0.0,0.0,1.137,1.0868,1.1175,1.1556,0.0,0.0,0.0,0.0,0.0,0.0,0.0,0.0,0.0,0.0,0.0,0.0,0.0,0.0,0.0,0.0,0.0,0.0,0.0,0.0,0.0,0.0,0.0,0.0,0.0,0.0,0.0,0.0,0.0,0.0,0.0,0.0,0.0,0.0,0.0,0.0,0.0,0.0,0.0,0.0,0.0,0.0,0.0,0.0,0.0,0.0,0.0,0.0,0.0,0.0,0.0,0.0,0.0,0.0,0.0,0.0,0.0,0.0,0.0,0.0,0.0,0.0,0.0,0.0,0.0,0.0,0.0,0.0,0.0,0.0,0.0,0.0,0.0,0.0,0.0,0.0,0.0,0.0,0.0,0.0,0.0,0.0,0.0,0.0,0.0,0.0,0.0,0.0,0.0,0.0,0.0,0.0,0.0,0.0,0.0,0.0,0.0,0.0,0.0,0.0,0.0,0.0,0.0,0.0,0.0,0.0,0.0,0.0,0.0,0.0,0.0,0.704,0.8829,0.8879,0.0,1.1286,0.0,0.0,0.0,0.0,0.0,0.0,0.0,0.0,0.0,0.0,0.0,0.0,0.0,0.0,0.0,0.0,0.0,0.0,0.0,0.0,0.0,0.0,0.0,0.0,0.0,0.0,0.0,0.0,0.0,0.0,0.0,0.0,0.0,0.0,0.0,0.0,0.0,0.0,0.0,0.0,0.0,0.0,0.0,0.0,0.0,0.0,0.0,0.0,0.0,0.0,0.0,0.0,0.0,0.0,0.0,0.0,0.0,0.0,0.0,0.0,0.0,0.0,0.0,0.0,0.0,0.0,0.0,0.0,0.0,0.0,0.0,0.0,0.0,0.0,0.0,0.0,0.0,0.0,0.0,0.0,0.0,0.0,0.0,0.0,0.0,0.0,0.0,0.0,0.0,0.0,0.0,0.0,0.0,0.0,0.0,0.0,0.0,0.0,0.0,0.0,0.0,0.0,0.0,0.0,0.0,0.0,0.0,0.0,0.0,0.0,0.0,0.0,0.8507,0.9179,0.873,0.0,0.0,0.0,0.0,0.0,0.0,0.0,0.0,0.0,0.0,0.0,0.0,0.0,0.0,0.0,0.0,0.0,0.0,0.0,0.0,0.0,0.0,0.0,0.0,0.0,0.0,0.0,0.0,0.0,0.0,0.0,0.0,0.0,0.0,0.0,0.0,0.0,0.0,0.0,0.0,0.0,0.0,0.0,0.0,0.0,0.0,0.0,0.0,0.0,0.0,0.0,0.0,0.0,0.0,0.0,0.0,0.0,0.0,0.0,0.0,0.0,0.0,0.0,0.0,0.0,0.0,0.0,0.0,0.0,0.0,0.0,0.0,0.0,0.0,0.0,0.0,0.0,0.0,0.0,0.0,0.0,0.0,0.0,0.0,0.0,0.0,0.0,0.0,0.0,0.0,0.0,0.0,0.0,0.0,0.0,0.0,0.0,0.0,0.0,0.0,0.0,0.0,0.0,0.0,0.0,0.0,0.0,0.0,0.0,0.0,0.6518,0.6534,0.8223,0.8691,0.765,0.0,0.0,0.0,0.0,0.0,0.0,0.0,0.0,0.0,0.0,0.0,0.0,0.0,0.0,0.0,0.0,0.0,0.0,0.0,0.0,0.0,0.0,0.0,0.0,0.0,0.0,0.0,0.0,0.0,0.0,0.0,0.0,0.0,0.0,0.0,0.0,0.0,0.0,0.0,0.0,0.0,0.0,0.0,0.0,0.0,0.0,0.0,0.0,0.0,0.0,0.0,0.0,0.0,0.0,0.0,0.0,0.0,0.0,0.0,0.0,0.0,0.0,0.0,0.0,0.0,0.0,0.0,0.0,0.0,0.0,0.0,0.0,0.0,0.0,0.0,0.0,0.0,0.0,0.0,0.0,0.0,0.0,0.0,0.0,0.0,0.0,0.0,0.0,0.0,0.0,0.0,0.0,0.0,0.0,0.0,0.0,0.0,0.0,0.0,0.0,0.0,0.0,0.0,0.0,0.0,0.0,0.0,0.0,0.0,0.0,0.7049,0.0,0.0,0.0,0.7568,0.0,0.0,0.0,0.0,0.0,0.0,0.0,0.0,0.0,0.0,0.0,0.0,0.0,0.0,0.0,0.0,0.0,0.0,0.0,0.0,0.0,0.0,0.0,0.0,0.0,0.0,0.0,0.0,0.0,0.0,0.0,0.0,0.0,0.0,0.0,0.0,0.0,0.0,0.0,0.0,0.0,0.0,0.0,0.0,0.0,0.0,0.0,0.0,0.0,0.0,0.0,0.0,0.0,0.0,0.0,0.0,0.0,0.0,0.0,0.0,0.0,0.0,0.0,0.0,0.0,0.0,0.0,0.0,0.0,0.0,0.0,0.0,0.0,0.0,0.0,0.0,0.0,0.0,0.0,0.0,0.0,0.0,0.0,0.0,0.0,0.0,0.0,0.0,0.0,0.0,0.0,0.0,0.0,0.0,0.0,0.0,0.0,0.0,0.0,0.0,0.0,0.0,0.0,0.0,0.0,0.0,0.0,0.0,0.0,0.0,0.0,0.0,0.0,0.0,0.0,0.0,0.0,0.0,0.0,0.0,0.0,0.0,0.0,0.0,0.0,0.0,0.0,0.0,0.0,0.0,0.0,0.0,0.0,0.0,0.0,0.0,0.0,0.0,0.0,0.0,0.0,0.0,0.0,0.0,0.0,0.0,0.0,0.0,0.0,0.0,0.0,0.0,0.0,0.0,0.0,0.0,0.0,0.0,0.0,0.0,0.0,0.0,0.0,0.0,0.0,0.0,0.0,0.0,0.0,0.0,0.0,0.0,0.0,0.0,0.0,0.0,0.0,0.0,0.0,0.0,0.0,0.0,0.0,0.0,0.0,0.0,0.0,0.0,0.0,0.0,0.0,0.0,0.0,0.0,0.0,0.0,0.0,0.0,0.0,0.0,0.0,0.0,0.0,0.0,0.0,0.0,0.0,0.0,0.0,0.0,0.0,0.0,0.0,0.0,0.0,0.0,0.0,0.0,0.0,0.0,0.0,0.0,0.0,0.0,0.0,0.0,0.0,0.0,0.0,0.0,0.0,0.0,0.0,0.0,0.0,0.0,0.0,0.0,0.0,0.0,0.0,0.0,0.0,0.0,0.0,0.0,0.0,0.0,0.0,0.0,0.0,0.0,0.0,0.0,0.0,0.0,0.0,0.0,0.0,0.0,0.0,0.0,0.0,0.0,0.0,0.0,0.0,0.0,0.0,0.0,0.0,0.0,0.0,0.0,0.0,0.0,0.0,0.0,0.0,0.0,0.0,0.0,0.0,0.0,0.0,0.0,0.0,0.0,0.0,0.0,0.0,0.0,0.0,0.0,0.0,0.0,0.0,0.0,0.0,0.0,0.0,0.0,0.0,0.0,0.0,0.0,0.0,0.0,0.0,0.0,0.0,0.0,0.0,0.0,0.0,0.0,0.0,0.0,0.0,0.0,0.0,0.0,0.0,0.0,0.0,0.0,0.0,0.0,0.0,0.0,0.0,0.0,0.0,0.0,0.0,0.0,0.0,0.0,0.0,0.0,0.0,0.0,0.0,0.0,0.0,0.0,0.0,0.0,0.0,0.0,0.0,0.0,0.0,0.0,0.0,0.0,0.0,0.0,0.0,0.0,0.0,0.0,0.0,0.0,0.0,0.0,0.0,0.0,0.0,0.0,0.0,0.0,0.0,0.0,0.0,0.0,0.0,0.0,0.0,0.0,0.0,0.0,0.0,0.0,0.0,0.0,0.0,0.0,0.0,0.0,0.0,0.0,0.0,0.0,0.0,0.0,0.0,0.0,0.0,0.0,0.0,0.0,0.0,0.0,0.0,0.0,0.0,0.0,0.0,0.0,0.0,0.0,0.0,0.0,0.0,0.0,0.0,0.0,0.0,0.0,0.0,0.0,0.0,0.0,0.0,0.0,0.0,0.0,0.0,0.0,0.0,0.0,0.0,0.0,0.0,0.0,0.0,0.0,0.0,0.0,0.0,0.0,0.0,0.0,0.0,0.0,0.0,0.0,0.0,0.0,0.0,0.0,0.0,0.0,0.0,0.0,0.0,0.0,0.0,0.0,0.0,0.0,0.0,0.0,0.0,0.0,0.0,0.0,0.0,0.0,0.0,0.0,0.0,0.0,0.0,0.0,0.0,0.0,0.0,0.0,0.0,0.0,0.0,0.0,0.0,0.0,0.0,0.0,0.0,0.0,0.0,0.0,0.0,0.0,0.0,0.0,0.0,0.0,0.0,0.0,0.0,0.0,0.0,0.0,0.0,0.0,0.0,0.0,0.0,0.0,0.0,0.0,0.0,0.0,0.0,0.0,0.0,0.0,0.0,0.0,0.0,0.0,0.0,0.0,0.0,0.0,0.0,0.0,0.0,0.0,0.0,0.0,0.0,0.0,0.0,0.0,0.0,0.0,0.0,0.0,0.0,0.0,0.0,0.0,0.0,0.0,0.0,0.0,0.0,0.0,0.0,0.0,0.0,0.0,0.0,0.0,0.0,0.0,0.0,0.0,0.0,0.0,0.0,0.0,0.0,0.0,0.0,0.0,0.0,0.0,0.0,0.0,0.0,0.0,0.0,0.0,0.0,0.0,0.0,0.0,0.0,0.0,0.0,0.0,0.0,0.0,0.0,0.0,0.0,0.0,0.0,0.0,0.0,0.0,0.0,0.0,0.0,0.0,0.0,0.0,0.0,0.0,0.0,0.0,0.0,0.0,0.0,0.0,0.0,0.0,0.0,0.0,0.0,0.0,0.0,0.0,0.0,0.0,0.0,0.0,0.0,0.0,0.0,0.0,0.0,0.0,0.0,0.0,0.0,0.0,0.0,0.0,0.0,0.0,0.0,0.0,0.0,0.0,0.0,0.0,0.0,0.0,0.0,0.0,0.0,0.0,0.0,0.0,0.0,0.0,0.0,0.0,0.0,0.0,0.0,0.0,0.0,0.0,0.0,0.0,0.0,0.0,0.0,0.0,0.0,0.0,0.0,0.0,0.0,0.0,0.0,0.0,0.0,0.0,0.0,0.0,0.0,0.0,0.0,0.0,0.0,0.0,0.0,0.0,0.0,0.0,0.0,0.0,0.0,0.0,0.0,0.0,0.0,0.0,0.0,0.0,0.0,0.0,0.0,0.0,0.0,0.0,0.0,0.0,0.0,0.0,0.0,0.0,0.0,0.0,0.0,0.0,0.0,0.0,0.0,0.0,0.0,0.0,0.0,0.0,0.0,0.0,0.0,0.0,0.0,0.0,0.0,0.0,0.0,0.0,0.0,0.0,0.0,0.0,0.0,0.0,0.0,0.0,0.0,0.0,0.0,0.0,0.0,0.0,0.0,0.0,0.0,0.0,0.0,0.0,0.0,0.0,0.0,0.0,0.0,0.0,0.0,0.0,0.0,0.0,0.0,0.0,0.0,0.0,0.0,0.0,0.0,0.0,0.0,0.0,0.0,0.0,0.0,0.0,0.0,0.0,0.0,0.0,0.0,0.0,0.0,0.0,0.0,0.0,0.0,0.0,0.0,0.0,0.0,0.0,0.0,0.0,0.0,0.0,0.0,0.0,0.0,0.0,0.0,0.0,0.0,0.0,0.0,0.0,0.0,0.0,0.0,0.0,0.0,0.0,0.0,0.0,0.0,0.0,0.0,0.0,0.0,0.0,0.0,0.0,0.0,0.0,0.0,0.0,0.0,0.0,0.0,0.0,0.0,0.0,0.0,0.0,0.0,0.0,0.0,0.0,0.0,0.0,0.0,0.0,0.0,0.0,0.0,0.0,0.0,0.0,0.0,0.0,0.0,0.0,0.0,0.0,0.0,0.0,0.0,0.0,0.0,0.0,0.0,0.0,0.0,0.0,0.0,0.0,0.0,0.0,0.0,0.0,0.0,0.0,0.0,0.0,0.0,0.0,0.0,0.0,0.0,0.0,0.0,0.0,0.0,0.0,0.0,0.0,0.0,0.0,0.0,0.0,0.0,0.0,0.0,0.0,0.0,0.0,0.0,0.0,0.0,0.0,0.0,0.0,0.0,0.0,0.0,0.0,0.0,0.0,0.0,0.0,0.0,0.0,0.0,0.0,0.0,0.0,0.0,0.0,0.0,0.0,0.0,0.0,0.0,0.0,0.0,0.0,0.0,0.0,0.0,0.0,0.0,0.0,0.0,0.0,0.0,0.0,0.0,0.0,0.0,0.0,0.0,0.0,0.0,0.0,0.0,0.0,0.0,0.0,0.0,0.0,0.0,0.0,0.0,0.0,0.0,0.0,0.0,0.0,0.0,0.0,0.0,0.0,0.0,0.0,0.0,0.0,0.0,0.0,0.0,0.0,0.0,0.0,0.0,0.0,0.0,0.0,0.0,0.0,0.0,0.0,0.0,0.0,0.0,0.0,0.0,0.0,0.0,0.0,0.0,0.0]}],[{"header":{"parameterUnit":"kt","parameterCategory":2,"dx":1,"dy":1,"la1":29.587661999999998,"la2":31.0,"lo1":-88.76705300000003,"lo2":-86.6583820000003,"nx":115,"ny":88,"refTime":"2022-10-31T18:00:00:Z","depth":0,"parameterNumber":2,"parameterNumberName":"V-component_of_WINDS"},"data":[1.8637,1.6503,1.7141,1.665,1.5652,1.603,1.6293,1.6419,1.6796,1.6922,1.7314,1.7597,1.7759,1.7487,1.8549,1.9138,1.9563,1.9202,1.8924,1.8742,1.8042,1.7532,1.7189,1.7249,1.6692,1.6796,1.6922,1.6807,1.6922,1.6922,1.6796,1.6555,1.6555,1.6555,1.6555,1.6555,1.6555,1.6555,1.6555,1.6555,1.6555,1.6555,1.6555,1.6555,1.6555,1.6658,1.7,1.7602,1.7502,1.6371,1.4548,1.1473,0.9123,0.7769,0.7466,0.7466,0.7162,0.7314,0.7466,0.7466,0.7014,0.7041,0.633,0.5526,0.4466,0.3398,0.2941,0.2615,0.0697,-0.0697,-0.0872,-0.2092,-0.279,-0.279,-0.279,-0.279,-0.2965,-0.3489,-0.3664,-0.4012,-0.5058,-0.9047,-1.319,-1.5092,-1.6127,-1.6127,-1.6134,-1.6305,-1.6476,-1.6782,-1.6908,-1.7287,-1.765,-1.8665,-1.9985,-2.1708,-2.2709,-2.3098,-2.4066,-2.6752,-2.9465,-3.2279,-3.3677,-3.4223,-3.5199,-3.5987,-3.6438,-3.6622,-3.6919,-3.7234,-3.7404,-3.7461,-3.7461,-3.739,-3.7333,1.8365,1.6377,1.5496,1.5019,1.5029,1.5155,1.5389,1.5884,1.601,1.6283,1.645,1.6218,1.6695,1.7094,1.7662,1.8195,1.8323,1.8231,1.8041,1.7841,1.712,1.6974,1.6806,1.6618,1.6576,1.6545,1.6671,1.6545,1.6555,1.6681,1.6671,1.6555,1.6555,1.6555,1.6555,1.6555,1.6555,1.6555,1.6555,1.6555,1.6555,1.6555,1.6429,1.6429,1.6555,1.6187,1.6355,1.6497,1.6442,1.4762,1.196,0.9338,0.7613,0.7162,0.7162,0.7162,0.6855,0.7162,0.7314,0.7318,0.6869,0.6332,0.5601,0.4743,0.3962,0.3206,0.2767,0.1395,-0.0872,-0.2092,-0.1743,-0.2092,-0.2442,-0.279,-0.279,-0.279,-0.2965,-0.3315,-0.3139,-0.2965,-0.5398,-0.87,-1.1985,-1.4749,-1.5442,-1.5606,-1.5606,-1.5948,-1.6142,-1.6414,-1.6867,-1.7266,-1.7303,-1.9102,-2.1245,-2.2474,-2.3269,-2.3846,-2.5043,-2.7952,-3.0691,-3.2974,-3.4262,-3.4898,-3.4978,-3.5466,-3.5997,-3.6602,-3.7089,-3.7404,-3.7475,-3.7273,-3.7475,-3.7461,-3.7461,1.7743,1.6607,1.4728,1.3731,1.3621,1.3604,1.3986,1.4756,1.4883,1.462,1.4231,1.424,1.4604,1.5711,1.5964,1.6646,1.7684,1.7572,1.7582,1.7654,1.733,1.6953,1.6796,1.6691,1.6608,1.6555,1.6555,1.6555,1.6555,1.6555,1.6555,1.6555,1.6555,1.6555,1.6555,1.6555,1.6555,1.6555,1.6555,1.6293,1.5914,1.6167,1.6293,1.5136,1.4883,1.4503,1.4723,1.4808,1.4518,1.2791,1.0625,0.8608,0.6703,0.6554,0.6406,0.625,0.6551,0.7006,0.7162,0.6877,0.6448,0.5939,0.5151,0.3948,0.3154,0.0849,0.0348,0.0349,-0.1918,-0.2616,-0.2267,-0.2267,-0.2616,-0.279,-0.279,-0.279,-0.2965,-0.3316,-0.332,-0.3331,-0.5118,-0.862,-1.2209,-1.4819,-1.5142,-1.5142,-1.5457,-1.5621,-1.5785,-1.6001,-1.6678,-1.706,-1.6758,-1.8157,-2.1787,-2.3484,-2.4214,-2.498,-2.5722,-2.7871,-2.9743,-3.2629,-3.4851,-3.4998,-3.5174,-3.5212,-3.5824,-3.6581,-3.7042,-3.7259,-3.7259,-3.7273,-3.7475,-3.7461,-3.7461,1.6628,1.5864,1.3841,1.2703,1.208,1.2064,1.2576,1.3485,1.323,1.2703,1.244,1.244,1.2991,1.4101,1.4426,1.494,1.6075,1.6331,1.7076,1.6954,1.7063,1.6869,1.6932,1.666,1.6576,1.6555,1.6555,1.6555,1.6555,1.6555,1.6555,1.6555,1.6555,1.6555,1.6555,1.6555,1.6545,1.6419,1.6167,1.5652,1.5399,1.5652,1.5516,1.4367,1.3341,1.3086,1.2857,1.2914,1.2421,1.1433,1.0017,0.7981,0.5332,0.5642,0.5338,0.5183,0.6098,0.6858,0.7014,0.6717,0.5676,0.5005,0.4169,0.3118,0.1344,-0.1204,-0.2438,-0.2092,-0.2267,-0.2442,-0.2616,-0.2616,-0.279,-0.279,-0.279,-0.279,-0.279,-0.3145,-0.3501,-0.4244,-0.5016,-0.8367,-1.2494,-1.4369,-1.4688,-1.4896,-1.5112,-1.5307,-1.5532,-1.5647,-1.6343,-1.7523,-1.7015,-1.8583,-2.2358,-2.4811,-2.5809,-2.6629,-2.7593,-2.8073,-2.865,-3.1828,-3.4526,-3.4928,-3.4995,-3.479,-3.5008,-3.6041,-3.6651,-3.684,-3.6854,-3.6854,-3.7056,-3.7056,-3.7056,1.4756,1.3341,1.2328,1.1688,1.1039,1.0918,1.1296,1.1816,1.0789,1.0782,1.1688,1.1808,1.1959,1.2495,1.2792,1.3116,1.4035,1.4749,1.5186,1.5345,1.582,1.6075,1.6173,1.645,1.6051,1.6293,1.6555,1.6303,1.6429,1.6555,1.6555,1.6555,1.6555,1.6429,1.6419,1.6419,1.6293,1.6041,1.5399,1.463,1.463,1.4493,1.4358,1.346,1.2568,1.2064,1.154,1.1019,1.0677,0.9478,0.8423,0.7605,0.6049,0.5338,0.5185,0.5338,0.5794,0.6558,0.6862,0.6098,0.4897,0.3734,0.2706,0.1629,0.0333,-0.1707,-0.2605,-0.2442,-0.2442,-0.2616,-0.279,-0.279,-0.279,-0.279,-0.2794,-0.2798,-0.2805,-0.3169,-0.4079,-0.5776,-0.6942,-0.9755,-1.363,-1.441,-1.4579,-1.4703,-1.4964,-1.5124,-1.5359,-1.5443,-1.6732,-1.8221,-1.8568,-2.0138,-2.3887,-2.675,-2.752,-2.857,-2.9727,-3.0441,-3.0988,-3.2595,-3.4394,-3.4394,-3.4586,-3.4394,-3.4394,-3.5199,-3.581,-3.6014,-3.6231,-3.6448,-3.6448,-3.6434,-3.6434,1.3341,1.2192,1.22,1.1182,0.9759,0.9249,0.9249,0.9507,0.899,0.899,0.9765,0.9765,1.0281,1.1053,1.1175,1.1747,1.2562,1.3169,1.3409,1.369,1.4065,1.4394,1.4503,1.4503,1.501,1.5409,1.5662,1.5788,1.6429,1.6555,1.6545,1.6545,1.6555,1.6303,1.6041,1.5904,1.5914,1.5272,1.4503,1.3485,1.3239,1.3239,1.2847,1.2072,1.0789,1.0667,1.0592,0.8858,0.8418,0.7912,0.6808,0.5946,0.546,0.5185,0.503,0.6098,0.6102,0.625,0.6554,0.518,0.3843,0.2658,0.1606,0.0326,-0.1163,-0.2038,-0.2419,-0.279,-0.279,-0.279,-0.279,-0.279,-0.279,-0.2792,-0.28,-0.2808,-0.3,-0.3194,-0.469,-0.6805,-0.951,-1.2058,-1.3464,-1.4092,-1.455,-1.4768,-1.4873,-1.5248,-1.5315,-1.5885,-1.753,-1.9635,-2.0675,-2.231,-2.5422,-2.8855,-2.9679,-3.0629,-3.1739,-3.2474,-3.3566,-3.419,-3.4394,-3.419,-3.419,-3.419,-3.419,-3.479,-3.5199,-3.5403,-3.5824,-3.562,-3.5416,-3.5824,-3.6027,1.2472,1.1446,1.1446,1.041,0.8473,0.7241,0.7264,0.797,0.797,0.8099,0.8364,0.8364,0.8996,0.9753,0.9747,1.0397,1.1182,1.168,1.1937,1.2192,1.272,1.2839,1.2959,1.3214,1.3341,1.3731,1.4122,1.463,1.5535,1.5914,1.5904,1.6167,1.6167,1.5914,1.5525,1.5136,1.4756,1.4249,1.3366,1.26,1.2344,1.1959,1.1317,1.0796,0.9636,0.9249,0.9007,0.7591,0.7122,0.6738,0.5758,0.5184,0.4852,0.4878,0.503,0.6402,0.6247,0.5335,0.5487,0.3808,0.2144,0.1246,0.0,-0.1466,-0.2154,-0.2543,-0.261,-0.279,-0.279,-0.279,-0.279,-0.279,-0.279,-0.2804,-0.2824,-0.2837,-0.3214,-0.3602,-0.4761,-0.7282,-1.1821,-1.4023,-1.45,-1.4992,-1.4906,-1.4979,-1.5044,-1.5084,-1.5592,-1.7147,-1.8913,-2.1509,-2.327,-2.6705,-2.9557,-3.0562,-3.1585,-3.2514,-3.3177,-3.3865,-3.419,-3.419,-3.419,-3.419,-3.419,-3.419,-3.419,-3.4381,-3.4586,-3.4995,-3.5212,-3.4804,-3.4804,-3.5606,-3.6014,1.202,1.1274,1.003,0.8715,0.7278,0.4927,0.5339,0.7185,0.798,0.8115,0.8229,0.8229,0.8489,0.8489,0.8489,0.8748,0.9131,1.041,1.0532,1.0775,1.1424,1.1929,1.2185,1.2185,1.2064,1.1944,1.2208,1.3239,1.3885,1.4385,1.4911,1.5321,1.5311,1.5136,1.463,1.3995,1.3239,1.2975,1.2216,1.1838,1.1196,1.081,1.0159,0.9636,0.899,0.8343,0.771,0.6842,0.6358,0.5975,0.554,0.5123,0.494,0.4873,0.4878,0.5335,0.6399,0.4726,0.3508,0.2895,0.1379,-0.0466,-0.1602,-0.2117,-0.2654,-0.2725,-0.2777,-0.279,-0.279,-0.279,-0.279,-0.279,-0.2792,-0.2821,-0.2845,-0.3055,-0.3438,-0.4397,-0.5401,-0.8522,-1.2956,-1.4962,-1.5242,-1.5447,-1.5348,-1.5367,-1.5341,-1.5387,-1.5957,-1.7553,-1.9379,-2.2063,-2.634,-3.0093,-3.1544,-3.1936,-3.2865,-3.3138,-3.393,-3.419,-3.419,-3.419,-3.419,-3.419,-3.419,-3.419,-3.419,-3.419,-3.4381,-3.4394,-3.4804,-3.4599,-3.4804,-3.5416,-3.6014,0.8392,0.7374,0.7602,0.6778,0.4564,0.0974,0.0369,0.2281,0.453,0.5612,0.6002,0.7585,0.8245,0.837,0.8364,0.8364,0.8364,0.9131,0.9125,0.9249,0.9888,1.0268,1.0268,1.0274,1.0545,1.1046,1.1446,1.2073,1.3002,1.3194,1.3459,1.3794,1.399,1.3749,1.2959,1.2336,1.1574,1.1688,1.1182,1.081,1.0165,0.9648,0.9131,0.8737,0.8214,0.7825,0.731,0.6568,0.5851,0.564,0.5367,0.5065,0.4541,0.4328,0.4424,0.4269,0.4574,0.29,0.1374,0.061,-0.0154,-0.1711,-0.225,-0.2467,-0.2683,-0.2741,-0.2777,-0.279,-0.279,-0.279,-0.279,-0.279,-0.2808,-0.2851,-0.2886,-0.2937,-0.3703,-0.5609,-0.702,-0.998,-1.346,-1.4639,-1.5585,-1.5625,-1.5625,-1.5625,-1.5631,-1.5756,-1.6092,-1.742,-1.8908,-2.2939,-2.7146,-2.9694,-3.138,-3.2557,-3.3501,-3.3826,-3.4021,-3.4177,-3.419,-3.419,-3.419,-3.419,-3.419,-3.419,-3.419,-3.419,-3.419,-3.4394,-3.4381,-3.4599,-3.5021,-3.543,-3.6027,0.4385,0.2953,0.4301,0.3121,0.0,-0.3192,-0.3982,-0.2718,-0.0383,0.1824,0.352,0.6938,0.8,0.6665,0.6132,0.6262,0.771,0.8234,0.8229,0.8224,0.8473,0.8608,0.8737,0.9137,0.9431,0.9982,1.0191,1.0548,1.1895,1.1829,1.1858,1.2302,1.2656,1.1937,1.1039,1.0661,1.041,1.0654,1.0017,0.9384,0.8996,0.8618,0.8359,0.8089,0.757,0.7181,0.7051,0.64,0.5837,0.5456,0.5301,0.4979,0.4452,0.3579,0.3504,0.351,0.2441,0.0916,-0.0458,-0.1224,-0.1849,-0.2195,-0.2566,-0.2633,-0.2675,-0.2743,-0.278,-0.279,-0.279,-0.279,-0.2805,-0.2812,-0.2839,-0.2883,-0.2937,-0.2989,-0.4342,-0.6289,-0.8832,-1.165,-1.3665,-1.5038,-1.5625,-1.5625,-1.5625,-1.5625,-1.5625,-1.5763,-1.6265,-1.7402,-1.9218,-2.3617,-2.6423,-2.893,-3.1416,-3.3077,-3.3956,-3.4034,-3.4112,-3.419,-3.419,-3.419,-3.419,-3.419,-3.419,-3.419,-3.419,-3.419,-3.419,-3.4177,-3.4355,-3.4355,-3.5212,-3.6041,-3.6244,0.0479,-0.1554,-0.0238,-0.2185,-0.5957,-0.6881,-0.73,-0.7144,-0.5582,-0.2856,0.1042,0.4834,0.5623,0.326,0.1042,0.3388,0.6665,0.812,0.811,0.797,0.8094,0.8094,0.8229,0.8375,0.8548,0.8703,0.8755,0.9121,0.988,1.0144,1.0579,1.1102,1.0851,1.0397,0.9378,0.9636,0.9888,0.963,0.8343,0.8214,0.8214,0.8219,0.771,0.7315,0.6925,0.6795,0.6661,0.601,0.5672,0.5243,0.4936,0.4599,0.3977,0.2974,0.2435,0.2289,0.0764,-0.0611,-0.2139,-0.2445,-0.2454,-0.248,-0.2586,-0.2635,-0.2488,-0.2548,-0.279,-0.2794,-0.2813,-0.2813,-0.2828,-0.2857,-0.2891,-0.2936,-0.2998,-0.3427,-0.517,-0.7139,-0.9869,-1.2868,-1.4451,-1.5431,-1.5431,-1.5625,-1.5625,-1.5664,-1.5644,-1.6045,-1.6799,-1.8183,-2.0039,-2.2904,-2.4119,-2.7679,-3.229,-3.3548,-3.419,-3.419,-3.419,-3.419,-3.419,-3.419,-3.419,-3.419,-3.419,-3.419,-3.419,-3.419,-3.419,-3.4177,-3.4151,-3.4764,-3.5824,-3.6665,-3.6854,-0.3303,-0.3818,-0.4161,-0.6194,-0.9059,-0.9639,-0.994,-0.9724,-0.8856,-0.6259,-0.2475,-0.1433,-0.1434,-0.2871,-0.3783,-0.013,0.6017,0.7995,0.7854,0.7715,0.7715,0.8245,0.8245,0.7995,0.7758,0.7894,0.7869,0.7944,0.8676,0.8585,0.8951,0.9104,0.87,0.8359,0.7959,0.8478,0.8608,0.8343,0.7695,0.7565,0.7565,0.7695,0.731,0.6929,0.6799,0.6535,0.614,0.5883,0.5392,0.4634,0.401,0.3543,0.284,0.2067,0.1214,0.0153,-0.0611,-0.0764,-0.1986,-0.2603,-0.2617,-0.2508,-0.2608,-0.2661,-0.2692,-0.2743,-0.2788,-0.2796,-0.2871,-0.2916,-0.2922,-0.2936,-0.2961,-0.2992,-0.3054,-0.3658,-0.5421,-0.7185,-1.0328,-1.2889,-1.4258,-1.5238,-1.5238,-1.5625,-1.5717,-1.5888,-1.5901,-1.6272,-1.7018,-1.8208,-2.025,-2.1455,-2.3283,-2.8524,-3.3125,-3.3754,-3.419,-3.419,-3.419,-3.419,-3.419,-3.419,-3.419,-3.419,-3.419,-3.419,-3.4394,-3.4381,-3.4381,-3.4241,-3.4599,-3.5021,-3.6068,-3.6938,-3.7315,-0.6031,-0.6473,-0.7703,-0.9333,-1.0935,-1.1406,-1.1543,-1.1299,-1.0647,-0.8848,-0.6773,-0.5868,-0.588,-0.6413,-0.6282,-0.2479,0.4448,0.6543,0.6673,0.6539,0.6404,0.6669,0.6669,0.6413,0.6842,0.7563,0.7497,0.7558,0.7709,0.7944,0.7836,0.7026,0.6572,0.6274,0.6262,0.6522,0.6916,0.6916,0.6786,0.6786,0.6786,0.6921,0.6791,0.6539,0.6535,0.627,0.5616,0.5485,0.444,0.3137,0.2093,0.1624,0.0989,0.0446,-0.0608,-0.1833,-0.1527,-0.168,-0.2445,-0.2492,-0.2516,-0.2569,-0.2637,-0.2711,-0.2739,-0.2767,-0.2786,-0.2843,-0.2931,-0.3028,-0.3033,-0.3033,-0.3033,-0.3062,-0.3281,-0.3883,-0.5069,-0.6832,-0.9191,-1.0743,-1.2496,-1.4651,-1.5238,-1.5431,-1.5855,-1.6093,-1.6178,-1.6505,-1.6852,-1.7829,-1.9469,-2.0681,-2.5594,-3.0855,-3.2932,-3.3561,-3.419,-3.419,-3.419,-3.419,-3.419,-3.419,-3.419,-3.419,-3.419,-3.419,-3.4394,-3.4586,-3.4836,-3.523,-3.5593,-3.5712,-3.6409,-3.7239,-3.7358,-0.8215,-0.9718,-1.1002,-1.1867,-1.236,-1.2532,-1.2783,-1.2757,-1.1644,-1.1039,-1.0288,-0.8878,-0.7705,-0.7589,-0.7338,-0.497,0.0,0.3923,0.379,0.3392,0.365,0.3785,0.4307,0.4715,0.5672,0.6833,0.6617,0.6498,0.6833,0.6191,0.5633,0.4831,0.4445,0.457,0.4567,0.4697,0.4958,0.5482,0.5221,0.5221,0.5876,0.6274,0.6274,0.6274,0.601,0.5485,0.4434,0.3933,0.3026,0.1581,-0.0133,-0.1091,-0.0574,-0.1197,-0.1675,-0.2445,-0.2139,-0.2308,-0.2492,-0.2549,-0.2592,-0.2609,-0.2647,-0.2708,-0.2765,-0.2786,-0.279,-0.2809,-0.299,-0.3098,-0.3127,-0.3139,-0.3114,-0.312,-0.3312,-0.3913,-0.5281,-0.6852,-0.8021,-0.8992,-1.0938,-1.3477,-1.4651,-1.5431,-1.5809,-1.6066,-1.6372,-1.6416,-1.6778,-1.8116,-1.9544,-2.1758,-2.7282,-3.0452,-3.2302,-3.3561,-3.3972,-3.419,-3.419,-3.419,-3.419,-3.419,-3.419,-3.419,-3.419,-3.419,-3.419,-3.4665,-3.5134,-3.5821,-3.6734,-3.7235,-3.7872,-3.7853,-3.7831,-1.2023,-1.3824,-1.4437,-1.4841,-1.5231,-1.5274,-1.517,-1.4765,-1.3692,-1.2839,-1.1944,-1.0911,-0.9894,-0.9143,-0.798,-0.6274,-0.2869,0.0131,-0.0783,-0.1437,-0.0915,0.0784,0.1567,0.3921,0.4727,0.4221,0.3931,0.3678,0.3422,0.3147,0.2744,0.1827,0.2224,0.2483,0.2742,0.2873,0.3139,0.3793,0.3405,0.3669,0.4715,0.5633,0.6144,0.5891,0.5355,0.4567,0.4056,0.2789,0.148,0.0135,-0.1508,-0.2271,-0.1772,-0.2117,-0.2441,-0.2597,-0.2609,-0.2484,-0.2556,-0.2608,-0.2658,-0.2683,-0.2711,-0.27,-0.2772,-0.279,-0.2793,-0.2821,-0.3022,-0.3116,-0.3143,-0.3143,-0.3143,-0.3143,-0.3143,-0.4317,-0.5488,-0.7051,-0.8414,-0.8996,-1.0164,-1.2701,-1.4457,-1.5238,-1.577,-1.6027,-1.629,-1.6548,-1.767,-1.9243,-2.0437,-2.1791,-2.6043,-2.8568,-3.1062,-3.3356,-3.3972,-3.419,-3.419,-3.419,-3.419,-3.419,-3.419,-3.419,-3.419,-3.419,-3.3767,-3.4512,-3.5108,-3.6546,-3.7792,-3.8421,-3.8645,-3.8485,-3.8187,-1.6245,-1.6665,-1.6685,-1.7004,-1.7441,-1.7769,-1.7468,-1.6717,-1.5763,-1.4484,-1.3214,-1.2312,-1.1431,-1.043,-0.9673,-0.7964,-0.5872,-0.3653,-0.4046,-0.4437,-0.3527,-0.2352,-0.1568,0.0261,0.1566,0.0262,0.0,-0.013,-0.0522,-0.0784,-0.0527,-0.0662,-0.0264,0.0394,0.0933,0.0921,0.1448,0.1856,0.2129,0.2406,0.3485,0.504,0.5683,0.4325,0.406,0.3253,0.2312,0.0688,-0.0,-0.1115,-0.1871,-0.2528,-0.2578,-0.2597,-0.2597,-0.2599,-0.2625,-0.254,-0.263,-0.2674,-0.2722,-0.2753,-0.2743,-0.2718,-0.2765,-0.2797,-0.2817,-0.2924,-0.3071,-0.3132,-0.3143,-0.3143,-0.3143,-0.3339,-0.3926,-0.4513,-0.4903,-0.6855,-0.8223,-0.8613,-0.9389,-1.1924,-1.387,-1.4863,-1.575,-1.6014,-1.6284,-1.6548,-1.767,-1.9054,-2.0484,-2.2037,-2.4569,-2.7313,-3.0233,-3.2945,-3.3561,-3.3779,-3.3779,-3.3985,-3.3985,-3.419,-3.419,-3.419,-3.4177,-3.3767,-3.3561,-3.4268,-3.5414,-3.7095,-3.8821,-3.9036,-3.9209,-3.9013,-3.8546,-2.0604,-1.8655,-1.8466,-1.8734,-1.9332,-1.9735,-1.9573,-1.8814,-1.7721,-1.6231,-1.4864,-1.3587,-1.2831,-1.2087,-1.1747,-1.032,-0.8618,-0.6921,-0.64,-0.6128,-0.5746,-0.5616,-0.5482,-0.4958,-0.3785,-0.3133,-0.3923,-0.4712,-0.4182,-0.3394,-0.3039,-0.2539,-0.1984,-0.1723,-0.0809,-0.0666,-0.0267,0.0408,0.082,0.1109,0.169,0.3941,0.3949,0.2919,0.2389,0.1965,0.0561,-0.0283,-0.0995,-0.2147,-0.2382,-0.2587,-0.2597,-0.2597,-0.2597,-0.262,-0.2521,-0.2601,-0.2683,-0.2737,-0.2784,-0.2781,-0.278,-0.2788,-0.279,-0.2801,-0.2883,-0.3112,-0.3142,-0.3143,-0.3143,-0.3143,-0.3143,-0.3536,-0.3926,-0.3926,-0.4123,-0.5684,-0.7445,-0.8031,-0.8418,-1.0757,-1.387,-1.4882,-1.573,-1.6,-1.6277,-1.6548,-1.7039,-1.779,-1.9067,-2.1399,-2.3935,-2.6883,-3.0014,-3.2314,-3.315,-3.3369,-3.3369,-3.3369,-3.3574,-3.3767,-3.3972,-3.3972,-3.3767,-3.3561,-3.315,-3.3982,-3.5874,-3.7367,-3.8817,-3.9215,-3.9447,-3.9518,-3.9495,-2.4268,-2.1006,-2.0547,-2.098,-2.1606,-2.1345,-2.1163,-2.1023,-1.985,-1.885,-1.823,-1.6733,-1.536,-1.4231,-1.3103,-1.1446,-0.9243,-0.9555,-0.8765,-0.8094,-0.8104,-0.8375,-0.824,-0.7715,-0.6665,-0.5749,-0.6278,-0.6417,-0.5749,-0.4828,-0.3931,-0.3433,-0.2766,-0.2254,-0.2169,-0.1893,-0.1928,-0.1674,-0.1548,-0.1586,-0.0882,0.1147,0.2382,0.1977,0.099,0.0426,-0.0428,-0.1158,-0.2044,-0.2211,-0.24,-0.2597,-0.2597,-0.2597,-0.2597,-0.2616,-0.2549,-0.2655,-0.2735,-0.2789,-0.279,-0.279,-0.279,-0.279,-0.279,-0.2812,-0.2882,-0.3082,-0.3143,-0.3143,-0.3143,-0.3143,-0.3143,-0.3339,-0.3534,-0.373,-0.4121,-0.5295,-0.7057,-0.8031,-0.7839,-1.0173,-1.3482,-1.507,-1.5464,-1.5901,-1.5985,-1.6258,-1.7092,-1.7464,-1.8424,-2.0965,-2.3301,-2.6464,-2.9182,-3.1476,-3.2326,-3.2545,-3.2751,-3.2957,-3.2945,-3.315,-3.3561,-3.3767,-3.3561,-3.2932,-3.2726,-3.3157,-3.5165,-3.6978,-3.861,-3.9505,-3.9616,-3.9559,-3.9989,-2.6633,-2.3903,-2.3256,-2.3618,-2.4244,-2.3456,-2.2993,-2.2762,-2.1456,-2.0342,-1.9344,-1.849,-1.7244,-1.599,-1.4728,-1.3078,-1.116,-1.0552,-1.0165,-1.0307,-1.0055,-0.9802,-0.9525,-0.8878,-0.8089,-0.757,-0.7575,-0.744,-0.7042,-0.6125,-0.5527,-0.4757,-0.3938,-0.347,-0.3292,-0.2883,-0.2368,-0.2294,-0.2313,-0.2354,-0.2119,-0.1195,-0.0294,-0.0294,-0.0883,-0.1323,-0.1473,-0.2238,-0.2397,-0.2404,-0.2427,-0.2593,-0.2597,-0.2597,-0.2597,-0.2617,-0.2553,-0.2669,-0.2592,-0.279,-0.279,-0.279,-0.279,-0.279,-0.279,-0.2802,-0.2858,-0.3,-0.3066,-0.3143,-0.3143,-0.3926,-0.3732,-0.3536,-0.4709,-0.4905,-0.5101,-0.6668,-0.8422,-1.0173,-0.9978,-1.1341,-1.4064,-1.5038,-1.5431,-1.5614,-1.5887,-1.6505,-1.7317,-1.774,-1.8196,-2.0326,-2.2266,-2.5422,-2.8359,-3.0452,-3.1719,-3.1926,-3.2132,-3.2326,-3.2533,-3.2945,-3.315,-3.315,-3.2739,-3.212,-3.1986,-3.2462,-3.4572,-3.6602,-3.774,-3.8582,-3.9239,-3.9921,-4.0281,-2.8988,-2.6818,-2.5878,-2.613,-2.6804,-2.588,-2.505,-2.4321,-2.3379,-2.1822,-2.0574,-1.985,-1.8986,-1.7619,-1.6482,-1.5253,-1.3867,-1.1538,-1.089,-1.1831,-1.1453,-1.081,-1.0545,-0.99,-0.9378,-0.8979,-0.9108,-0.8855,-0.8208,-0.769,-0.6969,-0.6534,-0.5534,-0.4938,-0.4396,-0.3614,-0.2954,-0.2766,-0.2511,-0.2389,-0.2586,-0.2126,-0.2122,-0.2122,-0.2119,-0.2276,-0.2435,-0.2441,-0.2597,-0.2597,-0.2597,-0.2749,-0.3357,-0.3967,-0.4272,-0.3995,-0.3318,-0.2638,-0.2761,-0.2963,-0.3139,-0.279,-0.279,-0.279,-0.279,-0.2797,-0.3003,-0.3094,-0.3184,-0.3483,-0.3132,-0.3926,-0.4123,-0.4319,-0.5297,-0.647,-0.6274,-0.7839,-1.0182,-1.154,-1.2123,-1.3094,-1.4264,-1.5431,-1.5529,-1.554,-1.5933,-1.6492,-1.7407,-1.8032,-1.8589,-1.9914,-2.1431,-2.4165,-2.7114,-2.8787,-3.0671,-3.1098,-3.1719,-3.1913,-3.2132,-3.2545,-3.2545,-3.2132,-3.1719,-3.1512,-3.1787,-3.2146,-3.3768,-3.6035,-3.6762,-3.7592,-3.8002,-3.8636,-3.9375,-3.2244,-3.0033,-2.772,-2.7605,-2.8619,-2.7656,-2.7147,-2.6914,-2.6246,-2.4931,-2.3963,-2.2386,-2.1063,-1.9739,-1.7868,-1.773,-1.6871,-1.4385,-1.2297,-1.3103,-1.2592,-1.2336,-1.1959,-1.1439,-1.1175,-1.1303,-1.1168,-1.0139,-0.9249,-0.8613,-0.8245,-0.7338,-0.6652,-0.6385,-0.5875,-0.4863,-0.3991,-0.367,-0.3144,-0.2737,-0.29,-0.2749,-0.2749,-0.2749,-0.2749,-0.2901,-0.2901,-0.275,-0.2597,-0.2597,-0.2597,-0.3662,-0.5332,-0.7158,-0.8683,-0.8389,-0.4974,-0.3585,-0.361,-0.4181,-0.4357,-0.279,-0.279,-0.279,-0.2965,-0.3318,-0.3332,-0.3539,-0.3756,-0.4239,-0.3311,-0.3926,-0.4121,-0.4315,-0.5101,-0.5882,-0.6467,-0.8425,-1.0766,-1.2123,-1.2706,-1.3488,-1.4657,-1.5638,-1.545,-1.5636,-1.5952,-1.6552,-1.7594,-1.8609,-1.92,-2.0357,-2.0997,-2.3106,-2.4789,-2.6464,-2.9204,-3.0048,-3.1098,-3.1305,-3.1731,-3.1719,-3.1707,-3.1098,-3.1098,-3.1098,-3.1263,-3.1854,-3.3152,-3.5114,-3.6261,-3.6702,-3.7141,-3.7592,-3.754,-3.5353,-3.297,-3.1023,-3.0916,-3.1607,-2.9841,-2.8971,-2.8761,-2.7628,-2.6481,-2.5523,-2.4083,-2.2762,-2.1686,-2.0109,-1.9306,-1.9118,-1.6786,-1.5117,-1.4367,-1.374,-1.3485,-1.3239,-1.3239,-1.2983,-1.26,-1.2584,-1.1695,-1.0667,-1.0288,-0.9765,-0.9119,-0.8338,-0.7802,-0.7332,-0.627,-0.5436,-0.4986,-0.4216,-0.4272,-0.4729,-0.4272,-0.3814,-0.3814,-0.4117,-0.4419,-0.4269,-0.3812,-0.3812,-0.4571,-0.5636,-0.7006,-0.8068,-0.9138,-0.9602,-0.9712,-0.7604,-0.6727,-0.5145,-0.5396,-0.5575,-0.5048,-0.4529,-0.4355,-0.4357,-0.3836,-0.3678,-0.4054,-0.4066,-0.3967,-0.3301,-0.4121,-0.4707,-0.4901,-0.5877,-0.7243,-0.7829,-0.9982,-1.2134,-1.2906,-1.31,-1.4076,-1.4851,-1.5431,-1.5601,-1.5867,-1.6192,-1.6679,-1.7941,-1.9076,-1.9869,-2.0357,-2.057,-2.1415,-2.2886,-2.5211,-2.7951,-2.9204,-3.0464,-3.1098,-3.1317,-3.1098,-3.0879,-3.0879,-3.1098,-3.0879,-3.1031,-3.1852,-3.2834,-3.4381,-3.5354,-3.5796,-3.6236,-3.6475,-3.6438,-3.7741,-3.5613,-3.4083,-3.3998,-3.4297,-3.1978,-3.1001,-3.1001,-2.9085,-2.8072,-2.703,-2.5523,-2.4202,-2.3124,-2.1714,-2.1034,-2.0731,-1.9158,-1.7754,-1.6136,-1.5243,-1.5,-1.537,-1.5389,-1.5146,-1.4249,-1.3613,-1.2847,-1.1959,-1.1574,-1.1324,-1.0674,-0.9778,-0.9218,-0.8623,-0.7621,-0.7,-0.6557,-0.6006,-0.6237,-0.6703,-0.5639,-0.4881,-0.5335,-0.5788,-0.6088,-0.6085,-0.5329,-0.5484,-0.7003,-0.8674,-0.9446,-0.9446,-0.9602,-0.9754,-0.9753,-1.0157,-0.961,-0.7638,-0.6612,-0.6612,-0.6782,-0.6091,-0.592,-0.5749,-0.5053,-0.5094,-0.4604,-0.4406,-0.4328,-0.384,-0.5858,-0.6073,-0.5684,-0.7051,-0.861,-0.9393,-1.154,-1.3105,-1.3882,-1.4076,-1.4469,-1.5438,-1.5431,-1.5789,-1.6272,-1.6747,-1.7038,-1.8171,-1.9544,-2.0082,-2.057,-2.0784,-2.121,-2.2894,-2.5,-2.6893,-2.8161,-2.9829,-3.1086,-3.1098,-3.0879,-3.0879,-3.0879,-3.0879,-3.0902,-3.0914,-3.1676,-3.2685,-3.359,-3.4672,-3.5127,-3.5581,-3.5581,-3.5796,-3.8859,-3.7318,-3.5425,-3.532,-3.5905,-3.4319,-3.3545,-3.3545,-3.1888,-3.0461,-2.9199,-2.728,-2.5625,-2.4067,-2.2791,-2.2054,-2.2138,-2.0516,-1.9209,-1.8331,-1.7732,-1.7754,-1.823,-1.7891,-1.7015,-1.601,-1.4883,-1.3986,-1.2975,-1.2472,-1.1959,-1.1446,-1.1317,-1.0701,-0.992,-0.924,-0.8604,-0.8308,-0.8171,-0.8348,-0.7605,-0.6547,-0.6095,-0.6699,-0.7003,-0.7154,-0.715,-0.6847,-0.7458,-0.9727,-1.0348,-1.0359,-0.9754,-0.9754,-0.9754,-0.9875,-1.0261,-0.9745,-0.7759,-0.8334,-0.8503,-0.7652,-0.7479,-0.6962,-0.6441,-0.6965,-0.6804,-0.5442,-0.663,-0.6276,-0.5456,-0.5428,-0.587,-0.6274,-0.7836,-0.9397,-1.0177,-1.2323,-1.3876,-1.4064,-1.4851,-1.5238,-1.5625,-1.5658,-1.5971,-1.6558,-1.6532,-1.7099,-1.8334,-1.9391,-2.0097,-2.057,-2.0997,-2.0997,-2.2894,-2.5,-2.6474,-2.7941,-3.0037,-3.0452,-3.0452,-3.0452,-3.0671,-3.0879,-3.0879,-3.089,-3.0973,-3.1723,-3.2756,-3.3708,-3.4612,-3.4923,-3.5378,-3.5581,-3.6274,-4.1312,-3.8809,-3.826,-3.7934,-3.7553,-3.6298,-3.5568,-3.4958,-3.3459,-3.2039,-3.0778,-2.8971,-2.7263,-2.5641,-2.4217,-2.3453,-2.3028,-2.1741,-2.0954,-2.0316,-1.9603,-1.948,-1.9603,-1.948,-1.8501,-1.7141,-1.6513,-1.5253,-1.3867,-1.3366,-1.2855,-1.2216,-1.2216,-1.2072,-1.1596,-1.1769,-1.1539,-1.0944,-1.1954,-1.1373,-0.9576,-0.8674,-0.8679,-0.8977,-0.8977,-0.8977,-0.9274,-0.8513,-0.8967,-1.0488,-1.0952,-1.0813,-1.0354,-0.9905,-0.9754,-0.9775,-1.0656,-1.0631,-0.98,-1.0307,-1.0478,-1.0229,-0.9393,-0.9043,-0.8869,-0.8354,-0.8354,-0.7139,-0.6795,-0.6934,-0.6998,-0.7469,-0.7423,-0.7246,-0.8812,-1.0762,-1.1924,-1.3482,-1.4463,-1.5044,-1.5625,-1.6211,-1.639,-1.5818,-1.6275,-1.682,-1.6559,-1.7353,-1.844,-1.9193,-1.9922,-2.0562,-2.0997,-2.1636,-2.3106,-2.5632,-2.7533,-2.8996,-3.0452,-2.9598,-2.9598,-2.939,-3.0037,-3.089,-3.089,-3.0961,-3.1231,-3.1735,-3.2768,-3.3755,-3.4492,-3.5151,-3.5581,-3.6022,-3.6953,-4.3112,-4.0352,-4.0641,-4.0037,-3.8958,-3.7934,-3.7224,-3.6321,-3.4577,-3.3154,-3.1928,-3.0236,-2.8321,-2.6598,-2.5539,-2.4487,-2.3574,-2.2713,-2.2471,-2.2214,-2.1456,-2.1076,-2.0941,-2.071,-1.9862,-1.8637,-1.7891,-1.6764,-1.501,-1.4512,-1.3749,-1.2864,-1.2983,-1.2975,-1.3211,-1.3555,-1.3612,-1.3306,-1.475,-1.4375,-1.2294,-1.1404,-1.1103,-1.1404,-1.1548,-1.1398,-1.0946,-1.0331,-1.0783,-1.2287,-1.2294,-1.1849,-1.0958,-1.0057,-0.9754,-0.9964,-1.0926,-1.1534,-1.1342,-1.1521,-1.1886,-1.223,-1.1429,-1.1128,-1.1122,-1.0254,-0.9908,-0.9216,-0.7837,-0.7065,-0.8368,-0.8775,-0.8406,-0.7936,-0.9366,-1.1341,-1.2889,-1.4264,-1.5051,-1.5631,-1.6204,-1.6976,-1.7161,-1.6804,-1.6396,-1.7013,-1.7032,-1.6826,-1.8292,-1.9149,-1.9708,-2.0357,-2.0997,-2.1841,-2.3327,-2.6274,-2.837,-2.9621,-2.8974,-2.8118,-2.8128,-2.8776,-3.0071,-3.089,-3.089,-3.0879,-3.1219,-3.1759,-3.2768,-3.3788,-3.442,-3.5151,-3.5808,-3.6249,-3.6953,-4.3526,-4.1631,-4.1564,-4.1066,-4.023,-3.9328,-3.856,-3.7702,-3.5741,-3.4234,-3.2895,-3.106,-2.8798,-2.6948,-2.6145,-2.5082,-2.3799,-2.3694,-2.3559,-2.3559,-2.3544,-2.3529,-2.3288,-2.2321,-2.147,-2.0613,-1.901,-1.7902,-1.7026,-1.5768,-1.4521,-1.3995,-1.3749,-1.3366,-1.3485,-1.3816,-1.4432,-1.4387,-1.5279,-1.5811,-1.512,-1.2744,-1.1705,-1.3194,-1.3763,-1.3457,-1.2137,-1.215,-1.3194,-1.512,-1.4971,-1.3636,-1.1404,-1.0202,-0.99,-1.0073,-1.1123,-1.1717,-1.1597,-1.1773,-1.1943,-1.2355,-1.2548,-1.2514,-1.1635,-1.2152,-1.2152,-1.0599,-0.9047,-0.8308,-0.8691,-0.8735,-0.841,-0.7952,-0.9459,-1.1109,-1.3072,-1.4645,-1.5238,-1.5625,-1.639,-1.7347,-1.8323,-1.7532,-1.7321,-1.7477,-1.7073,-1.7291,-1.8256,-1.9119,-1.9678,-2.0143,-2.0784,-2.1423,-2.1841,-2.4789,-2.7522,-2.793,-2.6234,-2.6024,-2.6244,-2.8424,-3.0382,-3.0718,-3.0879,-3.0879,-3.1149,-3.1888,-3.2779,-3.3624,-3.442,-3.5127,-3.5581,-3.6035,-3.6714,-4.4756,-4.3284,-4.3194,-4.2585,-4.159,-4.1281,-4.0449,-3.9181,-3.7553,-3.5673,-3.3675,-3.2189,-3.0294,-2.8126,-2.7099,-2.6044,-2.4979,-2.4414,-2.4876,-2.569,-2.5453,-2.5098,-2.4963,-2.3769,-2.2578,-2.1348,-2.049,-1.9628,-1.8389,-1.7266,-1.6398,-1.601,-1.5379,-1.5,-1.493,-1.5702,-1.5747,-1.5422,-1.641,-1.6672,-1.5751,-1.4524,-1.4226,-1.4782,-1.5278,-1.5003,-1.4359,-1.483,-1.5434,-1.5566,-1.4987,-1.4092,-1.2601,-1.1712,-1.1259,-1.1435,-1.1997,-1.2267,-1.1924,-1.2461,-1.2891,-1.2899,-1.3184,-1.2846,-1.2324,-1.3018,-1.2324,-1.0086,-0.87,-0.8409,-0.8588,-0.8766,-0.8969,-0.881,-0.9855,-1.0757,-1.2093,-1.4264,-1.5431,-1.6011,-1.6976,-1.8131,-1.8323,-1.7739,-1.7285,-1.7603,-1.7395,-1.749,-1.8387,-1.8864,-1.9633,-2.0357,-2.0784,-2.0997,-2.1202,-2.3521,-2.6464,-2.5403,-2.3715,-2.4147,-2.4789,-2.7196,-2.9778,-3.0117,-3.089,-3.089,-3.1055,-3.1852,-3.2779,-3.3566,-3.4444,-3.4911,-3.5366,-3.5808,-3.6249,-4.6003,-4.4755,-4.4755,-4.4026,-4.2795,-4.2547,-4.1496,-3.994,-3.8536,-3.6585,-3.4319,-3.3087,-3.1323,-2.9255,-2.8028,-2.7116,-2.6313,-2.5706,-2.5943,-2.6883,-2.6514,-2.6279,-2.6028,-2.5082,-2.3904,-2.2806,-2.1957,-2.0858,-1.9616,-1.8637,-1.814,-1.7891,-1.713,-1.6639,-1.666,-1.6974,-1.6954,-1.6316,-1.7268,-1.7465,-1.6603,-1.6615,-1.6532,-1.625,-1.6483,-1.6655,-1.6496,-1.7098,-1.7164,-1.6716,-1.5663,-1.4846,-1.4391,-1.3351,-1.2765,-1.2908,-1.3058,-1.2622,-1.2401,-1.293,-1.3255,-1.3113,-1.3335,-1.3046,-1.2554,-1.262,-1.164,-0.9566,-0.8527,-0.8354,-0.8425,-0.8814,-0.9304,-1.0281,-1.0804,-1.1597,-1.294,-1.4601,-1.5811,-1.6597,-1.7754,-1.8523,-1.8516,-1.7731,-1.7234,-1.7466,-1.7269,-1.7373,-1.8251,-1.8784,-1.9487,-2.057,-2.0784,-2.0784,-2.0997,-2.2257,-2.3733,-2.2886,-2.247,-2.247,-2.3336,-2.5288,-2.7848,-2.9304,-3.0291,-3.0753,-3.1137,-3.1794,-3.285,-3.3838,-3.4361,-3.4684,-3.4911,-3.5354,-3.5796,-4.7048,-4.5948,-4.6145,-4.5186,-4.3787,-4.3014,-4.1725,-4.0134,-3.856,-3.6996,-3.5147,-3.3501,-3.1858,-3.0011,-2.9045,-2.8081,-2.7553,-2.7367,-2.7466,-2.7448,-2.7332,-2.7216,-2.7216,-2.6263,-2.5674,-2.5319,-2.3168,-2.1727,-2.0994,-1.9986,-1.948,-1.9233,-1.8501,-1.814,-1.8027,-1.7575,-1.7335,-1.733,-1.7457,-1.7717,-1.7873,-1.8375,-1.8015,-1.7196,-1.7706,-1.807,-1.7705,-1.8247,-1.8485,-1.8375,-1.767,-1.7324,-1.6523,-1.4814,-1.3793,-1.4249,-1.3508,-1.3194,-1.323,-1.3056,-1.2944,-1.273,-1.3152,-1.2975,-1.2193,-1.1639,-1.0903,-1.0076,-0.9047,-0.8354,-0.8358,-0.8608,-0.9563,-1.1655,-1.2342,-1.3168,-1.4494,-1.5658,-1.6776,-1.7939,-1.8523,-1.8715,-1.8516,-1.7931,-1.7354,-1.7112,-1.6895,-1.7086,-1.8036,-1.8661,-1.9428,-2.0349,-2.0784,-2.0784,-2.0784,-2.0784,-2.0997,-2.121,-2.121,-2.1423,-2.2291,-2.3159,-2.5922,-2.7396,-2.8182,-2.9435,-2.9801,-3.1732,-3.2757,-3.3671,-3.3788,-3.4216,-3.4672,-3.5127,-3.5557,-4.8033,-4.7078,-4.667,-4.5809,-4.4783,-4.4114,-4.3131,-4.1778,-4.0083,-3.8263,-3.6435,-3.4639,-3.3025,-3.1465,-3.0162,-2.9538,-2.969,-2.969,-2.9557,-2.9424,-2.8719,-2.8259,-2.8028,-2.7216,-2.6514,-2.5792,-2.4694,-2.3514,-2.2335,-2.1225,-2.0858,-2.1103,-2.0096,-1.9714,-1.9505,-1.854,-1.8194,-1.8019,-1.7306,-1.7309,-1.778,-1.7612,-1.7354,-1.7578,-1.778,-1.7944,-1.7905,-1.8337,-1.857,-1.8443,-1.7705,-1.7496,-1.8138,-1.7168,-1.6011,-1.4838,-1.4987,-1.4689,-1.368,-1.3342,-1.3201,-1.2761,-1.2941,-1.2936,-1.2104,-1.1037,-1.0495,-1.0195,-0.9225,-0.8354,-0.8527,-0.9566,-1.0869,-1.2155,-1.2845,-1.3262,-1.4012,-1.5282,-1.6373,-1.7295,-1.8124,-1.8715,-1.8708,-1.8323,-1.7739,-1.7161,-1.6926,-1.7096,-1.8118,-1.8494,-1.922,-2.0508,-2.0768,-2.0784,-2.057,-2.0784,-2.0997,-2.0997,-2.0997,-2.0997,-2.1431,-2.2087,-2.3584,-2.4625,-2.6083,-2.7334,-2.9203,-3.1315,-3.2769,-3.3776,-3.3976,-3.3976,-3.4444,-3.4899,-3.5127,-4.9113,-4.8763,-4.8039,-4.6805,-4.55,-4.4668,-4.3726,-4.2455,-4.0711,-3.9008,-3.7278,-3.5568,-3.3955,-3.2682,-3.1998,-3.1788,-3.1868,-3.1605,-3.1231,-3.0875,-2.9974,-2.9406,-2.9045,-2.8144,-2.7315,-2.6715,-2.5759,-2.459,-2.3197,-2.2592,-2.2457,-2.2457,-2.1822,-2.1185,-2.0941,-1.9973,-1.9154,-1.8797,-1.8312,-1.7816,-1.7529,-1.6859,-1.7306,-1.8633,-1.8256,-1.8008,-1.8042,-1.8115,-1.8089,-1.8212,-1.7821,-1.7894,-1.8593,-1.8378,-1.7827,-1.7239,-1.6771,-1.5733,-1.3793,-1.3987,-1.3801,-1.2909,-1.2855,-1.2627,-1.1783,-1.1464,-1.0917,-0.9903,-0.9004,-0.9047,-0.9735,-1.1117,-1.24,-1.3084,-1.3554,-1.3767,-1.4251,-1.545,-1.6387,-1.6732,-1.7863,-1.87,-1.8523,-1.8331,-1.7739,-1.7183,-1.6856,-1.7129,-1.798,-1.8548,-1.9087,-2.0133,-2.0697,-2.0562,-2.0136,-2.0349,-2.0784,-2.0784,-2.0784,-2.0784,-2.0784,-2.1439,-2.1652,-2.2912,-2.4395,-2.5853,-2.7564,-2.9619,-3.2338,-3.3331,-3.3976,-3.3988,-3.3988,-3.4216,-3.4684,-5.008,-5.0801,-4.994,-4.7979,-4.5809,-4.4639,-4.3519,-4.2363,-4.0449,-3.9107,-3.8006,-3.6113,-3.4657,-3.3654,-3.4254,-3.445,-3.3692,-3.2801,-3.2169,-3.1838,-3.1007,-3.0332,-2.9955,-2.9063,-2.8605,-2.8126,-2.6464,-2.4947,-2.3799,-2.3799,-2.3919,-2.3919,-2.3318,-2.282,-2.2321,-2.147,-2.038,-1.9554,-1.9998,-1.9393,-1.756,-1.708,-1.8027,-1.9925,-1.9257,-1.8685,-1.8482,-1.7865,-1.7586,-1.7825,-1.8238,-1.8526,-1.8461,-1.8505,-1.9461,-2.0841,-1.8868,-1.6225,-1.4187,-1.4548,-1.4564,-1.3251,-1.2881,-1.2261,-1.1723,-1.2327,-1.1939,-0.9774,-0.9295,-0.9894,-1.1939,-1.2987,-1.3725,-1.393,-1.4478,-1.4633,-1.453,-1.6095,-1.6924,-1.6654,-1.7613,-1.8383,-1.8692,-1.7739,-1.7154,-1.6819,-1.6248,-1.6457,-1.7755,-1.8161,-1.8695,-1.9483,-2.0078,-2.009,-1.9038,-1.9892,-2.0555,-2.0784,-2.0784,-2.0784,-2.0784,-2.0784,-2.0784,-2.1415,-2.3115,-2.4799,-2.6053,-2.8122,-3.0769,-3.312,-3.3835,-3.3988,-3.3988,-3.3988,-3.4216,-5.0252,-5.0578,-4.9345,-4.764,-4.578,-4.4841,-4.3993,-4.3032,-4.0832,-3.9672,-3.9008,-3.709,-3.5927,-3.544,-3.5102,-3.4852,-3.4385,-3.3568,-3.3115,-3.3133,-3.2189,-3.1545,-3.1152,-3.0049,-2.9292,-2.849,-2.7315,-2.638,-2.5792,-2.52,-2.4844,-2.4637,-2.4294,-2.4039,-2.3799,-2.2578,-2.1835,-2.147,-2.1212,-2.06,-1.9727,-1.9862,-2.0109,-2.0329,-2.0355,-2.0109,-1.9837,-1.9255,-1.8952,-1.8952,-1.8877,-1.8715,-1.8447,-1.8922,-1.9843,-2.1151,-1.9733,-1.7972,-1.6151,-1.5723,-1.5128,-1.4249,-1.3567,-1.2959,-1.2506,-1.2916,-1.2711,-1.1512,-1.2013,-1.2377,-1.3127,-1.3582,-1.4214,-1.4749,-1.464,-1.498,-1.5176,-1.5687,-1.6547,-1.6932,-1.7132,-1.7379,-1.82,-1.7769,-1.6997,-1.6769,-1.5691,-1.5014,-1.6238,-1.6198,-1.6271,-1.749,-1.7822,-1.8079,-1.8697,-1.9755,-2.0555,-2.0784,-2.0784,-2.0784,-2.0784,-2.0784,-2.0784,-2.0997,-2.2903,-2.4386,-2.5211,-2.6162,-2.8333,-3.2074,-3.3988,-3.3988,-3.3988,-3.3988,-3.3988,-5.0956,-5.1438,-4.9561,-4.7737,-4.5948,-4.4841,-4.3965,-4.3005,-4.0928,-3.9893,-3.9304,-3.7523,-3.6621,-3.6598,-3.6309,-3.595,-3.5636,-3.4613,-3.4295,-3.4319,-3.3393,-3.252,-3.1948,-3.106,-3.0181,-2.9292,-2.8259,-2.7565,-2.7198,-2.6481,-2.6028,-2.5825,-2.5588,-2.5351,-2.4995,-2.4024,-2.3182,-2.2699,-2.2578,-2.267,-2.2762,-2.267,-2.2564,-2.2414,-2.1835,-2.147,-2.1321,-2.0574,-2.0206,-2.0451,-1.9862,-1.9875,-2.038,-1.9764,-1.96,-2.0191,-1.9396,-1.847,-1.7453,-1.6456,-1.5714,-1.5136,-1.4084,-1.3266,-1.2986,-1.3301,-1.3459,-1.3302,-1.3782,-1.4262,-1.4446,-1.4384,-1.4742,-1.5435,-1.5606,-1.5508,-1.5539,-1.6021,-1.6399,-1.6955,-1.7061,-1.7412,-1.7867,-1.7787,-1.6983,-1.6004,-1.4838,-1.3923,-1.445,-1.4595,-1.5195,-1.6035,-1.5509,-1.5951,-1.7885,-1.971,-2.0531,-2.0784,-2.0784,-2.0784,-2.0784,-2.057,-2.0349,-2.0784,-2.2478,-2.3751,-2.3944,-2.4874,-2.7262,-3.1321,-3.3483,-3.3988,-3.3988,-3.4216,-3.4098,-5.1826,-5.2233,-5.0171,-4.8159,-4.6311,-4.4813,-4.3609,-4.2547,-4.0832,-3.9795,-3.9107,-3.7625,-3.7137,-3.7389,-3.7484,-3.7231,-3.6908,-3.5859,-3.5335,-3.5275,-3.4448,-3.3459,-3.265,-3.2059,-3.1394,-3.0558,-2.9406,-2.8701,-2.8259,-2.7681,-2.7349,-2.7233,-2.6999,-2.6514,-2.5926,-2.5588,-2.4622,-2.3303,-2.4294,-2.5351,-2.6162,-2.5232,-2.4876,-2.5248,-2.3544,-2.282,-2.3062,-2.1943,-2.1551,-2.2037,-2.1307,-2.1564,-2.2806,-2.0968,-1.9282,-1.8619,-1.9082,-1.8906,-1.8435,-1.7158,-1.621,-1.5759,-1.4577,-1.3733,-1.3442,-1.3643,-1.4203,-1.4911,-1.4904,-1.5207,-1.5882,-1.5661,-1.5672,-1.6182,-1.6367,-1.6422,-1.5986,-1.6568,-1.6945,-1.6632,-1.7547,-1.807,-1.7966,-1.7825,-1.7154,-1.5598,-1.4052,-1.2906,-1.3133,-1.3665,-1.442,-1.4985,-1.4242,-1.442,-1.7085,-1.9461,-2.0531,-2.0784,-2.0784,-2.0784,-2.0784,-2.0357,-1.9922,-2.0784,-2.2053,-2.2478,-2.2257,-2.3548,-2.7231,-3.1762,-3.3635,-3.4003,-3.4062,-3.448,-3.4574,-5.1207,-5.1085,-4.9362,-4.8206,-4.729,-4.5271,-4.3519,-4.2084,-4.0641,-3.9599,-3.8858,-3.775,-3.7342,-3.757,-3.7665,-3.7586,-3.7444,-3.6908,-3.6701,-3.6701,-3.5508,-3.4768,-3.4426,-3.3437,-3.2478,-3.1374,-3.0929,-3.0162,-2.9196,-2.8623,-2.8144,-2.7913,-2.7216,-2.6765,-2.6631,-2.6145,-2.591,-2.5556,-2.6665,-2.7133,-2.6765,-2.6162,-2.5674,-2.5367,-2.4741,-2.4502,-2.4414,-2.3409,-2.3047,-2.3409,-2.3423,-2.3409,-2.3288,-2.2685,-2.1225,-1.9158,-2.2186,-2.3495,-2.1019,-1.8948,-1.7465,-1.6569,-1.5839,-1.5015,-1.4234,-1.5332,-1.6403,-1.6505,-1.637,-1.6397,-1.6378,-1.6426,-1.6623,-1.6862,-1.6878,-1.6834,-1.7264,-1.738,-1.7396,-1.7881,-1.7941,-1.8094,-1.8397,-1.843,-1.7893,-1.6129,-1.2884,-1.1535,-1.3089,-1.2733,-1.2781,-1.3367,-1.3728,-1.4714,-1.7073,-1.9311,-2.0516,-2.0784,-2.0776,-2.0784,-2.0784,-2.0784,-2.057,-2.0784,-2.121,-2.121,-2.1202,-2.3521,-2.7666,-3.2291,-3.372,-3.3951,-3.3975,-3.4353,-3.4008,-5.1117,-5.0252,-4.9119,-4.8236,-4.74,-4.5641,-4.3726,-4.1737,-4.0159,-3.9206,-3.8433,-3.7672,-3.7468,-3.7672,-3.772,-3.772,-3.775,-3.7421,-3.7342,-3.7468,-3.6598,-3.595,-3.5508,-3.4639,-3.3653,-3.2676,-3.2458,-3.1818,-3.1099,-3.0313,-2.9728,-2.9501,-2.8605,-2.793,-2.7565,-2.7082,-2.6749,-2.6732,-2.8259,-2.7853,-2.5606,-2.5977,-2.5023,-2.253,-2.2936,-2.3011,-2.2981,-2.2634,-2.2533,-2.288,-2.296,-2.2858,-2.2578,-2.2621,-2.2443,-2.2172,-2.4083,-2.4847,-2.369,-2.1563,-1.9542,-1.7714,-1.6538,-1.5873,-1.5873,-1.7468,-1.8419,-1.8179,-1.7291,-1.7252,-1.8328,-1.8555,-1.8287,-1.7638,-1.7388,-1.7508,-1.7704,-1.7706,-1.7926,-1.8302,-1.8157,-1.7964,-1.7863,-1.7937,-1.7574,-1.6776,-1.4011,-1.1929,-1.2706,-1.2302,-1.2491,-1.3682,-1.4276,-1.545,-1.7096,-1.9207,-2.043,-2.0133,-2.0461,-2.0776,-2.0784,-2.0784,-2.0784,-2.0784,-2.0784,-2.0784,-2.0784,-2.3521,-2.79,-3.2538,-3.4184,-3.4231,-3.4359,-3.4177,-3.412,-5.1117,-4.9813,-4.9,-4.8081,-4.6916,-4.5556,-4.3698,-4.1549,-3.9549,-3.8385,-3.7702,-3.7444,-3.7444,-3.7648,-3.7774,-3.7774,-3.7774,-3.775,-3.775,-3.775,-3.7468,-3.7057,-3.639,-3.5741,-3.4958,-3.4105,-3.3869,-3.3567,-3.2936,-3.2079,-3.1525,-3.1303,-3.0332,-2.9424,-2.893,-2.8162,-2.7762,-2.7523,-2.8637,-2.7903,-2.5167,-2.5122,-2.3406,-2.0214,-2.0872,-2.1134,-2.0833,-2.1426,-2.169,-2.165,-2.1399,-2.1002,-2.0666,-2.1693,-2.3499,-2.5893,-2.4913,-2.478,-2.6279,-2.4066,-2.1498,-1.8995,-1.722,-1.6918,-1.8378,-1.9879,-2.0527,-1.9851,-1.8558,-1.8564,-2.0573,-2.0509,-1.9427,-1.7994,-1.7876,-1.7793,-1.7501,-1.7828,-1.8213,-1.8329,-1.8248,-1.8037,-1.7185,-1.7121,-1.7162,-1.6831,-1.5363,-1.3829,-1.3067,-1.2459,-1.3221,-1.4445,-1.5244,-1.5991,-1.7392,-1.9301,-1.9986,-1.96,-2.0234,-2.0634,-2.0665,-2.0728,-2.0784,-2.0784,-2.0784,-2.0784,-2.0784,-2.3309,-2.7124,-3.2838,-3.4104,-3.4121,-3.4613,-3.442,-3.4007,-5.0597,-4.9287,-4.8575,-4.731,-4.5696,-4.429,-4.2977,-4.1737,-3.9303,0.0,0.0,-3.7113,-3.7444,-3.7137,-3.8025,-3.8353,-3.8353,-3.7876,-3.7852,-3.803,-3.775,-3.7546,-3.7421,-3.716,-3.639,-3.532,-3.5531,-3.479,-3.3045,-3.3025,-3.2916,-3.2369,-3.1283,-3.0631,-3.0407,-2.9424,-2.8863,-2.8601,-2.683,-2.757,-3.047,-2.3765,-2.1042,-2.3367,-2.4699,-2.3923,-2.0988,-2.279,-2.3146,-2.1519,-2.0814,-1.8723,-1.5284,-2.1569,-2.5658,-2.6062,-2.4193,-2.4472,-2.746,-2.4145,-2.14,-2.0373,-1.9194,-1.9218,-2.0652,-2.2527,-2.285,-2.104,-2.087,-2.0968,-2.1656,-1.9925,-1.8384,-1.7782,-1.7653,-1.7735,-1.7876,-1.8273,-1.84,-1.8318,-1.8755,-1.8724,-1.7714,-1.7531,-1.7617,-1.7633,-1.6709,-1.5903,-1.5129,-1.4262,-1.4404,-1.5167,-1.5618,-1.6146,-1.7734,-1.875,-1.887,-1.9664,-2.0034,-2.0239,-2.0381,-2.0602,-2.076,-2.0736,-2.0776,-2.076,-2.0776,-2.1366,-2.456,-3.2508,-3.4152,-3.4256,-3.4371,-3.4217,-3.419,-4.9998,-4.8575,-4.7549,-4.6305,0.0,-4.3492,-4.1658,-3.972,-3.8035,-3.6528,-3.5403,-3.6263,-3.6701,-3.6908,-3.7475,-3.8006,-3.8482,-3.8232,-3.8208,-3.8309,-3.803,-3.7929,-3.7929,-3.7648,-3.7137,-3.6517,-3.6644,-3.6205,-3.498,-3.4448,-3.3654,-3.2673,-3.126,-2.9633,-2.7779,-2.7856,-2.817,-2.8671,-3.0012,-3.0412,-2.9718,-2.4673,-2.272,-2.4035,-2.5409,0.0,0.0,0.0,0.0,0.0,0.0,0.0,0.0,-2.3289,-2.5826,-2.4885,-2.2516,-2.1805,-2.311,-2.0131,-1.922,-2.1305,-1.9469,-1.8525,-1.949,-2.2501,-2.3677,-2.2316,-2.259,-2.293,-2.2789,-2.1149,-1.9324,-1.7626,-1.7861,-1.8192,-1.8443,-1.8364,-1.8333,-1.8204,-1.8489,-1.854,-1.7941,-1.7795,-1.7767,-1.7722,-1.6925,-1.6167,-1.5821,-1.5801,-1.5794,-1.5748,-1.6081,-1.6854,-1.7872,-1.8628,-1.9118,-1.9104,-1.9226,-1.956,-1.9939,-2.0436,-2.0657,-2.0334,-2.0349,-2.0381,-2.0294,-2.0263,-2.2433,-2.9016,-3.2701,-3.36,-3.1528,-3.2495,-3.3813,-4.9531,-4.8081,-4.6634,-4.5384,-4.4114,-4.252,-4.0205,-3.7655,-3.6655,-3.5823,-3.5169,-3.5403,-3.5927,-3.6574,-3.6697,-3.7309,-3.836,-3.8385,-3.8485,-3.8609,-3.8333,-3.8208,-3.8107,-3.7828,-3.7648,-3.7468,-3.7366,-3.7263,-3.701,-3.5741,-3.452,-3.3334,-3.1893,-2.9474,-2.6303,0.0,0.0,0.0,-3.3371,-3.3907,-2.93,-2.7542,-2.612,-2.5074,-2.6199,0.0,-2.6255,-2.6873,-2.7115,-2.6803,-2.6006,0.0,-2.4951,0.0,0.0,0.0,0.0,0.0,0.0,0.0,0.0,0.0,-1.8657,-1.799,-1.9512,-2.2583,-2.3846,-2.2511,-2.3435,-2.3755,-2.2875,-2.2126,-2.0625,-1.8171,-1.8294,-1.8662,-1.858,-1.8221,-1.7974,-1.7883,-1.8039,-1.812,-1.8096,-1.7999,-1.7802,-1.7585,-1.6854,-1.6162,-1.5806,-1.6621,-1.6917,-1.6114,-1.6486,-1.7237,-1.7739,-1.878,-1.9203,-1.8795,-1.8687,-1.9008,-1.9584,-2.0199,-2.0334,-1.9986,-1.9923,-1.9939,-1.9615,-1.9552,-2.1149,-2.6217,-3.0897,-3.2785,-2.9063,-3.0814,-3.2952,-4.9162,-4.8081,-4.6663,-4.4928,-4.3014,-4.0641,-3.8884,-3.7553,-3.5823,-3.5002,-3.479,-3.5086,-3.5275,-3.5486,-3.5976,-3.6902,-3.7934,-3.8385,-3.8634,-3.9032,-3.8883,-3.8634,-3.8409,-3.8107,-3.803,-3.803,-3.757,-3.7287,-3.7287,-3.6621,-3.6263,-3.6021,-3.4825,-3.3264,-3.1325,-3.0228,-2.8718,-2.6944,-3.2994,-3.5768,-3.5049,-3.282,-3.0829,-2.9009,-3.007,-2.9349,-2.644,-2.8288,-2.8354,-2.6351,-3.1468,-3.3516,-3.1453,-2.6608,-1.8826,0.0,-0.934,0.0,0.0,0.0,0.0,0.0,0.0,0.0,0.0,-2.5242,-2.3336,-1.9573,-2.1909,-2.2609,-2.0032,-2.0525,-2.0862,-2.0724,-1.9106,-1.7836,-1.7557,-1.7827,-1.7835,-1.7177,-1.769,-1.8111,-1.8044,-1.8063,-1.7923,-1.7858,-1.7265,-1.6417,-1.5637,-1.6021,-1.6428,-1.5698,-1.646,-1.7335,-1.8207,-1.8594,-1.8865,-1.8617,-1.8539,-1.8905,-1.9371,-1.9702,-1.9923,-1.9971,-1.9844,-1.9576,-1.8952,-1.8865,-2.0642,-2.5585,-2.9543,-3.1368,-2.9296,-3.0325,-3.1898,-4.833,-4.726,-4.5554,-4.3998,-4.252,-4.0062,-3.7958,-3.6217,-3.4852,-3.3609,-3.265,-3.2936,-3.3221,-3.3482,-3.3568,-3.4625,-3.6458,-3.7444,-3.8204,-3.8482,-3.8433,-3.8409,-3.8485,-3.8409,-3.8208,-3.8131,-3.775,-3.7239,-3.6724,-3.6724,-3.6033,-3.4662,-3.4536,-3.2651,-2.9089,-3.0374,-3.0923,-3.0481,-3.3294,-3.5323,-3.6286,-3.5236,-3.4204,-3.3444,-3.3716,-3.313,-3.1808,-3.2381,-3.2244,-3.1151,-3.329,-3.4062,-3.265,-2.9768,-2.3532,0.0,0.0,0.0,0.0,0.0,0.0,0.0,0.0,0.0,0.0,0.0,-2.2768,-1.2134,-1.6233,-1.9024,-1.795,-1.9585,-2.0275,-1.9103,-1.6895,-1.6378,-1.8389,-1.782,-1.7447,-1.7901,-1.8794,-1.9367,-1.8937,-1.8335,-1.7995,-1.7579,-1.6737,-1.5766,-1.5161,-1.5736,-1.6274,-1.6243,-1.6863,-1.7394,-1.793,-1.8463,-1.8652,-1.8479,-1.8581,-1.8779,-1.8992,-1.911,-1.9205,-1.9292,-1.9244,-1.9063,-1.8787,-1.8708,-2.0084,-2.4449,-2.7058,-2.7602,-2.6803,-2.925,-3.1547,-4.7469,-4.6323,-4.1705,-3.9864,-3.9685,-3.7592,-3.5829,-3.4455,-3.3434,-3.1736,-2.9578,-2.9933,-2.9712,-2.9251,-2.8309,-2.9684,-3.3027,-3.4622,-3.5948,-3.6738,-3.7325,-3.7745,-3.7944,-3.8187,-3.8107,-3.778,-3.7024,-3.6417,-3.5823,-3.5574,-3.4187,-3.1936,-3.2038,-3.0015,-2.5993,-2.9435,-3.1978,-3.3183,-3.4078,-3.5221,-3.6574,-3.6413,-3.6413,-3.6621,-3.6228,-3.5905,-3.5838,-3.5401,-3.4954,-3.4707,-3.3561,-3.2652,-3.1914,-2.9155,0.0,0.0,0.0,0.0,0.0,0.0,0.0,0.0,0.0,-1.9495,-2.6648,0.0,-1.83,0.0,-1.3148,-1.8637,-1.9171,-1.9456,0.0,0.0,-1.4613,-1.4321,-1.7422,-1.6878,-1.6542,-1.7737,-1.9034,-1.9648,-1.92,-1.828,-1.7551,-1.6902,-1.5557,-1.465,-1.4578,-1.5401,-1.6151,-1.6251,-1.6655,-1.6856,-1.6994,-1.7442,-1.7976,-1.8147,-1.8313,-1.8471,-1.8471,-1.8597,-1.8708,-1.8708,-1.8652,-1.8629,-1.8708,-1.8708,-1.9882,-2.2662,-2.3914,-2.4519,-2.4849,-2.8142,-3.0995,-4.6447,-4.5326,-3.333,-3.0087,-3.2522,-3.0929,-3.1128,-3.2425,-3.1366,-2.9011,-2.575,-2.6272,-2.4512,-2.1001,-1.8106,0.0,-2.6639,-2.8614,-3.0705,-3.2955,-3.5135,-3.6121,-3.6266,-3.7272,-3.7546,-3.6964,-3.487,-3.4128,-3.4675,-3.2438,-3.0147,-2.8215,-2.6658,-2.5412,-2.4618,-2.7587,-3.0277,-3.2552,-3.5307,-3.6734,-3.6931,-3.6931,-3.6931,-3.6931,-3.6644,-3.5998,-3.5122,-3.5053,-3.4517,-3.3285,-3.2122,-3.0922,-2.9386,0.0,0.0,0.0,0.0,0.0,0.0,0.0,0.0,0.0,0.0,0.0,0.0,0.0,0.0,-0.5183,-1.6842,0.0,-2.6394,-2.0555,0.0,0.0,0.0,-1.189,-1.2576,-1.4081,-1.5138,-1.5426,0.0,0.0,-1.8094,-1.742,-1.653,-1.566,-1.432,-1.3609,-1.4275,-1.4926,-1.5223,-1.5154,-1.5076,-1.5068,-1.5061,-1.551,-1.6372,-1.7625,-1.7879,-1.7776,-1.7808,-1.8234,-1.8668,-1.8668,-1.8439,-1.8313,-1.8652,-1.8613,-1.8731,-1.9148,-2.1568,-2.3928,-2.5197,-2.7585,-2.9557,-3.7253,-3.274,-2.7101,-2.5621,-2.6882,-2.5479,-2.573,-2.7192,-2.6672,-2.5798,-2.4488,-2.3654,-2.2252,-2.0404,-1.67,0.0,0.0,0.0,-2.5404,-2.9235,-2.9926,-3.1663,-3.3975,-3.4437,-3.4303,-3.3761,-3.2679,-3.1815,-3.0996,-3.0415,-2.5795,-1.7684,0.0,-2.1043,-1.9113,-2.4509,-2.8229,-3.0235,-3.4454,-3.6724,-3.6908,-3.7034,-3.716,-3.7137,-3.6143,-3.5454,-3.5038,-3.4044,-3.2022,-2.8725,-3.006,-2.5919,0.0,0.0,0.0,0.0,0.0,0.0,0.0,0.0,0.0,0.0,0.0,-2.0622,-1.9159,0.0,0.0,0.0,-1.2045,-1.7495,-2.013,-1.8735,0.0,0.0,0.0,0.0,0.0,0.0,0.0,-1.4355,-1.5179,-1.5942,-1.6619,-1.7147,-1.6531,-1.3853,-1.3485,-1.3245,-1.3059,0.0,-1.4075,-1.4691,-1.4539,-1.4584,-1.4812,-1.4554,-1.4944,-1.6494,-1.6563,-1.6578,-1.6963,-1.7453,-1.7902,-1.8037,-1.7981,-1.7926,-1.8068,-1.7508,-1.7216,-1.7926,-2.0819,-2.3665,-2.478,-2.6821,-2.8635,-2.5524,0.0,0.0,0.0,0.0,-1.9294,-1.9357,-2.031,-2.0869,-2.1472,-2.195,-1.8817,0.0,0.0,0.0,0.0,0.0,0.0,-2.2155,-2.6265,-2.701,-2.8806,-3.168,-3.1783,-3.1609,-3.1009,-2.9761,-2.831,-2.6776,-2.5541,-1.9229,-0.8464,0.0,0.0,0.0,0.0,-2.6682,-2.7804,-3.3532,-3.6828,-3.7137,-3.716,-3.716,-3.716,-3.5849,-3.4836,-3.4257,-3.1965,-2.9651,-2.715,-2.4688,0.0,0.0,0.0,0.0,0.0,0.0,0.0,0.0,0.0,0.0,0.0,0.0,0.0,0.0,0.0,0.0,0.0,0.0,0.0,-1.2526,-1.4221,-1.4025,0.0,0.0,0.0,0.0,0.0,0.0,0.0,0.0,0.0,-1.591,-1.6125,-1.5414,0.0,0.0,-1.319,-1.2409,-1.2657,-1.3083,-1.3464,-1.3292,0.0,-1.3896,-1.3323,-1.3264,-1.4747,-1.5298,-1.5365,-1.5222,-1.5981,-1.6523,-1.6414,-1.6853,-1.6939,-1.6545,-1.555,-1.5999,-1.9049,-2.0809,-2.2202,-2.3505,-2.4528,-2.5669,0.0,0.0,0.0,0.0,-1.2324,0.0,0.0,0.0,-1.4017,-1.5799,0.0,-1.0868,0.0,0.0,0.0,0.0,-1.382,-1.798,0.0,0.0,-2.72,-2.877,-2.8858,-2.9712,-3.0051,-2.938,-2.5785,-2.346,-2.1901,-1.6365,-0.9806,0.0,0.0,0.0,0.0,0.0,-2.5835,-2.5278,-3.2842,-3.7137,-3.7444,-3.7137,-3.6931,-3.6861,-3.5902,-3.4453,-3.2329,-2.8543,-2.7636,-3.01,-1.484,0.0,0.0,0.0,0.0,0.0,0.0,0.0,0.0,0.0,0.0,0.0,0.0,0.0,0.0,0.0,0.0,0.0,0.0,0.0,0.0,-0.6551,0.0,0.0,0.0,0.0,0.0,0.0,0.0,0.0,0.0,-1.6347,-1.6569,-1.4108,-1.2931,-1.5284,0.0,0.0,0.0,0.0,-1.2166,-1.1159,-1.0839,-1.0823,-1.1084,-1.0796,-1.134,-1.3231,0.0,0.0,-1.2444,-1.3534,-1.4419,-1.3893,-1.4797,-1.5219,-1.4019,-1.2831,-1.4628,-2.2163,-2.0824,-1.952,-2.1041,-2.0615,-2.0113,0.0,0.0,0.0,0.0,0.0,0.0,0.0,0.0,0.0,-0.9809,-0.5912,-0.3646,0.0,0.0,0.0,0.0,0.0,0.0,0.0,0.0,-1.9231,-2.0421,-2.0717,-2.2099,-2.1743,-1.9918,-1.949,-1.5684,0.0,0.0,0.0,0.0,0.0,0.0,0.0,0.0,-2.4816,-2.358,-3.2144,-3.7033,-3.7625,-3.7342,-3.6729,-3.5926,-3.5575,-3.4103,-3.1327,-2.8565,-2.5646,0.0,0.0,0.0,0.0,0.0,0.0,0.0,0.0,0.0,0.0,0.0,0.0,0.0,0.0,0.0,0.0,0.0,0.0,0.0,0.0,0.0,0.0,0.0,-0.8037,0.0,0.0,0.0,0.0,0.0,0.0,0.0,0.0,0.0,-1.1754,-1.2764,-1.3176,-1.2427,-1.294,-1.3136,-1.2692,0.0,0.0,0.0,0.0,0.0,0.0,0.0,-1.1081,-1.113,-1.1769,-1.2011,-1.0969,-1.2035,-1.3143,-1.3195,0.0,0.0,-1.0774,-1.0151,-1.1704,-1.6796,-1.6174,-1.5381,-1.6681,-1.5163,-1.4541,0.0,0.0,0.0,0.0,0.0,0.0,0.0,0.0,0.0,-0.4505,0.0,0.0,0.0,0.0,0.0,0.0,0.0,0.0,0.0,0.0,0.0,0.0,-1.6829,-1.7774,0.0,0.0,0.0,0.0,0.0,0.0,0.0,0.0,0.0,0.0,0.0,0.0,-2.3579,-2.2904,-3.2218,-3.7533,-3.8107,-3.7593,-3.6767,-3.5806,-3.5193,-3.3021,-2.9334,0.0,0.0,0.0,0.0,0.0,0.0,0.0,0.0,0.0,0.0,0.0,0.0,0.0,0.0,0.0,0.0,0.0,0.0,0.0,0.0,0.0,0.0,0.0,0.0,0.0,-0.8964,0.0,0.0,0.0,0.0,0.0,0.0,0.0,0.0,0.0,0.0,-1.0515,-1.1825,-1.0785,-1.1776,-1.2585,-1.2594,-1.2028,-1.1962,0.0,0.0,0.0,0.0,0.0,0.0,0.0,0.0,0.0,0.0,0.0,0.0,0.0,-1.1367,-1.0654,-0.7538,-0.7767,-0.8945,-1.0371,0.0,0.0,0.0,0.0,0.0,0.0,0.0,0.0,0.0,0.0,0.0,0.0,0.0,0.0,0.0,0.0,0.0,0.0,0.0,0.0,0.0,0.0,0.0,0.0,0.0,0.0,0.0,0.0,0.0,0.0,0.0,0.0,0.0,0.0,0.0,0.0,0.0,0.0,0.0,0.0,0.0,-2.1992,-2.2849,-3.2961,-3.842,-3.881,-3.792,-3.7161,-3.6513,-3.4619,-3.1263,-2.6372,0.0,0.0,0.0,0.0,0.0,0.0,0.0,0.0,0.0,0.0,0.0,0.0,0.0,0.0,0.0,0.0,0.0,0.0,0.0,0.0,0.0,0.0,0.0,0.0,0.0,0.0,-0.8696,-0.9646,-0.974,0.0,0.0,0.0,0.0,0.0,0.0,0.0,0.0,0.0,-1.0553,-1.1319,-1.1982,-1.2772,-1.2033,-1.1691,-1.2154,-1.167,-1.146,-1.1967,-1.1823,-1.1599,0.0,0.0,0.0,0.0,0.0,0.0,0.0,0.0,0.0,0.0,0.0,0.0,0.0,0.0,0.0,0.0,0.0,0.0,0.0,0.0,0.0,0.0,0.0,0.0,0.0,0.0,0.0,0.0,0.0,0.0,0.0,0.0,0.0,0.0,0.0,0.0,0.0,0.0,0.0,0.0,0.0,0.0,0.0,0.0,0.0,0.0,0.0,0.0,0.0,0.0,0.0,0.0,0.0,0.0,-2.1545,-2.255,-3.2779,-3.8476,-3.915,-3.8724,-3.7979,-3.6945,-3.4484,-3.0369,-2.4343,0.0,0.0,0.0,0.0,0.0,0.0,0.0,0.0,0.0,0.0,0.0,0.0,0.0,0.0,0.0,0.0,0.0,0.0,0.0,0.0,0.0,0.0,0.0,0.0,0.0,0.0,0.0,-1.0947,-0.8902,-0.9336,0.0,0.0,0.0,0.0,0.0,0.0,0.0,0.0,0.0,0.0,-1.2516,-1.4185,-1.2796,-1.2069,-1.3287,-1.2555,-1.1823,-1.1703,-1.1584,-1.1225,-1.0392,0.0,0.0,0.0,0.0,0.0,0.0,0.0,0.0,0.0,0.0,0.0,0.0,0.0,0.0,0.0,0.0,0.0,0.0,0.0,0.0,0.0,0.0,0.0,0.0,0.0,0.0,0.0,0.0,0.0,0.0,0.0,0.0,0.0,0.0,0.0,0.0,0.0,0.0,0.0,0.0,0.0,0.0,0.0,0.0,0.0,0.0,0.0,0.0,0.0,0.0,0.0,0.0,0.0,-2.1842,-2.3549,-3.3784,-3.935,-3.9786,-3.9365,-3.8364,-3.6817,-3.4124,-2.9361,0.0,0.0,0.0,0.0,0.0,0.0,0.0,0.0,0.0,0.0,0.0,0.0,0.0,0.0,0.0,0.0,0.0,0.0,0.0,0.0,0.0,0.0,0.0,0.0,0.0,0.0,0.0,0.0,-1.2122,-1.1227,-0.9846,0.0,0.0,0.0,0.0,0.0,0.0,0.0,0.0,0.0,0.0,-1.2348,-1.414,-1.2869,0.0,0.0,-1.189,-1.0655,-1.1808,-1.2294,-1.1736,-0.9537,-0.8969,0.0,0.0,0.0,0.0,0.0,0.0,0.0,0.0,0.0,0.0,0.0,0.0,0.0,0.0,0.0,0.0,0.0,0.0,0.0,0.0,0.0,0.0,0.0,0.0,0.0,0.0,0.0,0.0,0.0,0.0,0.0,0.0,0.0,0.0,0.0,0.0,0.0,0.0,0.0,0.0,0.0,0.0,0.0,0.0,0.0,0.0,0.0,0.0,0.0,0.0,0.0,0.0,-2.2325,-2.5389,-3.5282,-4.0539,-4.0714,-3.9667,-3.8275,-3.6516,-3.3712,-2.8426,0.0,0.0,0.0,0.0,0.0,0.0,0.0,0.0,0.0,0.0,0.0,0.0,0.0,0.0,0.0,0.0,0.0,0.0,0.0,0.0,0.0,0.0,0.0,0.0,0.0,0.0,0.0,0.0,0.0,0.0,0.0,0.0,0.0,0.0,0.0,0.0,0.0,0.0,0.0,0.0,0.0,-1.1721,-1.3252,-1.2598,-1.2435,0.0,-1.052,-0.8607,-1.1727,-1.3443,-1.308,-0.8897,0.0,0.0,0.0,0.0,0.0,0.0,0.0,0.0,0.0,0.0,0.0,0.0,0.0,0.0,0.0,0.0,0.0,0.0,0.0,0.0,0.0,0.0,0.0,0.0,0.0,0.0,0.0,0.0,0.0,0.0,0.0,0.0,0.0,0.0,0.0,0.0,0.0,0.0,0.0,0.0,0.0,0.0,0.0,0.0,0.0,0.0,0.0,0.0,0.0,0.0,0.0,0.0,0.0,0.0,-2.3786,-3.398,-3.9534,-3.9872,-3.9356,-3.8683,-3.7907,-3.4851,0.0,0.0,0.0,0.0,0.0,0.0,0.0,0.0,0.0,0.0,0.0,0.0,0.0,0.0,0.0,0.0,0.0,0.0,0.0,0.0,0.0,0.0,0.0,0.0,0.0,0.0,0.0,-0.8571,0.0,0.0,0.0,0.0,0.0,0.0,0.0,0.0,0.0,0.0,0.0,0.0,0.0,0.0,-1.3553,-1.613,-1.3786,-1.2082,0.0,0.0,-0.8705,-0.996,-1.1738,-1.2456,0.0,0.0,0.0,0.0,0.0,0.0,0.0,0.0,0.0,0.0,0.0,0.0,0.0,0.0,0.0,0.0,0.0,0.0,0.0,0.0,0.0,0.0,0.0,0.0,0.0,0.0,0.0,0.0,0.0,0.0,0.0,0.0,0.0,0.0,0.0,0.0,0.0,0.0,0.0,0.0,0.0,0.0,0.0,0.0,0.0,0.0,0.0,0.0,0.0,0.0,0.0,0.0,0.0,0.0,-2.2851,-2.4627,-3.1612,-3.7068,-4.0367,-3.977,-3.8983,-3.8256,-3.4973,-2.9448,0.0,0.0,0.0,0.0,0.0,0.0,0.0,0.0,0.0,0.0,0.0,0.0,0.0,0.0,0.0,0.0,0.0,0.0,0.0,0.0,0.0,0.0,0.0,0.0,0.0,0.0,0.0,0.0,0.0,0.0,0.0,0.0,0.0,0.0,0.0,0.0,0.0,0.0,0.0,0.0,0.0,0.0,-1.5721,-1.306,0.0,0.0,0.0,-0.7666,-0.9246,0.0,0.0,0.0,0.0,0.0,0.0,0.0,0.0,0.0,0.0,0.0,0.0,0.0,0.0,0.0,0.0,0.0,0.0,0.0,0.0,0.0,0.0,0.0,0.0,0.0,0.0,0.0,0.0,0.0,0.0,0.0,0.0,0.0,0.0,0.0,0.0,0.0,0.0,0.0,0.0,0.0,0.0,0.0,0.0,0.0,0.0,0.0,0.0,0.0,0.0,0.0,0.0,0.0,0.0,0.0,0.0,0.0,-2.5911,-2.9615,-3.4824,-4.1152,-4.0207,-3.902,-3.7925,-3.4647,-2.9335,0.0,0.0,0.0,0.0,0.0,0.0,0.0,0.0,0.0,0.0,0.0,0.0,0.0,0.0,0.0,0.0,0.0,0.0,0.0,0.0,0.0,0.0,0.0,0.0,0.0,0.0,0.0,0.0,0.0,0.0,0.0,0.0,0.0,0.0,0.0,0.0,0.0,0.0,0.0,0.0,0.0,-1.4484,-1.3778,-1.1538,-1.0136,0.0,0.0,-0.6422,-0.9267,-0.9912,0.0,0.0,0.0,0.0,0.0,0.0,0.0,0.0,0.0,0.0,0.0,0.0,0.0,0.0,0.0,0.0,0.0,0.0,0.0,0.0,0.0,0.0,0.0,0.0,0.0,0.0,0.0,0.0,0.0,0.0,0.0,0.0,0.0,0.0,0.0,0.0,0.0,0.0,0.0,0.0,0.0,0.0,0.0,0.0,0.0,0.0,0.0,0.0,0.0,0.0,0.0,0.0,0.0,0.0,0.0,0.0,-2.516,-3.2548,-3.7721,-4.0155,-3.8992,-3.8123,-3.7848,-3.5843,-3.0555,0.0,0.0,0.0,0.0,0.0,0.0,0.0,0.0,0.0,0.0,0.0,0.0,0.0,0.0,0.0,0.0,0.0,0.0,0.0,0.0,0.0,0.0,0.0,0.0,0.0,0.0,0.0,0.0,0.0,0.0,0.0,0.0,0.0,0.0,0.0,0.0,0.0,0.0,0.0,0.0,0.0,-1.2828,-1.3606,-1.2058,0.0,0.0,0.0,0.0,-0.9336,-0.8987,0.0,0.0,0.0,0.0,0.0,0.0,0.0,0.0,0.0,0.0,0.0,0.0,0.0,0.0,0.0,0.0,0.0,0.0,0.0,0.0,0.0,0.0,0.0,0.0,0.0,0.0,0.0,0.0,0.0,0.0,0.0,0.0,0.0,0.0,0.0,0.0,0.0,0.0,0.0,0.0,0.0,0.0,0.0,0.0,0.0,0.0,0.0,0.0,0.0,0.0,0.0,0.0,0.0,0.0,0.0,0.0,-2.6793,-3.2925,-3.7707,-4.0895,-3.9578,-3.8799,-3.8642,-3.6965,-3.1513,0.0,0.0,0.0,0.0,0.0,0.0,0.0,0.0,0.0,0.0,0.0,0.0,0.0,0.0,0.0,0.0,0.0,0.0,0.0,0.0,0.0,0.0,0.0,0.0,0.0,0.0,0.0,0.0,0.0,0.0,0.0,0.0,0.0,0.0,0.0,0.0,0.0,0.0,0.0,0.0,-1.3427,-1.1893,-1.2307,0.0,0.0,0.0,0.0,0.0,0.0,-0.7282,-0.5605,0.0,0.0,0.0,0.0,0.0,0.0,0.0,0.0,0.0,0.0,0.0,0.0,0.0,0.0,0.0,0.0,0.0,0.0,0.0,0.0,0.0,0.0,0.0,0.0,0.0,0.0,0.0,0.0,0.0,0.0,0.0,0.0,0.0,0.0,0.0,0.0,0.0,0.0,0.0,0.0,0.0,0.0,0.0,0.0,0.0,0.0,0.0,0.0,0.0,0.0,0.0,0.0,0.0,0.0,0.0,-2.8829,-3.1488,-3.5739,-4.1594,-4.0584,-3.9872,-3.9589,-3.7895,-3.2342,-2.287,0.0,0.0,0.0,0.0,0.0,0.0,0.0,0.0,0.0,0.0,0.0,0.0,0.0,0.0,0.0,0.0,0.0,0.0,0.0,0.0,0.0,0.0,0.0,0.0,0.0,0.0,0.0,0.0,0.0,0.0,0.0,0.0,0.0,0.0,0.0,0.0,0.0,0.0,0.0,-1.1764,-1.0657,0.0,0.0,0.0,0.0,0.0,0.0,0.0,0.0,-0.4584,0.0,0.0,0.0,0.0,0.0,0.0,0.0,0.0,0.0,0.0,0.0,0.0,0.0,0.0,0.0,0.0,0.0,0.0,0.0,0.0,0.0,0.0,0.0,0.0,0.0,0.0,0.0,0.0,0.0,0.0,0.0,0.0,0.0,0.0,0.0,0.0,0.0,0.0,0.0,0.0,0.0,0.0,0.0,0.0,0.0,0.0,0.0,0.0,0.0,0.0,0.0,0.0,0.0,0.0,0.0,0.0,-2.7308,-3.1199,-3.9897,-4.0367,-4.0292,-4.0262,-3.8184,-3.2688,-2.352,0.0,0.0,0.0,0.0,0.0,0.0,0.0,0.0,0.0,0.0,0.0,0.0,0.0,0.0,0.0,0.0,0.0,0.0,0.0,0.0,0.0,0.0,0.0,0.0,0.0,0.0,0.0,0.0,0.0,0.0,0.0,0.0,0.0,0.0,0.0,0.0,0.0,0.0,-0.9823,-0.8492,0.0,0.0,0.0,0.0,0.0,0.0,0.0,0.0,-0.5503,0.0,0.0,0.0,0.0,0.0,0.0,0.0,0.0,0.0,0.0,0.0,0.0,0.0,0.0,0.0,0.0,0.0,0.0,0.0,0.0,0.0,0.0,0.0,0.0,0.0,0.0,0.0,0.0,0.0,0.0,0.0,0.0,0.0,0.0,0.0,0.0,0.0,0.0,0.0,0.0,0.0,0.0,0.0,0.0,0.0,0.0,0.0,0.0,0.0,0.0,0.0,0.0,0.0,0.0,0.0,0.0,0.0,0.0,-3.3116,-3.9293,-4.0672,-4.1114,-4.0554,-3.6098,-3.0119,0.0,0.0,0.0,0.0,0.0,0.0,0.0,0.0,0.0,0.0,0.0,0.0,0.0,0.0,0.0,0.0,0.0,0.0,0.0,0.0,0.0,0.0,0.0,0.0,0.0,0.0,0.0,0.0,0.0,0.0,0.0,0.0,0.0,0.0,0.0,0.0,0.0,0.0,0.0,0.0,0.0,0.0,0.0,0.0,0.0,0.0,0.0,0.0,0.0,0.0,0.0,0.0,0.0,0.0,0.0,0.0,0.0,0.0,0.0,0.0,0.0,0.0,0.0,0.0,0.0,0.0,0.0,0.0,0.0,0.0,0.0,0.0,0.0,0.0,0.0,0.0,0.0,0.0,0.0,0.0,0.0,0.0,0.0,0.0,0.0,0.0,0.0,0.0,0.0,0.0,0.0,0.0,0.0,0.0,0.0,0.0,0.0,0.0,0.0,0.0,0.0,0.0,0.0,0.0,0.0,0.0,0.0,0.0,-3.3694,-3.799,-4.0798,-4.1525,-4.0323,-3.3479,-2.7118,0.0,0.0,0.0,0.0,0.0,0.0,0.0,0.0,0.0,0.0,0.0,0.0,0.0,0.0,0.0,0.0,0.0,0.0,0.0,0.0,0.0,0.0,0.0,0.0,0.0,0.0,0.0,0.0,0.0,0.0,0.0,0.0,0.0,0.0,0.0,0.0,0.0,0.0,0.0,0.0,0.0,0.0,0.0,0.0,0.0,0.0,0.0,0.0,-0.5244,0.0,0.0,0.0,0.0,0.0,0.0,0.0,0.0,0.0,0.0,0.0,0.0,0.0,0.0,0.0,0.0,0.0,0.0,0.0,0.0,0.0,0.0,0.0,0.0,0.0,0.0,0.0,0.0,0.0,0.0,0.0,0.0,0.0,0.0,0.0,0.0,0.0,0.0,0.0,0.0,0.0,0.0,0.0,0.0,0.0,0.0,0.0,0.0,0.0,0.0,0.0,0.0,0.0,0.0,0.0,0.0,0.0,0.0,0.0,-2.7544,-3.4939,-4.0034,-4.1195,-3.8027,-3.1013,-2.4834,0.0,0.0,0.0,0.0,0.0,0.0,0.0,0.0,0.0,0.0,0.0,0.0,0.0,0.0,0.0,0.0,0.0,0.0,0.0,0.0,0.0,0.0,0.0,0.0,0.0,0.0,0.0,0.0,0.0,0.0,0.0,0.0,0.0,0.0,0.0,0.0,0.0,0.0,0.0,0.0,0.0,0.0,0.0,0.0,0.0,0.0,0.0,0.0,0.0,0.0,0.0,0.0,0.0,0.0,0.0,0.0,0.0,0.0,0.0,0.0,0.0,0.0,0.0,0.0,0.0,0.0,0.0,0.0,0.0,0.0,0.0,0.0,0.0,0.0,0.0,0.0,0.0,0.0,0.0,0.0,0.0,0.0,0.0,0.0,0.0,0.0,0.0,0.0,0.0,0.0,0.0,0.0,0.0,0.0,0.0,0.0,0.0,0.0,0.0,0.0,0.0,0.0,0.0,0.0,0.0,0.0,0.0,0.0,-2.7052,-2.989,-3.667,-3.7062,-3.0317,-2.4472,-1.9457,0.0,0.0,0.0,0.0,0.0,0.0,0.0,0.0,0.0,0.0,0.0,0.0,0.0,0.0,0.0,0.0,0.0,0.0,0.0,0.0,0.0,0.0,0.0,0.0,0.0,0.0,0.0,0.0,0.0,0.0,0.0,0.0,0.0,0.0,0.0,0.0,0.0,0.0,0.0,0.0,0.0,0.0,0.0,0.0,0.0,0.0,0.0,0.0,0.0,0.0,0.0,0.0,0.0,0.0,0.0,0.0,0.0,0.0,0.0,0.0,0.0,0.0,0.0,0.0,0.0,0.0,0.0,0.0,0.0,0.0,0.0,0.0,0.0,0.0,0.0,0.0,0.0,0.0,0.0,0.0,0.0,0.0,0.0,0.0,0.0,0.0,0.0,0.0,0.0,0.0,0.0,0.0,0.0,0.0,0.0,0.0,0.0,0.0,0.0,0.0,0.0,0.0,0.0,0.0,0.0,0.0,0.0,0.0,0.0,-2.5834,-3.1306,-3.108,-2.4465,-1.981,-1.5035,0.0,0.0,0.0,0.0,0.0,0.0,0.0,0.0,0.0,0.0,0.0,0.0,0.0,0.0,0.0,0.0,0.0,0.0,0.0,0.0,0.0,0.0,0.0,0.0,0.0,0.0,0.0,0.0,0.0,0.0,0.0,0.0,0.0,0.0,0.0,0.0,0.0,0.0,0.0,0.0,0.0,0.0,0.0,0.0,0.0,0.0,0.0,0.0,0.0,0.0,0.0,0.0,0.0,0.0,0.0,0.0,0.0,0.0,0.0,0.0,0.0,0.0,0.0,0.0,0.0,0.0,0.0,0.0,0.0,0.0,0.0,0.0,0.0,0.0,0.0,0.0,0.0,0.0,0.0,0.0,0.0,0.0,0.0,0.0,0.0,0.0,0.0,0.0,0.0,0.0,0.0,0.0,0.0,0.0,0.0,0.0,0.0,0.0,0.0,0.0,0.0,0.0,0.0,0.0,0.0,0.0,0.0,0.0,0.0,-2.3747,-2.3431,-2.3253,-2.2868,-1.9031,-1.3021,0.0,0.0,0.0,0.0,0.0,0.0,0.0,0.0,0.0,0.0,0.0,0.0,0.0,0.0,0.0,0.0,0.0,0.0,0.0,0.0,0.0,0.0,0.0,0.0,0.0,0.0,0.0,0.0,0.0,0.0,0.0,0.0,0.0,0.0,0.0,0.0,0.0,0.0,0.0,0.0,0.0,0.0,0.0,0.0,0.0,0.0,0.0,0.0,0.0,0.0,0.0,0.0,0.0,0.0,0.0,0.0,0.0,0.0,0.0,0.0,0.0,0.0,0.0,0.0,0.0,0.0,0.0,0.0,0.0,0.0,0.0,0.0,0.0,0.0,0.0,0.0,0.0,0.0,0.0,0.0,0.0,0.0,0.0,0.0,0.0,0.0,0.0,0.0,0.0,0.0,0.0,0.0,0.0,0.0,0.0,0.0,0.0,0.0,0.0,0.0,0.0,0.0,0.0,0.0,0.0,0.0,0.0,0.0,0.0,-1.4147,-1.9781,-2.0733,-1.6537,-0.988,-0.5455,-0.3556,0.0,0.0,0.0,0.0,0.0,0.0,0.0,0.0,0.0,0.0,0.0,0.0,0.0,0.0,0.0,0.0,0.0,0.0,0.0,0.0,0.0,0.0,0.0,0.0,0.0,0.0,0.0,0.0,0.0,0.0,0.0,0.0,0.0,0.0,0.0,0.0,0.0,0.0,0.0,0.0,0.0,0.0,0.0,0.0,0.0,0.0,0.0,0.0,0.0,0.0,0.0,0.0,0.0,0.0,0.0,0.0,0.0,0.0,0.0,0.0,0.0,0.0,0.0,0.0,0.0,0.0,0.0,0.0,0.0,0.0,0.0,0.0,0.0,0.0,0.0,0.0,0.0,0.0,0.0,0.0,0.0,0.0,0.0,0.0,0.0,0.0,0.0,0.0,0.0,0.0,0.0,0.0,0.0,0.0,0.0,0.0,0.0,0.0,0.0,0.0,0.0,0.0,0.0,0.0,0.0,0.0,0.0,0.0,-0.9719,-1.6256,-1.69,-1.121,-0.6696,-0.3775,0.0,0.0,0.0,0.0,0.0,0.0,0.0,0.0,0.0,0.0,0.0,0.0,0.0,0.0,0.0,0.0,0.0,0.0,0.0,0.0,0.0,0.0,0.0,0.0,0.0,0.0,0.0,0.0,0.0,0.0,0.0,0.0,0.0,0.0,0.0,0.0,0.0,0.0,0.0,0.0,0.0,0.0,0.0,0.0,0.0,0.0,0.0,0.0,0.0,0.0,0.0,0.0,0.0,0.0,0.0,0.0,0.0,0.0,0.0,0.0,0.0,0.0,0.0,0.0,0.0,0.0,0.0,0.0,0.0,0.0,0.0,0.0,0.0,0.0,0.0,0.0,0.0,0.0,0.0,0.0,0.0,0.0,0.0,0.0,0.0,0.0,0.0,0.0,0.0,0.0,0.0,0.0,0.0,0.0,0.0,0.0,0.0,0.0,0.0,0.0,0.0,0.0,0.0,0.0,0.0,0.0,0.0,0.0,-1.1681,-1.1837,-1.246,-1.1323,-0.7754,-1.1421,-0.9436,0.0,0.0,0.0,0.0,0.0,0.0,0.0,0.0,0.0,0.0,0.0,0.0,0.0,0.0,0.0,0.0,0.0,0.0,0.0,0.0,0.0,0.0,0.0,0.0,0.0,0.0,0.0,0.0,0.0,0.0,0.0,0.0,0.0,0.0,0.0,0.0,0.0,0.0,0.0,0.0,0.0,0.0,0.0,0.0,0.0,0.0,0.0,0.0,0.0,0.0,0.0,0.0,0.0,0.0,0.0,0.0,0.0,0.0,0.0,0.0,0.0,0.0,0.0,0.0,0.0,0.0,0.0,0.0,0.0,0.0,0.0,0.0,0.0,0.0,0.0,0.0,0.0,0.0,0.0,0.0,0.0,0.0,0.0,0.0,0.0,0.0,0.0,0.0,0.0,0.0,0.0,0.0,0.0,0.0,0.0,0.0,0.0,0.0,0.0,0.0,0.0,0.0,0.0,0.0,0.0,0.0,0.0,0.0,0.0,-1.3915,-1.4097,-1.1705,-0.7209,-0.951,-0.8823,0.0,0.0,0.0,0.0,0.0,0.0,0.0,0.0,0.0,0.0,0.0,0.0,0.0,0.0,0.0,0.0,0.0,0.0,0.0,0.0,0.0,0.0,0.0,0.0,0.0,0.0,0.0,0.0,0.0,0.0,0.0,0.0,0.0,0.0,0.0,0.0,0.0,0.0,0.0,0.0,0.0,0.0,0.0,0.0,0.0,0.0,0.0,0.0,0.0,0.0,0.0,0.0,0.0,0.0,0.0,0.0,0.0,0.0,0.0,0.0,0.0,0.0,0.0,0.0,0.0,0.0,0.0,0.0,0.0,0.0,0.0,0.0,0.0,0.0,0.0,0.0,0.0,0.0,0.0,0.0,0.0,0.0,0.0,0.0,0.0,0.0,0.0,0.0,0.0,0.0,0.0,0.0,0.0,0.0,0.0,0.0,0.0,0.0,0.0,0.0,0.0,0.0,0.0,0.0,0.0,0.0,0.0,0.0,0.0,-1.2222,-1.402,-1.2596,-0.8257,-0.8113,-0.7602,0.0,0.0,0.0,0.0,0.0,0.0,0.0,0.0,0.0,0.0,0.0,0.0,0.0,0.0,0.0,0.0,0.0,0.0,0.0,0.0,0.0,0.0,0.0,0.0,0.0,0.0,0.0,0.0,0.0,0.0,0.0,0.0,0.0,0.0,0.0,0.0,0.0,0.0,0.0,0.0,0.0,0.0,0.0,0.0,0.0,0.0,0.0,0.0,0.0,0.0,0.0,0.0,0.0,0.0,0.0,0.0,0.0,0.0,0.0,0.0,0.0,0.0,0.0,0.0,0.0,0.0,0.0,0.0,0.0,0.0,0.0,0.0,0.0,0.0,0.0,0.0,0.0,0.0,0.0,0.0,0.0,0.0,0.0,0.0,0.0,0.0,0.0,0.0,0.0,0.0,0.0,0.0,0.0,0.0,0.0,0.0,0.0,0.0,0.0,0.0,0.0,0.0,0.0,0.0,0.0,0.0,0.0,0.0,0.0,-0.7649,-1.2193,-1.3309,-1.0359,-0.7682,-0.6235,0.0,0.0,0.0,0.0,0.0,0.0,0.0,0.0,0.0,0.0,0.0,0.0,0.0,0.0,0.0,0.0,0.0,0.0,0.0,0.0,0.0,0.0,0.0,0.0,0.0,0.0,0.0,0.0,0.0,0.0,0.0,0.0,0.0,0.0,0.0,0.0,0.0,0.0,0.0,0.0,0.0,0.0,0.0,0.0,0.0,0.0,0.0,0.0,0.0,0.0,0.0,0.0,0.0,0.0,0.0,0.0,0.0,0.0,0.0,0.0,0.0,0.0,0.0,0.0,0.0,0.0,0.0,0.0,0.0,0.0,0.0,0.0,0.0,0.0,0.0,0.0,0.0,0.0,0.0,0.0,0.0,0.0,0.0,0.0,0.0,0.0,0.0,0.0,0.0,0.0,0.0,0.0,0.0,0.0,0.0,0.0,0.0,0.0,0.0,0.0,0.0,0.0,0.0,0.0,0.0,0.0,0.0,0.0,0.0,0.0,-1.0528,-1.1982,-0.9219,-0.7673,-0.6549,-0.5677,0.0,0.0,0.0,0.0,0.0,0.0,0.0,0.0,0.0,0.0,0.0,0.0,0.0,0.0,0.0,0.0,0.0,0.0,0.0,0.0,0.0,0.0,0.0,0.0,0.0,0.0,0.0,0.0,0.0,0.0,0.0,0.0,0.0,0.0,0.0,0.0,0.0,0.0,0.0,0.0,0.0,0.0,0.0,0.0,0.0,0.0,0.0,0.0,0.0,0.0,0.0,0.0,0.0,0.0,0.0,0.0,0.0,0.0,0.0,0.0,0.0,0.0,0.0,0.0,0.0,0.0,0.0,0.0,0.0,0.0,0.0,0.0,0.0,0.0,0.0,0.0,0.0,0.0,0.0,0.0,0.0,0.0,0.0,0.0,0.0,0.0,0.0,0.0,0.0,0.0,0.0,0.0,0.0,0.0,0.0,0.0,0.0,0.0,0.0,0.0,0.0,0.0,0.0,0.0,0.0,0.0,0.0,0.0,0.0,0.0,-1.0238,-0.9079,-0.7119,-0.592,0.0,0.0,0.0,0.0,0.0,0.0,0.0,0.0,0.0,0.0,0.0,0.0,0.0,0.0,0.0,0.0,0.0,0.0,0.0,0.0,0.0,0.0,0.0,0.0,0.0,0.0,0.0,0.0,0.0,0.0,0.0,0.0,0.0,0.0,0.0,0.0,0.0,0.0,0.0,0.0,0.0,0.0,0.0,0.0,0.0,0.0,0.0,0.0,0.0,0.0,0.0,0.0,0.0,0.0,0.0,0.0,0.0,0.0,0.0,0.0,0.0,0.0,0.0,0.0,0.0,0.0,0.0,0.0,0.0,0.0,0.0,0.0,0.0,0.0,0.0,0.0,0.0,0.0,0.0,0.0,0.0,0.0,0.0,0.0,0.0,0.0,0.0,0.0,0.0,0.0,0.0,0.0,0.0,0.0,0.0,0.0,0.0,0.0,0.0,0.0,0.0,0.0,0.0,0.0,0.0,0.0,0.0,0.0,0.0,0.0,0.0,-0.8465,-0.9468,-0.651,0.0,-0.5781,0.0,0.0,0.0,0.0,0.0,0.0,0.0,0.0,0.0,0.0,0.0,0.0,0.0,0.0,0.0,0.0,0.0,0.0,0.0,0.0,0.0,0.0,0.0,0.0,0.0,0.0,0.0,0.0,0.0,0.0,0.0,0.0,0.0,0.0,0.0,0.0,0.0,0.0,0.0,0.0,0.0,0.0,0.0,0.0,0.0,0.0,0.0,0.0,0.0,0.0,0.0,0.0,0.0,0.0,0.0,0.0,0.0,0.0,0.0,0.0,0.0,0.0,0.0,0.0,0.0,0.0,0.0,0.0,0.0,0.0,0.0,0.0,0.0,0.0,0.0,0.0,0.0,0.0,0.0,0.0,0.0,0.0,0.0,0.0,0.0,0.0,0.0,0.0,0.0,0.0,0.0,0.0,0.0,0.0,0.0,0.0,0.0,0.0,0.0,0.0,0.0,0.0,0.0,0.0,0.0,0.0,0.0,0.0,0.0,0.0,0.0,0.0,-0.7968,-0.7367,-0.6198,0.0,0.0,0.0,0.0,0.0,0.0,0.0,0.0,0.0,0.0,0.0,0.0,0.0,0.0,0.0,0.0,0.0,0.0,0.0,0.0,0.0,0.0,0.0,0.0,0.0,0.0,0.0,0.0,0.0,0.0,0.0,0.0,0.0,0.0,0.0,0.0,0.0,0.0,0.0,0.0,0.0,0.0,0.0,0.0,0.0,0.0,0.0,0.0,0.0,0.0,0.0,0.0,0.0,0.0,0.0,0.0,0.0,0.0,0.0,0.0,0.0,0.0,0.0,0.0,0.0,0.0,0.0,0.0,0.0,0.0,0.0,0.0,0.0,0.0,0.0,0.0,0.0,0.0,0.0,0.0,0.0,0.0,0.0,0.0,0.0,0.0,0.0,0.0,0.0,0.0,0.0,0.0,0.0,0.0,0.0,0.0,0.0,0.0,0.0,0.0,0.0,0.0,0.0,0.0,0.0,0.0,0.0,0.0,0.0,0.0,-0.8494,-0.755,-0.8367,-0.8104,-0.6476,0.0,0.0,0.0,0.0,0.0,0.0,0.0,0.0,0.0,0.0,0.0,0.0,0.0,0.0,0.0,0.0,0.0,0.0,0.0,0.0,0.0,0.0,0.0,0.0,0.0,0.0,0.0,0.0,0.0,0.0,0.0,0.0,0.0,0.0,0.0,0.0,0.0,0.0,0.0,0.0,0.0,0.0,0.0,0.0,0.0,0.0,0.0,0.0,0.0,0.0,0.0,0.0,0.0,0.0,0.0,0.0,0.0,0.0,0.0,0.0,0.0,0.0,0.0,0.0,0.0,0.0,0.0,0.0,0.0,0.0,0.0,0.0,0.0,0.0,0.0,0.0,0.0,0.0,0.0,0.0,0.0,0.0,0.0,0.0,0.0,0.0,0.0,0.0,0.0,0.0,0.0,0.0,0.0,0.0,0.0,0.0,0.0,0.0,0.0,0.0,0.0,0.0,0.0,0.0,0.0,0.0,0.0,0.0,0.0,0.0,-0.9187,0.0,0.0,0.0,-0.7026,0.0,0.0,0.0,0.0,0.0,0.0,0.0,0.0,0.0,0.0,0.0,0.0,0.0,0.0,0.0,0.0,0.0,0.0,0.0,0.0,0.0,0.0,0.0,0.0,0.0,0.0,0.0,0.0,0.0,0.0,0.0,0.0,0.0,0.0,0.0,0.0,0.0,0.0,0.0,0.0,0.0,0.0,0.0,0.0,0.0,0.0,0.0,0.0,0.0,0.0,0.0,0.0,0.0,0.0,0.0,0.0,0.0,0.0,0.0,0.0,0.0,0.0,0.0,0.0,0.0,0.0,0.0,0.0,0.0,0.0,0.0,0.0,0.0,0.0,0.0,0.0,0.0,0.0,0.0,0.0,0.0,0.0,0.0,0.0,0.0,0.0,0.0,0.0,0.0,0.0,0.0,0.0,0.0,0.0,0.0,0.0,0.0,0.0,0.0,0.0,0.0,0.0,0.0,0.0,0.0,0.0,0.0,0.0,0.0,0.0,0.0,0.0,0.0,0.0,0.0,0.0,0.0,0.0,0.0,0.0,0.0,0.0,0.0,0.0,0.0,0.0,0.0,0.0,0.0,0.0,0.0,0.0,0.0,0.0,0.0,0.0,0.0,0.0,0.0,0.0,0.0,0.0,0.0,0.0,0.0,0.0,0.0,0.0,0.0,0.0,0.0,0.0,0.0,0.0,0.0,0.0,0.0,0.0,0.0,0.0,0.0,0.0,0.0,0.0,0.0,0.0,0.0,0.0,0.0,0.0,0.0,0.0,0.0,0.0,0.0,0.0,0.0,0.0,0.0,0.0,0.0,0.0,0.0,0.0,0.0,0.0,0.0,0.0,0.0,0.0,0.0,0.0,0.0,0.0,0.0,0.0,0.0,0.0,0.0,0.0,0.0,0.0,0.0,0.0,0.0,0.0,0.0,0.0,0.0,0.0,0.0,0.0,0.0,0.0,0.0,0.0,0.0,0.0,0.0,0.0,0.0,0.0,0.0,0.0,0.0,0.0,0.0,0.0,0.0,0.0,0.0,0.0,0.0,0.0,0.0,0.0,0.0,0.0,0.0,0.0,0.0,0.0,0.0,0.0,0.0,0.0,0.0,0.0,0.0,0.0,0.0,0.0,0.0,0.0,0.0,0.0,0.0,0.0,0.0,0.0,0.0,0.0,0.0,0.0,0.0,0.0,0.0,0.0,0.0,0.0,0.0,0.0,0.0,0.0,0.0,0.0,0.0,0.0,0.0,0.0,0.0,0.0,0.0,0.0,0.0,0.0,0.0,0.0,0.0,0.0,0.0,0.0,0.0,0.0,0.0,0.0,0.0,0.0,0.0,0.0,0.0,0.0,0.0,0.0,0.0,0.0,0.0,0.0,0.0,0.0,0.0,0.0,0.0,0.0,0.0,0.0,0.0,0.0,0.0,0.0,0.0,0.0,0.0,0.0,0.0,0.0,0.0,0.0,0.0,0.0,0.0,0.0,0.0,0.0,0.0,0.0,0.0,0.0,0.0,0.0,0.0,0.0,0.0,0.0,0.0,0.0,0.0,0.0,0.0,0.0,0.0,0.0,0.0,0.0,0.0,0.0,0.0,0.0,0.0,0.0,0.0,0.0,0.0,0.0,0.0,0.0,0.0,0.0,0.0,0.0,0.0,0.0,0.0,0.0,0.0,0.0,0.0,0.0,0.0,0.0,0.0,0.0,0.0,0.0,0.0,0.0,0.0,0.0,0.0,0.0,0.0,0.0,0.0,0.0,0.0,0.0,0.0,0.0,0.0,0.0,0.0,0.0,0.0,0.0,0.0,0.0,0.0,0.0,0.0,0.0,0.0,0.0,0.0,0.0,0.0,0.0,0.0,0.0,0.0,0.0,0.0,0.0,0.0,0.0,0.0,0.0,0.0,0.0,0.0,0.0,0.0,0.0,0.0,0.0,0.0,0.0,0.0,0.0,0.0,0.0,0.0,0.0,0.0,0.0,0.0,0.0,0.0,0.0,0.0,0.0,0.0,0.0,0.0,0.0,0.0,0.0,0.0,0.0,0.0,0.0,0.0,0.0,0.0,0.0,0.0,0.0,0.0,0.0,0.0,0.0,0.0,0.0,0.0,0.0,0.0,0.0,0.0,0.0,0.0,0.0,0.0,0.0,0.0,0.0,0.0,0.0,0.0,0.0,0.0,0.0,0.0,0.0,0.0,0.0,0.0,0.0,0.0,0.0,0.0,0.0,0.0,0.0,0.0,0.0,0.0,0.0,0.0,0.0,0.0,0.0,0.0,0.0,0.0,0.0,0.0,0.0,0.0,0.0,0.0,0.0,0.0,0.0,0.0,0.0,0.0,0.0,0.0,0.0,0.0,0.0,0.0,0.0,0.0,0.0,0.0,0.0,0.0,0.0,0.0,0.0,0.0,0.0,0.0,0.0,0.0,0.0,0.0,0.0,0.0,0.0,0.0,0.0,0.0,0.0,0.0,0.0,0.0,0.0,0.0,0.0,0.0,0.0,0.0,0.0,0.0,0.0,0.0,0.0,0.0,0.0,0.0,0.0,0.0,0.0,0.0,0.0,0.0,0.0,0.0,0.0,0.0,0.0,0.0,0.0,0.0,0.0,0.0,0.0,0.0,0.0,0.0,0.0,0.0,0.0,0.0,0.0,0.0,0.0,0.0,0.0,0.0,0.0,0.0,0.0,0.0,0.0,0.0,0.0,0.0,0.0,0.0,0.0,0.0,0.0,0.0,0.0,0.0,0.0,0.0,0.0,0.0,0.0,0.0,0.0,0.0,0.0,0.0,0.0,0.0,0.0,0.0,0.0,0.0,0.0,0.0,0.0,0.0,0.0,0.0,0.0,0.0,0.0,0.0,0.0,0.0,0.0,0.0,0.0,0.0,0.0,0.0,0.0,0.0,0.0,0.0,0.0,0.0,0.0,0.0,0.0,0.0,0.0,0.0,0.0,0.0,0.0,0.0,0.0,0.0,0.0,0.0,0.0,0.0,0.0,0.0,0.0,0.0,0.0,0.0,0.0,0.0,0.0,0.0,0.0,0.0,0.0,0.0,0.0,0.0,0.0,0.0,0.0,0.0,0.0,0.0,0.0,0.0,0.0,0.0,0.0,0.0,0.0,0.0,0.0,0.0,0.0,0.0,0.0,0.0,0.0,0.0,0.0,0.0,0.0,0.0,0.0,0.0,0.0,0.0,0.0,0.0,0.0,0.0,0.0,0.0,0.0,0.0,0.0,0.0,0.0,0.0,0.0,0.0,0.0,0.0,0.0,0.0,0.0,0.0,0.0,0.0,0.0,0.0,0.0,0.0,0.0,0.0,0.0,0.0,0.0,0.0,0.0,0.0,0.0,0.0,0.0,0.0,0.0,0.0,0.0,0.0,0.0,0.0,0.0,0.0,0.0,0.0,0.0,0.0,0.0,0.0,0.0,0.0,0.0,0.0,0.0,0.0,0.0,0.0,0.0,0.0,0.0,0.0,0.0,0.0,0.0,0.0,0.0,0.0,0.0,0.0,0.0,0.0,0.0,0.0,0.0,0.0,0.0,0.0,0.0,0.0,0.0,0.0,0.0,0.0,0.0,0.0,0.0,0.0,0.0,0.0,0.0,0.0,0.0,0.0,0.0,0.0,0.0,0.0,0.0,0.0,0.0,0.0,0.0,0.0,0.0,0.0,0.0,0.0,0.0,0.0,0.0,0.0,0.0,0.0,0.0,0.0,0.0,0.0,0.0,0.0,0.0,0.0,0.0,0.0,0.0,0.0,0.0,0.0,0.0,0.0,0.0,0.0,0.0,0.0,0.0,0.0,0.0,0.0,0.0,0.0,0.0,0.0,0.0,0.0,0.0,0.0,0.0,0.0,0.0,0.0,0.0,0.0,0.0,0.0,0.0,0.0,0.0,0.0,0.0,0.0,0.0,0.0,0.0,0.0,0.0,0.0,0.0,0.0,0.0,0.0,0.0,0.0,0.0,0.0,0.0,0.0,0.0,0.0,0.0,0.0,0.0,0.0,0.0,0.0,0.0,0.0,0.0,0.0,0.0,0.0,0.0,0.0,0.0,0.0,0.0,0.0,0.0,0.0,0.0,0.0,0.0,0.0,0.0,0.0,0.0,0.0,0.0,0.0,0.0,0.0,0.0,0.0,0.0,0.0,0.0,0.0,0.0,0.0,0.0,0.0,0.0,0.0,0.0,0.0,0.0,0.0,0.0,0.0,0.0,0.0,0.0,0.0,0.0,0.0,0.0,0.0,0.0,0.0,0.0,0.0,0.0,0.0,0.0,0.0,0.0,0.0,0.0,0.0,0.0,0.0,0.0,0.0,0.0,0.0,0.0,0.0,0.0,0.0,0.0,0.0,0.0,0.0,0.0,0.0,0.0,0.0,0.0]}]]]